<?xml version='1.0' encoding='UTF-8'?><gpx version="1.1" creator="JPX - https://github.com/jenetics/jpx" xmlns="http://www.topografix.com/GPX/1/1"><trk><trkseg><trkpt lat="38.052944177195556" lon="-1.1897782125871117"><ele>138.0</ele><time>2026-04-19T15:48:10Z</time></trkpt><trkpt lat="38.05287452447035" lon="-1.1897397526290465"><ele>138.0</ele><time>2026-04-19T15:48:11Z</time></trkpt><trkpt lat="38.05280128826715" lon="-1.189679950666938"><ele>138.0</ele><time>2026-04-19T15:48:12Z</time></trkpt><trkpt lat="38.05272059748394" lon="-1.18961502852053"><ele>138.0</ele><time>2026-04-19T15:48:13Z</time></trkpt><trkpt lat="38.05261966200019" lon="-1.189567016364737"><ele>138.0</ele><time>2026-04-19T15:48:14Z</time></trkpt><trkpt lat="38.0525471719438" lon="-1.1895012243117435"><ele>138.0</ele><time>2026-04-19T15:48:15Z</time></trkpt><trkpt lat="38.05248181700481" lon="-1.1894205680329808"><ele>138.0</ele><time>2026-04-19T15:48:16Z</time></trkpt><trkpt lat="38.05240141220627" lon="-1.1893287614511243"><ele>138.0</ele><time>2026-04-19T15:48:17Z</time></trkpt><trkpt lat="38.05237022098636" lon="-1.1892300271194647"><ele>138.0</ele><time>2026-04-19T15:48:18Z</time></trkpt><trkpt lat="38.052344996497936" lon="-1.189132980823265"><ele>138.0</ele><time>2026-04-19T15:48:19Z</time></trkpt><trkpt lat="38.05230504651265" lon="-1.189048737732857"><ele>138.0</ele><time>2026-04-19T15:48:20Z</time></trkpt><trkpt lat="38.052259980824886" lon="-1.1889818472371465"><ele>138.8</ele><time>2026-04-19T15:48:21Z</time></trkpt><trkpt lat="38.05218827871362" lon="-1.188942041595703"><ele>139.60000000000002</ele><time>2026-04-19T15:48:22Z</time></trkpt><trkpt lat="38.05212680914703" lon="-1.1888881420664361"><ele>140.39999999999998</ele><time>2026-04-19T15:48:23Z</time></trkpt><trkpt lat="38.05203948010941" lon="-1.1887808739781758"><ele>141.2</ele><time>2026-04-19T15:48:25Z</time></trkpt><trkpt lat="38.05200946725794" lon="-1.1886297624844964"><ele>142.0</ele><time>2026-04-19T15:48:26Z</time></trkpt><trkpt lat="38.051983681018655" lon="-1.1884998737662893"><ele>142.0</ele><time>2026-04-19T15:48:27Z</time></trkpt><trkpt lat="38.05194017436886" lon="-1.1884245710731924"><ele>142.0</ele><time>2026-04-19T15:48:28Z</time></trkpt><trkpt lat="38.05189219796328" lon="-1.1883670133255966"><ele>142.0</ele><time>2026-04-19T15:48:29Z</time></trkpt><trkpt lat="38.051855332184864" lon="-1.188302172730676"><ele>142.0</ele><time>2026-04-19T15:48:30Z</time></trkpt><trkpt lat="38.05176084883351" lon="-1.1882201700358912"><ele>142.0</ele><time>2026-04-19T15:48:32Z</time></trkpt><trkpt lat="38.05172451753893" lon="-1.188150445143879"><ele>142.0</ele><time>2026-04-19T15:48:33Z</time></trkpt><trkpt lat="38.051632660420196" lon="-1.1880382939700476"><ele>142.66666666666669</ele><time>2026-04-19T15:48:35Z</time></trkpt><trkpt lat="38.051570987841075" lon="-1.1879751585733955"><ele>143.33333333333334</ele><time>2026-04-19T15:48:36Z</time></trkpt><trkpt lat="38.051505631569185" lon="-1.1878932306786343"><ele>144.0</ele><time>2026-04-19T15:48:37Z</time></trkpt><trkpt lat="38.051462194743785" lon="-1.1878240120798111"><ele>144.66666666666666</ele><time>2026-04-19T15:48:38Z</time></trkpt><trkpt lat="38.05140216252476" lon="-1.1876852901370278"><ele>145.33333333333331</ele><time>2026-04-19T15:48:40Z</time></trkpt><trkpt lat="38.05140578687757" lon="-1.1875899277268287"><ele>146.0</ele><time>2026-04-19T15:48:41Z</time></trkpt><trkpt lat="38.05141250496329" lon="-1.1874940607360027"><ele>146.0</ele><time>2026-04-19T15:48:42Z</time></trkpt><trkpt lat="38.05139016609278" lon="-1.1874123822904448"><ele>146.0</ele><time>2026-04-19T15:48:43Z</time></trkpt><trkpt lat="38.05135653049108" lon="-1.187342113437727"><ele>146.0</ele><time>2026-04-19T15:48:44Z</time></trkpt><trkpt lat="38.051313849190564" lon="-1.1872518039950308"><ele>146.0</ele><time>2026-04-19T15:48:45Z</time></trkpt><trkpt lat="38.05130106202163" lon="-1.1871564667491568"><ele>146.0</ele><time>2026-04-19T15:48:46Z</time></trkpt><trkpt lat="38.05129523638459" lon="-1.1870569096289008"><ele>146.0</ele><time>2026-04-19T15:48:47Z</time></trkpt><trkpt lat="38.051296000058805" lon="-1.1869583239797443"><ele>146.0</ele><time>2026-04-19T15:48:48Z</time></trkpt><trkpt lat="38.051290343725434" lon="-1.1868591273731344"><ele>147.16666666666666</ele><time>2026-04-19T15:48:49Z</time></trkpt><trkpt lat="38.051250344354514" lon="-1.1867141373170889"><ele>148.33333333333331</ele><time>2026-04-19T15:48:51Z</time></trkpt><trkpt lat="38.051208735835246" lon="-1.1866457250136073"><ele>149.5</ele><time>2026-04-19T15:48:52Z</time></trkpt><trkpt lat="38.051167156374646" lon="-1.186585608416887"><ele>150.66666666666666</ele><time>2026-04-19T15:48:53Z</time></trkpt><trkpt lat="38.051124489897965" lon="-1.186515381080754"><ele>151.83333333333334</ele><time>2026-04-19T15:48:54Z</time></trkpt><trkpt lat="38.05107011519158" lon="-1.186373271545858"><ele>153.0</ele><time>2026-04-19T15:48:56Z</time></trkpt><trkpt lat="38.051001706089046" lon="-1.1862708826572737"><ele>153.5</ele><time>2026-04-19T15:48:58Z</time></trkpt><trkpt lat="38.05094081385362" lon="-1.1861884635280573"><ele>154.0</ele><time>2026-04-19T15:49:00Z</time></trkpt><trkpt lat="38.05088409033925" lon="-1.1861441851705163"><ele>154.5</ele><time>2026-04-19T15:49:01Z</time></trkpt><trkpt lat="38.0508043894555" lon="-1.1861029404808006"><ele>155.0</ele><time>2026-04-19T15:49:02Z</time></trkpt><trkpt lat="38.050705632030045" lon="-1.1860244091177832"><ele>155.5</ele><time>2026-04-19T15:49:04Z</time></trkpt><trkpt lat="38.05066044366448" lon="-1.1859578539643603"><ele>156.0</ele><time>2026-04-19T15:49:05Z</time></trkpt><trkpt lat="38.05062395341229" lon="-1.1858810384804699"><ele>156.0</ele><time>2026-04-19T15:49:06Z</time></trkpt><trkpt lat="38.05060213696016" lon="-1.1857964450292584"><ele>156.0</ele><time>2026-04-19T15:49:07Z</time></trkpt><trkpt lat="38.05056748706564" lon="-1.1857268607604614"><ele>156.0</ele><time>2026-04-19T15:49:08Z</time></trkpt><trkpt lat="38.05051545029097" lon="-1.1856807571117798"><ele>156.0</ele><time>2026-04-19T15:49:09Z</time></trkpt><trkpt lat="38.050475945542054" lon="-1.1856015717557564"><ele>156.0</ele><time>2026-04-19T15:49:11Z</time></trkpt><trkpt lat="38.0503961569763" lon="-1.1855510011166257"><ele>156.0</ele><time>2026-04-19T15:49:14Z</time></trkpt><trkpt lat="38.050322929726704" lon="-1.18555903354984"><ele>156.0</ele><time>2026-04-19T15:49:16Z</time></trkpt><trkpt lat="38.050254308759555" lon="-1.1856415223124581"><ele>156.0</ele><time>2026-04-19T15:49:17Z</time></trkpt><trkpt lat="38.05018978062357" lon="-1.1857350643669844"><ele>156.0</ele><time>2026-04-19T15:49:18Z</time></trkpt><trkpt lat="38.05009579575428" lon="-1.1858433858640707"><ele>156.0</ele><time>2026-04-19T15:49:19Z</time></trkpt><trkpt lat="38.05001228000132" lon="-1.185967657874067"><ele>156.0</ele><time>2026-04-19T15:49:20Z</time></trkpt><trkpt lat="38.04995340834966" lon="-1.1860866076780432"><ele>155.4</ele><time>2026-04-19T15:49:21Z</time></trkpt><trkpt lat="38.04991531025253" lon="-1.1861886622420896"><ele>154.8</ele><time>2026-04-19T15:49:22Z</time></trkpt><trkpt lat="38.049858918051214" lon="-1.1862957028268488"><ele>154.20000000000002</ele><time>2026-04-19T15:49:24Z</time></trkpt><trkpt lat="38.04981240429358" lon="-1.1863838695130255"><ele>153.6</ele><time>2026-04-19T15:49:25Z</time></trkpt><trkpt lat="38.04976219546983" lon="-1.1864963360691347"><ele>153.0</ele><time>2026-04-19T15:49:26Z</time></trkpt><trkpt lat="38.04973559999822" lon="-1.1866084418205873"><ele>152.5</ele><time>2026-04-19T15:49:27Z</time></trkpt><trkpt lat="38.049731617845026" lon="-1.1867705387880243"><ele>152.0</ele><time>2026-04-19T15:49:28Z</time></trkpt><trkpt lat="38.04973516774401" lon="-1.1869198482005865"><ele>151.5</ele><time>2026-04-19T15:49:29Z</time></trkpt><trkpt lat="38.04971297013103" lon="-1.1870427942982764"><ele>151.0</ele><time>2026-04-19T15:49:30Z</time></trkpt><trkpt lat="38.04965829333924" lon="-1.187166165821871"><ele>151.0</ele><time>2026-04-19T15:49:31Z</time></trkpt><trkpt lat="38.04958836692757" lon="-1.1873155826134822"><ele>151.0</ele><time>2026-04-19T15:49:32Z</time></trkpt><trkpt lat="38.049540748476666" lon="-1.1874563261614548"><ele>151.0</ele><time>2026-04-19T15:49:33Z</time></trkpt><trkpt lat="38.04950010224157" lon="-1.1875605959090538"><ele>151.0</ele><time>2026-04-19T15:49:34Z</time></trkpt><trkpt lat="38.04945399476444" lon="-1.1876219288641208"><ele>151.0</ele><time>2026-04-19T15:49:35Z</time></trkpt><trkpt lat="38.04937490603438" lon="-1.1876669896522123"><ele>152.0</ele><time>2026-04-19T15:49:36Z</time></trkpt><trkpt lat="38.04928403034858" lon="-1.1877186607972061"><ele>153.0</ele><time>2026-04-19T15:49:37Z</time></trkpt><trkpt lat="38.04922202487834" lon="-1.1878294289156253"><ele>154.0</ele><time>2026-04-19T15:49:38Z</time></trkpt><trkpt lat="38.0491689872592" lon="-1.1879268417471194"><ele>155.0</ele><time>2026-04-19T15:49:39Z</time></trkpt><trkpt lat="38.049107525425555" lon="-1.1879959984741193"><ele>156.0</ele><time>2026-04-19T15:49:40Z</time></trkpt><trkpt lat="38.049049704537886" lon="-1.1880533761444614"><ele>154.0</ele><time>2026-04-19T15:49:41Z</time></trkpt><trkpt lat="38.04897884906029" lon="-1.188102116413978"><ele>152.0</ele><time>2026-04-19T15:49:42Z</time></trkpt><trkpt lat="38.04888635912601" lon="-1.1881442501503419"><ele>150.0</ele><time>2026-04-19T15:49:43Z</time></trkpt><trkpt lat="38.04874438324954" lon="-1.1881623762344011"><ele>148.0</ele><time>2026-04-19T15:49:44Z</time></trkpt><trkpt lat="38.04862395955577" lon="-1.1882014167850468"><ele>146.0</ele><time>2026-04-19T15:49:45Z</time></trkpt><trkpt lat="38.0485138226412" lon="-1.1882409094367572"><ele>146.0</ele><time>2026-04-19T15:49:46Z</time></trkpt><trkpt lat="38.048399505676194" lon="-1.188262378938816"><ele>146.0</ele><time>2026-04-19T15:49:47Z</time></trkpt><trkpt lat="38.048286748327996" lon="-1.1882789366811362"><ele>146.0</ele><time>2026-04-19T15:49:48Z</time></trkpt><trkpt lat="38.04817922925636" lon="-1.1883193961012173"><ele>146.0</ele><time>2026-04-19T15:49:49Z</time></trkpt><trkpt lat="38.04806537581941" lon="-1.188351987878473"><ele>143.4</ele><time>2026-04-19T15:49:50Z</time></trkpt><trkpt lat="38.04794692754223" lon="-1.188365106978648"><ele>140.8</ele><time>2026-04-19T15:49:51Z</time></trkpt><trkpt lat="38.04783011813214" lon="-1.1883740625317725"><ele>138.20000000000002</ele><time>2026-04-19T15:49:52Z</time></trkpt><trkpt lat="38.04772169980878" lon="-1.1883736563615126"><ele>135.6</ele><time>2026-04-19T15:49:53Z</time></trkpt><trkpt lat="38.04762176379415" lon="-1.1883641189863239"><ele>133.0</ele><time>2026-04-19T15:49:54Z</time></trkpt><trkpt lat="38.04752491062909" lon="-1.188358115174832"><ele>132.20000000000002</ele><time>2026-04-19T15:49:55Z</time></trkpt><trkpt lat="38.047439050824806" lon="-1.188361520083884"><ele>131.4</ele><time>2026-04-19T15:49:56Z</time></trkpt><trkpt lat="38.04735025723269" lon="-1.188378976099049"><ele>130.60000000000002</ele><time>2026-04-19T15:49:57Z</time></trkpt><trkpt lat="38.04728398212788" lon="-1.1884350397854073"><ele>129.8</ele><time>2026-04-19T15:49:58Z</time></trkpt><trkpt lat="38.04722742724433" lon="-1.1885287834068827"><ele>129.0</ele><time>2026-04-19T15:49:59Z</time></trkpt><trkpt lat="38.047161573384706" lon="-1.1886456216387973"><ele>129.0</ele><time>2026-04-19T15:50:00Z</time></trkpt><trkpt lat="38.047081989130604" lon="-1.1887314610854711"><ele>129.0</ele><time>2026-04-19T15:50:01Z</time></trkpt><trkpt lat="38.04697687014047" lon="-1.188778675140404"><ele>129.0</ele><time>2026-04-19T15:50:02Z</time></trkpt><trkpt lat="38.04684759810016" lon="-1.188822492522129"><ele>129.0</ele><time>2026-04-19T15:50:03Z</time></trkpt><trkpt lat="38.0467346225566" lon="-1.1888607981825539"><ele>129.0</ele><time>2026-04-19T15:50:04Z</time></trkpt><trkpt lat="38.046650743765554" lon="-1.188903892188761"><ele>129.0</ele><time>2026-04-19T15:50:05Z</time></trkpt><trkpt lat="38.046586057593174" lon="-1.1889423211865593"><ele>129.0</ele><time>2026-04-19T15:50:06Z</time></trkpt><trkpt lat="38.04652295044366" lon="-1.1889817820512762"><ele>129.0</ele><time>2026-04-19T15:50:08Z</time></trkpt><trkpt lat="38.04650283494791" lon="-1.188885441289892"><ele>129.0</ele><time>2026-04-19T15:51:46Z</time></trkpt><trkpt lat="38.046449568072724" lon="-1.188815907011772"><ele>129.0</ele><time>2026-04-19T15:51:48Z</time></trkpt><trkpt lat="38.04644713144887" lon="-1.1886613286570993"><ele>128.16666666666666</ele><time>2026-04-19T15:51:50Z</time></trkpt><trkpt lat="38.04642017676247" lon="-1.1885143949045405"><ele>127.33333333333334</ele><time>2026-04-19T15:51:52Z</time></trkpt><trkpt lat="38.04643608445116" lon="-1.1884281060222819"><ele>126.5</ele><time>2026-04-19T15:51:53Z</time></trkpt><trkpt lat="38.046460453977375" lon="-1.1883451598120272"><ele>125.66666666666667</ele><time>2026-04-19T15:51:54Z</time></trkpt><trkpt lat="38.046459721345954" lon="-1.188245978290451"><ele>124.83333333333334</ele><time>2026-04-19T15:51:55Z</time></trkpt><trkpt lat="38.04644963155142" lon="-1.1881619708808429"><ele>124.0</ele><time>2026-04-19T15:51:56Z</time></trkpt><trkpt lat="38.046363358097075" lon="-1.1880240952786474"><ele>123.6</ele><time>2026-04-19T15:51:58Z</time></trkpt><trkpt lat="38.046300737149494" lon="-1.1879510185789763"><ele>123.2</ele><time>2026-04-19T15:51:59Z</time></trkpt><trkpt lat="38.04627574919664" lon="-1.1878449839069722"><ele>122.79999999999998</ele><time>2026-04-19T15:52:00Z</time></trkpt><trkpt lat="38.04625883154234" lon="-1.1877094120270675"><ele>122.39999999999999</ele><time>2026-04-19T15:52:01Z</time></trkpt><trkpt lat="38.04624405108357" lon="-1.187564886346365"><ele>122.0</ele><time>2026-04-19T15:52:02Z</time></trkpt><trkpt lat="38.04624725095925" lon="-1.187450231765442"><ele>121.99999999999999</ele><time>2026-04-19T15:52:03Z</time></trkpt><trkpt lat="38.04625657176705" lon="-1.1873590571393022"><ele>122.0</ele><time>2026-04-19T15:52:04Z</time></trkpt><trkpt lat="38.046265803217196" lon="-1.187236938510061"><ele>122.0</ele><time>2026-04-19T15:52:06Z</time></trkpt><trkpt lat="38.04628308269038" lon="-1.1870902410694377"><ele>122.0</ele><time>2026-04-19T15:52:08Z</time></trkpt><trkpt lat="38.046312209639495" lon="-1.1870016964359087"><ele>121.99999999999999</ele><time>2026-04-19T15:52:09Z</time></trkpt><trkpt lat="38.04634595544301" lon="-1.1869288108835618"><ele>122.0</ele><time>2026-04-19T15:52:10Z</time></trkpt><trkpt lat="38.04641539473292" lon="-1.1868209795291953"><ele>124.19999999999999</ele><time>2026-04-19T15:52:12Z</time></trkpt><trkpt lat="38.046399856793265" lon="-1.1866845112707085"><ele>126.39999999999999</ele><time>2026-04-19T15:52:14Z</time></trkpt><trkpt lat="38.04641744802956" lon="-1.1865935752451748"><ele>128.60000000000002</ele><time>2026-04-19T15:52:16Z</time></trkpt><trkpt lat="38.04646580248596" lon="-1.186382414394757"><ele>130.8</ele><time>2026-04-19T15:52:19Z</time></trkpt><trkpt lat="38.04647084352536" lon="-1.1862973823925744"><ele>133.0</ele><time>2026-04-19T15:52:20Z</time></trkpt><trkpt lat="38.046466387355586" lon="-1.1861527092278104"><ele>135.0</ele><time>2026-04-19T15:52:22Z</time></trkpt><trkpt lat="38.046461022984566" lon="-1.1860647671527298"><ele>137.0</ele><time>2026-04-19T15:52:24Z</time></trkpt><trkpt lat="38.04643104247129" lon="-1.1859677895948615"><ele>139.0</ele><time>2026-04-19T15:52:26Z</time></trkpt><trkpt lat="38.046415925560126" lon="-1.1858628137343172"><ele>141.0</ele><time>2026-04-19T15:52:28Z</time></trkpt><trkpt lat="38.04641556969678" lon="-1.1857466836646862"><ele>143.0</ele><time>2026-04-19T15:52:30Z</time></trkpt><trkpt lat="38.04638146172318" lon="-1.1856775326055284"><ele>145.0</ele><time>2026-04-19T15:52:32Z</time></trkpt><trkpt lat="38.04627231082717" lon="-1.1856497425087396"><ele>145.2</ele><time>2026-04-19T15:52:35Z</time></trkpt><trkpt lat="38.04620868414609" lon="-1.1855627317140591"><ele>145.4</ele><time>2026-04-19T15:52:37Z</time></trkpt><trkpt lat="38.04613214926454" lon="-1.1855085700612176"><ele>145.6</ele><time>2026-04-19T15:52:39Z</time></trkpt><trkpt lat="38.04612535213708" lon="-1.1853982361452142"><ele>145.8</ele><time>2026-04-19T15:52:43Z</time></trkpt><trkpt lat="38.04607572921421" lon="-1.1853087517592578"><ele>146.0</ele><time>2026-04-19T15:52:46Z</time></trkpt><trkpt lat="38.045990093282505" lon="-1.1853647905748192"><ele>146.0</ele><time>2026-04-19T15:52:49Z</time></trkpt><trkpt lat="38.04590984256609" lon="-1.1854763303156048"><ele>146.0</ele><time>2026-04-19T15:52:51Z</time></trkpt><trkpt lat="38.045914311328325" lon="-1.1856103123055466"><ele>146.0</ele><time>2026-04-19T15:52:52Z</time></trkpt><trkpt lat="38.04594475310266" lon="-1.1857325497368192"><ele>146.0</ele><time>2026-04-19T15:52:53Z</time></trkpt><trkpt lat="38.04599506989857" lon="-1.185856291591402"><ele>146.0</ele><time>2026-04-19T15:52:54Z</time></trkpt><trkpt lat="38.04604232221379" lon="-1.1859622221437562"><ele>145.8</ele><time>2026-04-19T15:52:55Z</time></trkpt><trkpt lat="38.04606485222288" lon="-1.1860855236308194"><ele>145.6</ele><time>2026-04-19T15:52:56Z</time></trkpt><trkpt lat="38.0459855066398" lon="-1.1861970794399785"><ele>145.4</ele><time>2026-04-19T15:52:58Z</time></trkpt><trkpt lat="38.045907455086656" lon="-1.1862241849950441"><ele>145.2</ele><time>2026-04-19T15:52:59Z</time></trkpt><trkpt lat="38.04581092887069" lon="-1.1862599413052328"><ele>145.0</ele><time>2026-04-19T15:53:00Z</time></trkpt><trkpt lat="38.04574713511411" lon="-1.1863001447407517"><ele>144.0</ele><time>2026-04-19T15:53:01Z</time></trkpt><trkpt lat="38.045698494565364" lon="-1.1863840770899872"><ele>143.0</ele><time>2026-04-19T15:53:02Z</time></trkpt><trkpt lat="38.04562947181597" lon="-1.18645681188319"><ele>142.0</ele><time>2026-04-19T15:53:03Z</time></trkpt><trkpt lat="38.045548253299145" lon="-1.1865076749114698"><ele>141.0</ele><time>2026-04-19T15:53:04Z</time></trkpt><trkpt lat="38.04547603760096" lon="-1.1865232533671581"><ele>140.0</ele><time>2026-04-19T15:53:05Z</time></trkpt><trkpt lat="38.04540809821664" lon="-1.186506344538554"><ele>139.0</ele><time>2026-04-19T15:53:06Z</time></trkpt><trkpt lat="38.04534737924387" lon="-1.186470260515383"><ele>139.0</ele><time>2026-04-19T15:53:07Z</time></trkpt><trkpt lat="38.04527811742433" lon="-1.1863619573880155"><ele>139.0</ele><time>2026-04-19T15:53:09Z</time></trkpt><trkpt lat="38.045215898944576" lon="-1.1862965090497706"><ele>139.0</ele><time>2026-04-19T15:53:10Z</time></trkpt><trkpt lat="38.04519917966706" lon="-1.1862040350220258"><ele>139.0</ele><time>2026-04-19T15:53:11Z</time></trkpt><trkpt lat="38.04518402768184" lon="-1.1861124644147492"><ele>139.0</ele><time>2026-04-19T15:53:12Z</time></trkpt><trkpt lat="38.04516972742521" lon="-1.1859946779044228"><ele>139.0</ele><time>2026-04-19T15:53:13Z</time></trkpt><trkpt lat="38.04514895012549" lon="-1.1858946941107444"><ele>139.0</ele><time>2026-04-19T15:53:14Z</time></trkpt><trkpt lat="38.045121788273725" lon="-1.1857862069727607"><ele>139.0</ele><time>2026-04-19T15:53:15Z</time></trkpt><trkpt lat="38.04510099872636" lon="-1.1856876095406206"><ele>139.0</ele><time>2026-04-19T15:53:16Z</time></trkpt><trkpt lat="38.04509182902309" lon="-1.1856068442153227"><ele>139.0</ele><time>2026-04-19T15:53:17Z</time></trkpt><trkpt lat="38.04510690170097" lon="-1.185506329661936"><ele>139.0</ele><time>2026-04-19T15:53:19Z</time></trkpt><trkpt lat="38.045094944011076" lon="-1.1853637088596707"><ele>139.0</ele><time>2026-04-19T15:53:21Z</time></trkpt><trkpt lat="38.045065760802814" lon="-1.185278485188968"><ele>139.6</ele><time>2026-04-19T15:53:22Z</time></trkpt><trkpt lat="38.044993780774575" lon="-1.1852286509613938"><ele>140.2</ele><time>2026-04-19T15:53:24Z</time></trkpt><trkpt lat="38.04488273460364" lon="-1.185237843001506"><ele>140.79999999999998</ele><time>2026-04-19T15:53:26Z</time></trkpt><trkpt lat="38.044793316172765" lon="-1.1853338815468208"><ele>141.4</ele><time>2026-04-19T15:53:28Z</time></trkpt><trkpt lat="38.04472438558193" lon="-1.1853502280220911"><ele>142.0</ele><time>2026-04-19T15:53:30Z</time></trkpt><trkpt lat="38.04465011784976" lon="-1.1853045216938198"><ele>142.0</ele><time>2026-04-19T15:53:33Z</time></trkpt><trkpt lat="38.04458425146688" lon="-1.185287372916223"><ele>142.0</ele><time>2026-04-19T15:53:34Z</time></trkpt><trkpt lat="38.04445620514431" lon="-1.1852537101192795"><ele>142.0</ele><time>2026-04-19T15:53:35Z</time></trkpt><trkpt lat="38.04436082593586" lon="-1.1852247898475126"><ele>142.0</ele><time>2026-04-19T15:53:36Z</time></trkpt><trkpt lat="38.044247732227454" lon="-1.1852619019581419"><ele>142.0</ele><time>2026-04-19T15:53:38Z</time></trkpt><trkpt lat="38.044138247617724" lon="-1.1852257029975928"><ele>142.33333333333334</ele><time>2026-04-19T15:53:40Z</time></trkpt><trkpt lat="38.044086727674625" lon="-1.185159293464847"><ele>142.66666666666669</ele><time>2026-04-19T15:53:42Z</time></trkpt><trkpt lat="38.04409061095504" lon="-1.1850438684288296"><ele>143.0</ele><time>2026-04-19T15:53:44Z</time></trkpt><trkpt lat="38.0440341940193" lon="-1.1849856399011003"><ele>143.33333333333334</ele><time>2026-04-19T15:53:45Z</time></trkpt><trkpt lat="38.043963374548525" lon="-1.1848825958246911"><ele>143.66666666666666</ele><time>2026-04-19T15:53:47Z</time></trkpt><trkpt lat="38.04389195961243" lon="-1.1848126584747465"><ele>144.0</ele><time>2026-04-19T15:53:49Z</time></trkpt><trkpt lat="38.04384162257511" lon="-1.1846861761841538"><ele>144.4</ele><time>2026-04-19T15:53:51Z</time></trkpt><trkpt lat="38.04377760402346" lon="-1.1845976880852027"><ele>144.8</ele><time>2026-04-19T15:53:52Z</time></trkpt><trkpt lat="38.04375703221358" lon="-1.1845076193383668"><ele>145.2</ele><time>2026-04-19T15:53:55Z</time></trkpt><trkpt lat="38.04374396773642" lon="-1.1843489054123577"><ele>145.6</ele><time>2026-04-19T15:53:57Z</time></trkpt><trkpt lat="38.04375820663745" lon="-1.184225696619346"><ele>146.0</ele><time>2026-04-19T15:53:58Z</time></trkpt><trkpt lat="38.043769517314416" lon="-1.1841165976208268"><ele>146.4</ele><time>2026-04-19T15:53:59Z</time></trkpt><trkpt lat="38.043791259971485" lon="-1.184002133034997"><ele>146.8</ele><time>2026-04-19T15:54:00Z</time></trkpt><trkpt lat="38.043780696658885" lon="-1.183884712638729"><ele>147.20000000000002</ele><time>2026-04-19T15:54:01Z</time></trkpt><trkpt lat="38.04375619945931" lon="-1.1837708256403763"><ele>147.6</ele><time>2026-04-19T15:54:02Z</time></trkpt><trkpt lat="38.04371875572827" lon="-1.183663561373877"><ele>148.0</ele><time>2026-04-19T15:54:03Z</time></trkpt><trkpt lat="38.04367520547292" lon="-1.183554246970599"><ele>148.0</ele><time>2026-04-19T15:54:04Z</time></trkpt><trkpt lat="38.043646915689266" lon="-1.183448249072975"><ele>148.0</ele><time>2026-04-19T15:54:05Z</time></trkpt><trkpt lat="38.04362996303423" lon="-1.1833592327401217"><ele>148.0</ele><time>2026-04-19T15:54:06Z</time></trkpt><trkpt lat="38.04354601528611" lon="-1.1832352074691357"><ele>148.0</ele><time>2026-04-19T15:54:08Z</time></trkpt><trkpt lat="38.04347307155434" lon="-1.1831970462578174"><ele>148.0</ele><time>2026-04-19T15:54:09Z</time></trkpt><trkpt lat="38.04341622680635" lon="-1.1831535574280134"><ele>148.0</ele><time>2026-04-19T15:54:10Z</time></trkpt><trkpt lat="38.04336223165733" lon="-1.1830314097926429"><ele>148.66666666666669</ele><time>2026-04-19T15:54:12Z</time></trkpt><trkpt lat="38.04336164708464" lon="-1.1829445953542896"><ele>149.33333333333334</ele><time>2026-04-19T15:54:13Z</time></trkpt><trkpt lat="38.043375606852145" lon="-1.1828432326119118"><ele>150.0</ele><time>2026-04-19T15:54:14Z</time></trkpt><trkpt lat="38.04339551074498" lon="-1.1827455395466842"><ele>150.66666666666666</ele><time>2026-04-19T15:54:15Z</time></trkpt><trkpt lat="38.04343498366289" lon="-1.1826631481559085"><ele>151.33333333333331</ele><time>2026-04-19T15:54:16Z</time></trkpt><trkpt lat="38.04350225172098" lon="-1.1825850385575132"><ele>152.0</ele><time>2026-04-19T15:54:17Z</time></trkpt><trkpt lat="38.043575212222486" lon="-1.182522366852747"><ele>152.0</ele><time>2026-04-19T15:54:18Z</time></trkpt><trkpt lat="38.043632758809" lon="-1.182470838104173"><ele>152.0</ele><time>2026-04-19T15:54:19Z</time></trkpt><trkpt lat="38.04364136048974" lon="-1.1823068309595781"><ele>152.0</ele><time>2026-04-19T15:54:21Z</time></trkpt><trkpt lat="38.04360842908712" lon="-1.1821967663710644"><ele>152.0</ele><time>2026-04-19T15:54:22Z</time></trkpt><trkpt lat="38.043556989324294" lon="-1.18209210586996"><ele>152.0</ele><time>2026-04-19T15:54:23Z</time></trkpt><trkpt lat="38.043500497167955" lon="-1.1819930243769587"><ele>153.0</ele><time>2026-04-19T15:54:24Z</time></trkpt><trkpt lat="38.04344100070122" lon="-1.1818879413411274"><ele>154.0</ele><time>2026-04-19T15:54:25Z</time></trkpt><trkpt lat="38.043377135861036" lon="-1.1818020569032757"><ele>155.0</ele><time>2026-04-19T15:54:26Z</time></trkpt><trkpt lat="38.043316716810054" lon="-1.181737274478066"><ele>156.0</ele><time>2026-04-19T15:54:27Z</time></trkpt><trkpt lat="38.043255677484" lon="-1.1816692536828863"><ele>157.0</ele><time>2026-04-19T15:54:28Z</time></trkpt><trkpt lat="38.0431780313252" lon="-1.1816302838477997"><ele>158.0</ele><time>2026-04-19T15:54:29Z</time></trkpt><trkpt lat="38.04310132783169" lon="-1.1815983844697302"><ele>158.33333333333331</ele><time>2026-04-19T15:54:30Z</time></trkpt><trkpt lat="38.04301964726407" lon="-1.1815509473405026"><ele>158.66666666666666</ele><time>2026-04-19T15:54:31Z</time></trkpt><trkpt lat="38.04295629868242" lon="-1.1814839132942623"><ele>159.0</ele><time>2026-04-19T15:54:32Z</time></trkpt><trkpt lat="38.04291317808086" lon="-1.1813991112777567"><ele>159.33333333333334</ele><time>2026-04-19T15:54:33Z</time></trkpt><trkpt lat="38.04288462961836" lon="-1.1812944229111695"><ele>159.66666666666669</ele><time>2026-04-19T15:54:34Z</time></trkpt><trkpt lat="38.04286141790427" lon="-1.1811733444160504"><ele>160.0</ele><time>2026-04-19T15:54:35Z</time></trkpt><trkpt lat="38.042841467686564" lon="-1.1810706251976486"><ele>160.0</ele><time>2026-04-19T15:54:36Z</time></trkpt><trkpt lat="38.042813165165384" lon="-1.1809927606093416"><ele>160.0</ele><time>2026-04-19T15:54:37Z</time></trkpt><trkpt lat="38.04270816961197" lon="-1.180919966914479"><ele>160.0</ele><time>2026-04-19T15:54:39Z</time></trkpt><trkpt lat="38.042629135342814" lon="-1.180803878568712"><ele>160.0</ele><time>2026-04-19T15:54:41Z</time></trkpt><trkpt lat="38.042551021305265" lon="-1.1807502195177142"><ele>160.0</ele><time>2026-04-19T15:54:42Z</time></trkpt><trkpt lat="38.042465833845384" lon="-1.1806892035846723"><ele>160.33333333333334</ele><time>2026-04-19T15:54:43Z</time></trkpt><trkpt lat="38.04239129158246" lon="-1.1806184090564105"><ele>160.66666666666669</ele><time>2026-04-19T15:54:44Z</time></trkpt><trkpt lat="38.04232863997382" lon="-1.1805554918287158"><ele>161.0</ele><time>2026-04-19T15:54:45Z</time></trkpt><trkpt lat="38.04222872942628" lon="-1.1804903974319465"><ele>161.33333333333334</ele><time>2026-04-19T15:54:47Z</time></trkpt><trkpt lat="38.0421584687981" lon="-1.18046114075341"><ele>161.66666666666666</ele><time>2026-04-19T15:54:48Z</time></trkpt><trkpt lat="38.042079322043016" lon="-1.1804411987800243"><ele>162.0</ele><time>2026-04-19T15:54:49Z</time></trkpt><trkpt lat="38.0420003585806" lon="-1.180303031544377"><ele>162.0</ele><time>2026-04-19T15:54:51Z</time></trkpt><trkpt lat="38.04194302781368" lon="-1.1802507694365088"><ele>162.0</ele><time>2026-04-19T15:54:52Z</time></trkpt><trkpt lat="38.041875141935925" lon="-1.1802370096617705"><ele>162.0</ele><time>2026-04-19T15:54:53Z</time></trkpt><trkpt lat="38.041805655902586" lon="-1.1802322533586551"><ele>162.0</ele><time>2026-04-19T15:54:54Z</time></trkpt><trkpt lat="38.04174448210314" lon="-1.1801992895557376"><ele>162.0</ele><time>2026-04-19T15:54:55Z</time></trkpt><trkpt lat="38.041697627602694" lon="-1.1801343767525294"><ele>162.0</ele><time>2026-04-19T15:54:56Z</time></trkpt><trkpt lat="38.04167215769141" lon="-1.18004258115598"><ele>162.0</ele><time>2026-04-19T15:54:57Z</time></trkpt><trkpt lat="38.041657935327976" lon="-1.179943145441719"><ele>162.0</ele><time>2026-04-19T15:54:58Z</time></trkpt><trkpt lat="38.041634576526924" lon="-1.1798536809585773"><ele>162.0</ele><time>2026-04-19T15:54:59Z</time></trkpt><trkpt lat="38.04158862217589" lon="-1.179785082634743"><ele>162.0</ele><time>2026-04-19T15:55:00Z</time></trkpt><trkpt lat="38.041528973754076" lon="-1.1796938571546078"><ele>162.0</ele><time>2026-04-19T15:55:02Z</time></trkpt><trkpt lat="38.041519999117845" lon="-1.1796088095914865"><ele>162.0</ele><time>2026-04-19T15:55:03Z</time></trkpt><trkpt lat="38.04149812951647" lon="-1.1795265009392222"><ele>162.0</ele><time>2026-04-19T15:55:04Z</time></trkpt><trkpt lat="38.04146974958392" lon="-1.179450791040185"><ele>162.0</ele><time>2026-04-19T15:55:05Z</time></trkpt><trkpt lat="38.0414384683043" lon="-1.1793741307889702"><ele>162.33333333333334</ele><time>2026-04-19T15:55:06Z</time></trkpt><trkpt lat="38.04138461303121" lon="-1.1793178547037284"><ele>162.66666666666666</ele><time>2026-04-19T15:55:07Z</time></trkpt><trkpt lat="38.04131479199377" lon="-1.1792673879235003"><ele>163.0</ele><time>2026-04-19T15:55:08Z</time></trkpt><trkpt lat="38.041232876821276" lon="-1.1792178540448517"><ele>163.33333333333331</ele><time>2026-04-19T15:55:09Z</time></trkpt><trkpt lat="38.0411398903718" lon="-1.179170132375294"><ele>163.66666666666666</ele><time>2026-04-19T15:55:10Z</time></trkpt><trkpt lat="38.04107081626197" lon="-1.1791120039669012"><ele>164.0</ele><time>2026-04-19T15:55:11Z</time></trkpt><trkpt lat="38.04103784731604" lon="-1.1790231881150233"><ele>164.2</ele><time>2026-04-19T15:55:12Z</time></trkpt><trkpt lat="38.041027243818895" lon="-1.1788902868114375"><ele>164.39999999999998</ele><time>2026-04-19T15:55:13Z</time></trkpt><trkpt lat="38.04102148266532" lon="-1.1787373158880017"><ele>164.6</ele><time>2026-04-19T15:55:14Z</time></trkpt><trkpt lat="38.04102052186474" lon="-1.1785985689262959"><ele>164.8</ele><time>2026-04-19T15:55:15Z</time></trkpt><trkpt lat="38.04103266354112" lon="-1.1784973463304365"><ele>165.0</ele><time>2026-04-19T15:55:16Z</time></trkpt><trkpt lat="38.0410249184872" lon="-1.1783630703391625"><ele>165.0</ele><time>2026-04-19T15:55:18Z</time></trkpt><trkpt lat="38.04095733432031" lon="-1.1783224427261478"><ele>165.0</ele><time>2026-04-19T15:55:19Z</time></trkpt><trkpt lat="38.040883071718966" lon="-1.1783042017470715"><ele>165.0</ele><time>2026-04-19T15:55:20Z</time></trkpt><trkpt lat="38.04082356497248" lon="-1.1782720679060428"><ele>165.0</ele><time>2026-04-19T15:55:21Z</time></trkpt><trkpt lat="38.04082584790596" lon="-1.178102677456631"><ele>165.0</ele><time>2026-04-19T15:55:23Z</time></trkpt><trkpt lat="38.04084358585096" lon="-1.1779974602614187"><ele>165.0</ele><time>2026-04-19T15:55:24Z</time></trkpt><trkpt lat="38.04082611609472" lon="-1.1778853780331504"><ele>165.4</ele><time>2026-04-19T15:55:25Z</time></trkpt><trkpt lat="38.0408025463981" lon="-1.177779471018328"><ele>165.8</ele><time>2026-04-19T15:55:26Z</time></trkpt><trkpt lat="38.04075819451833" lon="-1.1776974738823094"><ele>166.2</ele><time>2026-04-19T15:55:27Z</time></trkpt><trkpt lat="38.04069018723136" lon="-1.1775997033822132"><ele>166.6</ele><time>2026-04-19T15:55:28Z</time></trkpt><trkpt lat="38.040641728511545" lon="-1.177488757242945"><ele>167.0</ele><time>2026-04-19T15:55:29Z</time></trkpt><trkpt lat="38.040602417452085" lon="-1.177369414186836"><ele>168.2</ele><time>2026-04-19T15:55:30Z</time></trkpt><trkpt lat="38.04054779048587" lon="-1.177253701072413"><ele>169.39999999999998</ele><time>2026-04-19T15:55:31Z</time></trkpt><trkpt lat="38.0405067338071" lon="-1.1771598355676895"><ele>170.60000000000002</ele><time>2026-04-19T15:55:32Z</time></trkpt><trkpt lat="38.0404828635957" lon="-1.1770525041194604"><ele>171.8</ele><time>2026-04-19T15:55:33Z</time></trkpt><trkpt lat="38.04047642746587" lon="-1.176931043454608"><ele>173.0</ele><time>2026-04-19T15:55:34Z</time></trkpt><trkpt lat="38.04047697689347" lon="-1.176830570205171"><ele>173.0</ele><time>2026-04-19T15:55:35Z</time></trkpt><trkpt lat="38.040455531924835" lon="-1.1767409321255278"><ele>173.0</ele><time>2026-04-19T15:55:36Z</time></trkpt><trkpt lat="38.04041731120988" lon="-1.1766397350616697"><ele>173.0</ele><time>2026-04-19T15:55:37Z</time></trkpt><trkpt lat="38.0403990718167" lon="-1.1765492051240605"><ele>173.0</ele><time>2026-04-19T15:55:38Z</time></trkpt><trkpt lat="38.04032552441421" lon="-1.1764644679188057"><ele>173.0</ele><time>2026-04-19T15:55:40Z</time></trkpt><trkpt lat="38.04022561008681" lon="-1.1764024422408954"><ele>173.0</ele><time>2026-04-19T15:55:42Z</time></trkpt><trkpt lat="38.040147500689244" lon="-1.1764464631976659"><ele>173.0</ele><time>2026-04-19T15:55:45Z</time></trkpt><trkpt lat="38.0400571876322" lon="-1.1765629929790813"><ele>173.0</ele><time>2026-04-19T15:55:47Z</time></trkpt><trkpt lat="38.03994360030448" lon="-1.1766338272738108"><ele>173.0</ele><time>2026-04-19T15:55:49Z</time></trkpt><trkpt lat="38.03988791829632" lon="-1.1766736667905688"><ele>173.0</ele><time>2026-04-19T15:55:50Z</time></trkpt><trkpt lat="38.03979697686357" lon="-1.1767389109872297"><ele>173.0</ele><time>2026-04-19T15:55:52Z</time></trkpt><trkpt lat="38.03969335462258" lon="-1.176782386335181"><ele>174.0</ele><time>2026-04-19T15:55:54Z</time></trkpt><trkpt lat="38.03958800099144" lon="-1.1768283886648874"><ele>175.0</ele><time>2026-04-19T15:55:56Z</time></trkpt><trkpt lat="38.03952710421824" lon="-1.1768511770905359"><ele>176.0</ele><time>2026-04-19T15:55:57Z</time></trkpt><trkpt lat="38.03947173111299" lon="-1.176905285519876"><ele>177.0</ele><time>2026-04-19T15:55:58Z</time></trkpt><trkpt lat="38.03934738444395" lon="-1.1769144395906337"><ele>178.0</ele><time>2026-04-19T15:56:00Z</time></trkpt><trkpt lat="38.03928112186488" lon="-1.1769004860445638"><ele>179.0</ele><time>2026-04-19T15:56:01Z</time></trkpt><trkpt lat="38.0392111920564" lon="-1.176887550147892"><ele>179.0</ele><time>2026-04-19T15:56:02Z</time></trkpt><trkpt lat="38.03914336340766" lon="-1.176869193907381"><ele>179.0</ele><time>2026-04-19T15:56:03Z</time></trkpt><trkpt lat="38.03908208081102" lon="-1.1768486810887615"><ele>179.0</ele><time>2026-04-19T15:56:04Z</time></trkpt><trkpt lat="38.038958570940366" lon="-1.1768061861576493"><ele>179.0</ele><time>2026-04-19T15:56:06Z</time></trkpt><trkpt lat="38.03889443284793" lon="-1.1767831207248889"><ele>179.0</ele><time>2026-04-19T15:56:07Z</time></trkpt><trkpt lat="38.03877509467755" lon="-1.1767418508345833"><ele>178.5</ele><time>2026-04-19T15:56:09Z</time></trkpt><trkpt lat="38.038646780332925" lon="-1.1767080375885364"><ele>178.0</ele><time>2026-04-19T15:56:11Z</time></trkpt><trkpt lat="38.03858325819764" lon="-1.1766994291343384"><ele>177.5</ele><time>2026-04-19T15:56:12Z</time></trkpt><trkpt lat="38.03846229238469" lon="-1.1767014083587541"><ele>177.0</ele><time>2026-04-19T15:56:14Z</time></trkpt><trkpt lat="38.03839428982894" lon="-1.1767102502767355"><ele>176.5</ele><time>2026-04-19T15:56:15Z</time></trkpt><trkpt lat="38.03833015724659" lon="-1.1767175115715849"><ele>176.0</ele><time>2026-04-19T15:56:16Z</time></trkpt><trkpt lat="38.03822510031326" lon="-1.1767282099679237"><ele>176.0</ele><time>2026-04-19T15:56:18Z</time></trkpt><trkpt lat="38.03812619203767" lon="-1.1767382822192853"><ele>176.0</ele><time>2026-04-19T15:56:20Z</time></trkpt><trkpt lat="38.038057638823126" lon="-1.1767452632900337"><ele>176.0</ele><time>2026-04-19T15:56:21Z</time></trkpt><trkpt lat="38.037990667383426" lon="-1.1767520832780387"><ele>176.0</ele><time>2026-04-19T15:56:22Z</time></trkpt><trkpt lat="38.03788098332477" lon="-1.1767565541294023"><ele>176.0</ele><time>2026-04-19T15:56:24Z</time></trkpt><trkpt lat="38.03778367479315" lon="-1.1767603555095334"><ele>176.0</ele><time>2026-04-19T15:56:26Z</time></trkpt><trkpt lat="38.037706885648575" lon="-1.1767064198611996"><ele>176.0</ele><time>2026-04-19T15:56:28Z</time></trkpt><trkpt lat="38.03767671104075" lon="-1.1765813503042195"><ele>176.0</ele><time>2026-04-19T15:56:30Z</time></trkpt><trkpt lat="38.037739697907476" lon="-1.1764441888966748"><ele>176.0</ele><time>2026-04-19T15:56:32Z</time></trkpt><trkpt lat="38.0377787313251" lon="-1.1763526639053905"><ele>176.0</ele><time>2026-04-19T15:56:33Z</time></trkpt><trkpt lat="38.03785810382978" lon="-1.1762486383858404"><ele>176.0</ele><time>2026-04-19T15:56:34Z</time></trkpt><trkpt lat="38.03794917460216" lon="-1.176133201008711"><ele>178.20000000000002</ele><time>2026-04-19T15:56:35Z</time></trkpt><trkpt lat="38.038016157582106" lon="-1.175993206484912"><ele>180.4</ele><time>2026-04-19T15:56:36Z</time></trkpt><trkpt lat="38.03804946078991" lon="-1.1758743091175357"><ele>182.6</ele><time>2026-04-19T15:56:37Z</time></trkpt><trkpt lat="38.03806941389053" lon="-1.175762342619935"><ele>184.8</ele><time>2026-04-19T15:56:38Z</time></trkpt><trkpt lat="38.038071708505136" lon="-1.1756542058894015"><ele>187.0</ele><time>2026-04-19T15:56:39Z</time></trkpt><trkpt lat="38.03806555880689" lon="-1.1755283171120676"><ele>187.5</ele><time>2026-04-19T15:56:40Z</time></trkpt><trkpt lat="38.0380452115097" lon="-1.1753763559499557"><ele>188.0</ele><time>2026-04-19T15:56:41Z</time></trkpt><trkpt lat="38.03802091669444" lon="-1.1752237983696778"><ele>188.5</ele><time>2026-04-19T15:56:42Z</time></trkpt><trkpt lat="38.03799589968861" lon="-1.175083816590776"><ele>189.0</ele><time>2026-04-19T15:56:43Z</time></trkpt><trkpt lat="38.03799097050727" lon="-1.1749566470428296"><ele>188.6</ele><time>2026-04-19T15:56:44Z</time></trkpt><trkpt lat="38.038013897403246" lon="-1.174846310093066"><ele>188.2</ele><time>2026-04-19T15:56:45Z</time></trkpt><trkpt lat="38.038056885373685" lon="-1.17474898550986"><ele>187.79999999999998</ele><time>2026-04-19T15:56:46Z</time></trkpt><trkpt lat="38.03812356594449" lon="-1.1746446127145584"><ele>187.39999999999998</ele><time>2026-04-19T15:56:47Z</time></trkpt><trkpt lat="38.03819897771282" lon="-1.174543611519028"><ele>187.0</ele><time>2026-04-19T15:56:48Z</time></trkpt><trkpt lat="38.03825328734898" lon="-1.1744738868187188"><ele>187.0</ele><time>2026-04-19T15:56:49Z</time></trkpt><trkpt lat="38.038298143270815" lon="-1.1743916381028023"><ele>187.0</ele><time>2026-04-19T15:56:50Z</time></trkpt><trkpt lat="38.03833730161901" lon="-1.1742926777823632"><ele>187.0</ele><time>2026-04-19T15:56:51Z</time></trkpt><trkpt lat="38.03838176538432" lon="-1.1741853133915614"><ele>187.0</ele><time>2026-04-19T15:56:52Z</time></trkpt><trkpt lat="38.03841842096503" lon="-1.1740560329616412"><ele>187.0</ele><time>2026-04-19T15:56:53Z</time></trkpt><trkpt lat="38.03844023202096" lon="-1.173932611571322"><ele>184.66666666666669</ele><time>2026-04-19T15:56:54Z</time></trkpt><trkpt lat="38.03846102538542" lon="-1.1738142360366435"><ele>182.33333333333334</ele><time>2026-04-19T15:56:55Z</time></trkpt><trkpt lat="38.03848263325299" lon="-1.1737058225624033"><ele>180.0</ele><time>2026-04-19T15:56:56Z</time></trkpt><trkpt lat="38.03848733348936" lon="-1.1736114508817195"><ele>177.66666666666666</ele><time>2026-04-19T15:56:57Z</time></trkpt><trkpt lat="38.03845620305952" lon="-1.1734701693446363"><ele>175.33333333333331</ele><time>2026-04-19T15:56:59Z</time></trkpt><trkpt lat="38.03841053308883" lon="-1.1734037118649228"><ele>173.0</ele><time>2026-04-19T15:57:01Z</time></trkpt><trkpt lat="38.038348408504234" lon="-1.1733559458134586"><ele>173.4</ele><time>2026-04-19T15:57:07Z</time></trkpt><trkpt lat="38.0382436209158" lon="-1.1733171266138165"><ele>173.8</ele><time>2026-04-19T15:57:10Z</time></trkpt><trkpt lat="38.03818257053298" lon="-1.1733418346582092"><ele>174.2</ele><time>2026-04-19T15:57:11Z</time></trkpt><trkpt lat="38.03811962037573" lon="-1.1733896359000933"><ele>174.6</ele><time>2026-04-19T15:57:12Z</time></trkpt><trkpt lat="38.03804489569982" lon="-1.1734846716879588"><ele>175.0</ele><time>2026-04-19T15:57:14Z</time></trkpt><trkpt lat="38.03794170852915" lon="-1.1735807467896724"><ele>175.0</ele><time>2026-04-19T15:57:16Z</time></trkpt><trkpt lat="38.037859372037" lon="-1.1736155627330842"><ele>175.0</ele><time>2026-04-19T15:57:17Z</time></trkpt><trkpt lat="38.03777029846805" lon="-1.1736378091888546"><ele>175.0</ele><time>2026-04-19T15:57:18Z</time></trkpt><trkpt lat="38.03769189749051" lon="-1.1736656543064083"><ele>175.0</ele><time>2026-04-19T15:57:19Z</time></trkpt><trkpt lat="38.03763484607728" lon="-1.1737096103490112"><ele>175.0</ele><time>2026-04-19T15:57:20Z</time></trkpt><trkpt lat="38.03759391997466" lon="-1.1737746560718592"><ele>175.0</ele><time>2026-04-19T15:57:21Z</time></trkpt><trkpt lat="38.037543180486075" lon="-1.1738314830472356"><ele>175.0</ele><time>2026-04-19T15:57:22Z</time></trkpt><trkpt lat="38.037486795" lon="-1.1738793957171532"><ele>175.0</ele><time>2026-04-19T15:57:23Z</time></trkpt><trkpt lat="38.03743412574388" lon="-1.17393402834852"><ele>175.0</ele><time>2026-04-19T15:57:24Z</time></trkpt><trkpt lat="38.03739160832344" lon="-1.1740015433600137"><ele>175.0</ele><time>2026-04-19T15:57:25Z</time></trkpt><trkpt lat="38.037346340949426" lon="-1.1740900936401877"><ele>175.0</ele><time>2026-04-19T15:57:26Z</time></trkpt><trkpt lat="38.03730427492727" lon="-1.1741562213985761"><ele>175.0</ele><time>2026-04-19T15:57:27Z</time></trkpt><trkpt lat="38.03723394909709" lon="-1.1741960597904186"><ele>175.0</ele><time>2026-04-19T15:57:29Z</time></trkpt><trkpt lat="38.03713903537348" lon="-1.1740802079910102"><ele>175.0</ele><time>2026-04-19T15:57:31Z</time></trkpt><trkpt lat="38.03708141579938" lon="-1.174016082808697"><ele>175.0</ele><time>2026-04-19T15:57:32Z</time></trkpt><trkpt lat="38.03701106111923" lon="-1.1739612839000984"><ele>175.0</ele><time>2026-04-19T15:57:33Z</time></trkpt><trkpt lat="38.03693761933265" lon="-1.173910222510161"><ele>175.0</ele><time>2026-04-19T15:57:34Z</time></trkpt><trkpt lat="38.03687231544168" lon="-1.1738287394799451"><ele>175.0</ele><time>2026-04-19T15:57:35Z</time></trkpt><trkpt lat="38.03681291229425" lon="-1.173726702925352"><ele>175.0</ele><time>2026-04-19T15:57:36Z</time></trkpt><trkpt lat="38.03677025982413" lon="-1.1736423055934553"><ele>175.0</ele><time>2026-04-19T15:57:37Z</time></trkpt><trkpt lat="38.03673670024703" lon="-1.1735687678747824"><ele>175.0</ele><time>2026-04-19T15:57:38Z</time></trkpt><trkpt lat="38.036692952007" lon="-1.173501459500737"><ele>175.0</ele><time>2026-04-19T15:57:39Z</time></trkpt><trkpt lat="38.03663358911024" lon="-1.1734402261974195"><ele>175.0</ele><time>2026-04-19T15:57:40Z</time></trkpt><trkpt lat="38.03656239200919" lon="-1.173372589717036"><ele>175.0</ele><time>2026-04-19T15:57:41Z</time></trkpt><trkpt lat="38.036483379581234" lon="-1.1733017457256945"><ele>175.0</ele><time>2026-04-19T15:57:42Z</time></trkpt><trkpt lat="38.036399713548555" lon="-1.1732253464027544"><ele>173.83333333333334</ele><time>2026-04-19T15:57:43Z</time></trkpt><trkpt lat="38.0363253505938" lon="-1.1731593083896643"><ele>172.66666666666669</ele><time>2026-04-19T15:57:44Z</time></trkpt><trkpt lat="38.03625719810327" lon="-1.1731051694398809"><ele>171.5</ele><time>2026-04-19T15:57:45Z</time></trkpt><trkpt lat="38.036199650008164" lon="-1.1730494007865522"><ele>170.33333333333334</ele><time>2026-04-19T15:57:46Z</time></trkpt><trkpt lat="38.036132221174874" lon="-1.1729966642320633"><ele>169.16666666666666</ele><time>2026-04-19T15:57:47Z</time></trkpt><trkpt lat="38.03605204244003" lon="-1.1729464827078273"><ele>168.0</ele><time>2026-04-19T15:57:48Z</time></trkpt><trkpt lat="38.03596833488701" lon="-1.1728945761136544"><ele>168.0</ele><time>2026-04-19T15:57:49Z</time></trkpt><trkpt lat="38.035887682824466" lon="-1.1728445172594655"><ele>168.0</ele><time>2026-04-19T15:57:50Z</time></trkpt><trkpt lat="38.03582598756513" lon="-1.1727870944923777"><ele>168.0</ele><time>2026-04-19T15:57:51Z</time></trkpt><trkpt lat="38.03578458945208" lon="-1.1727208377691258"><ele>168.0</ele><time>2026-04-19T15:57:52Z</time></trkpt><trkpt lat="38.035757507050754" lon="-1.172645701833107"><ele>168.0</ele><time>2026-04-19T15:57:53Z</time></trkpt><trkpt lat="38.03568420453938" lon="-1.1725328086930795"><ele>168.0</ele><time>2026-04-19T15:57:55Z</time></trkpt><trkpt lat="38.035570147223964" lon="-1.1724566236760368"><ele>165.83333333333334</ele><time>2026-04-19T15:57:57Z</time></trkpt><trkpt lat="38.0355125905996" lon="-1.1724033498576938"><ele>163.66666666666666</ele><time>2026-04-19T15:57:58Z</time></trkpt><trkpt lat="38.035462543269944" lon="-1.1723326712161584"><ele>161.5</ele><time>2026-04-19T15:57:59Z</time></trkpt><trkpt lat="38.03542637827966" lon="-1.1722471307122757"><ele>159.33333333333331</ele><time>2026-04-19T15:58:00Z</time></trkpt><trkpt lat="38.03540314134584" lon="-1.1721700615112773"><ele>157.16666666666666</ele><time>2026-04-19T15:58:01Z</time></trkpt><trkpt lat="38.03539674260925" lon="-1.172003889318886"><ele>155.0</ele><time>2026-04-19T15:58:03Z</time></trkpt><trkpt lat="38.03539129163954" lon="-1.1719031519134715"><ele>154.83333333333331</ele><time>2026-04-19T15:58:04Z</time></trkpt><trkpt lat="38.03536982792652" lon="-1.1718154625795176"><ele>154.66666666666666</ele><time>2026-04-19T15:58:05Z</time></trkpt><trkpt lat="38.035336713246885" lon="-1.1717434924209063"><ele>154.5</ele><time>2026-04-19T15:58:06Z</time></trkpt><trkpt lat="38.03526427601832" lon="-1.171628831294493"><ele>154.33333333333334</ele><time>2026-04-19T15:58:08Z</time></trkpt><trkpt lat="38.03521349154924" lon="-1.1715777184934988"><ele>154.16666666666669</ele><time>2026-04-19T15:58:10Z</time></trkpt><trkpt lat="38.035171091479185" lon="-1.1715148949736212"><ele>154.0</ele><time>2026-04-19T15:58:13Z</time></trkpt><trkpt lat="38.03510927156464" lon="-1.1714579923169428"><ele>153.16666666666669</ele><time>2026-04-19T15:58:18Z</time></trkpt><trkpt lat="38.035148731998376" lon="-1.1713827544204465"><ele>152.33333333333334</ele><time>2026-04-19T15:58:21Z</time></trkpt><trkpt lat="38.035182815379216" lon="-1.1712929415492048"><ele>151.5</ele><time>2026-04-19T15:58:22Z</time></trkpt><trkpt lat="38.035268422503975" lon="-1.1712209759820658"><ele>150.66666666666666</ele><time>2026-04-19T15:58:24Z</time></trkpt><trkpt lat="38.035347354882575" lon="-1.1711999106257402"><ele>149.83333333333331</ele><time>2026-04-19T15:58:26Z</time></trkpt><trkpt lat="38.035426986335416" lon="-1.1712427696903103"><ele>149.0</ele><time>2026-04-19T15:58:28Z</time></trkpt><trkpt lat="38.03552370025315" lon="-1.1712897326744214"><ele>149.0</ele><time>2026-04-19T15:58:30Z</time></trkpt><trkpt lat="38.035633149006024" lon="-1.1713743525494937"><ele>149.0</ele><time>2026-04-19T15:58:32Z</time></trkpt><trkpt lat="38.03570779375142" lon="-1.1714181616023158"><ele>149.0</ele><time>2026-04-19T15:58:33Z</time></trkpt><trkpt lat="38.035810273099735" lon="-1.1714490561522564"><ele>149.0</ele><time>2026-04-19T15:58:34Z</time></trkpt><trkpt lat="38.035896757293834" lon="-1.171449286453001"><ele>149.0</ele><time>2026-04-19T15:58:35Z</time></trkpt><trkpt lat="38.03597871647648" lon="-1.1714367661636056"><ele>148.6</ele><time>2026-04-19T15:58:36Z</time></trkpt><trkpt lat="38.036060098341494" lon="-1.1714150502882226"><ele>148.2</ele><time>2026-04-19T15:58:37Z</time></trkpt><trkpt lat="38.03614863096834" lon="-1.1713579198860402"><ele>147.79999999999998</ele><time>2026-04-19T15:58:38Z</time></trkpt><trkpt lat="38.03621583037227" lon="-1.1713535072995078"><ele>147.4</ele><time>2026-04-19T15:58:39Z</time></trkpt><trkpt lat="38.03630012016693" lon="-1.1713776680765458"><ele>147.0</ele><time>2026-04-19T15:58:41Z</time></trkpt><trkpt lat="38.036416726490785" lon="-1.1713081373158483"><ele>147.0</ele><time>2026-04-19T15:58:43Z</time></trkpt><trkpt lat="38.03648686999105" lon="-1.171271294008168"><ele>147.0</ele><time>2026-04-19T15:58:44Z</time></trkpt><trkpt lat="38.036564251882616" lon="-1.1712423699940235"><ele>147.0</ele><time>2026-04-19T15:58:45Z</time></trkpt><trkpt lat="38.03665507337592" lon="-1.1712058918663732"><ele>147.0</ele><time>2026-04-19T15:58:47Z</time></trkpt><trkpt lat="38.036654546885046" lon="-1.1711160500652449"><ele>147.0</ele><time>2026-04-19T15:58:49Z</time></trkpt><trkpt lat="38.036664351750936" lon="-1.1710325019628154"><ele>147.0</ele><time>2026-04-19T15:58:52Z</time></trkpt><trkpt lat="38.036683396401116" lon="-1.1709410298381717"><ele>147.4</ele><time>2026-04-19T15:58:53Z</time></trkpt><trkpt lat="38.036725481479664" lon="-1.170868263571153"><ele>147.79999999999998</ele><time>2026-04-19T15:58:57Z</time></trkpt><trkpt lat="38.03673682584529" lon="-1.170749758482734"><ele>148.2</ele><time>2026-04-19T15:59:00Z</time></trkpt><trkpt lat="38.03672515552498" lon="-1.1706607120646224"><ele>148.6</ele><time>2026-04-19T15:59:03Z</time></trkpt><trkpt lat="38.03667429631232" lon="-1.1705266472633522"><ele>149.0</ele><time>2026-04-19T15:59:06Z</time></trkpt><trkpt lat="38.03662582779094" lon="-1.1704207593566962"><ele>148.33333333333331</ele><time>2026-04-19T15:59:08Z</time></trkpt><trkpt lat="38.03657602218826" lon="-1.170336194919099"><ele>147.66666666666666</ele><time>2026-04-19T15:59:10Z</time></trkpt><trkpt lat="38.03652263004191" lon="-1.1702766891255807"><ele>147.0</ele><time>2026-04-19T15:59:12Z</time></trkpt><trkpt lat="38.036427332226275" lon="-1.1702390270645608"><ele>146.33333333333334</ele><time>2026-04-19T15:59:14Z</time></trkpt><trkpt lat="38.03634555882136" lon="-1.1702059169842083"><ele>145.66666666666669</ele><time>2026-04-19T15:59:16Z</time></trkpt><trkpt lat="38.03626255821877" lon="-1.1701449880210117"><ele>145.0</ele><time>2026-04-19T15:59:18Z</time></trkpt><trkpt lat="38.036194382547336" lon="-1.1700922899702717"><ele>145.0</ele><time>2026-04-19T15:59:20Z</time></trkpt><trkpt lat="38.036151926973055" lon="-1.1700246900041462"><ele>145.0</ele><time>2026-04-19T15:59:38Z</time></trkpt><trkpt lat="38.03612420659748" lon="-1.1699125690642067"><ele>145.0</ele><time>2026-04-19T15:59:41Z</time></trkpt><trkpt lat="38.036065716607084" lon="-1.1698480599272596"><ele>145.0</ele><time>2026-04-19T15:59:44Z</time></trkpt><trkpt lat="38.03600287331468" lon="-1.1697686704629613"><ele>145.0</ele><time>2026-04-19T15:59:48Z</time></trkpt><trkpt lat="38.03594716359709" lon="-1.1696961380870323"><ele>145.0</ele><time>2026-04-19T15:59:50Z</time></trkpt><trkpt lat="38.03589568088532" lon="-1.1696012183390898"><ele>145.14285714285714</ele><time>2026-04-19T15:59:53Z</time></trkpt><trkpt lat="38.035845086524795" lon="-1.1695214449055218"><ele>145.2857142857143</ele><time>2026-04-19T15:59:57Z</time></trkpt><trkpt lat="38.035793123028114" lon="-1.169452545499426"><ele>145.42857142857144</ele><time>2026-04-19T16:00:02Z</time></trkpt><trkpt lat="38.035745346344264" lon="-1.1693652883420225"><ele>145.57142857142858</ele><time>2026-04-19T16:00:15Z</time></trkpt><trkpt lat="38.035712226850826" lon="-1.1692929644493004"><ele>145.71428571428572</ele><time>2026-04-19T16:00:18Z</time></trkpt><trkpt lat="38.03566998820866" lon="-1.169232284203231"><ele>145.85714285714286</ele><time>2026-04-19T16:00:20Z</time></trkpt><trkpt lat="38.03560507676599" lon="-1.169182770590654"><ele>146.0</ele><time>2026-04-19T16:00:24Z</time></trkpt><trkpt lat="38.03552749492375" lon="-1.1691903083393433"><ele>145.16666666666666</ele><time>2026-04-19T16:00:28Z</time></trkpt><trkpt lat="38.03545409517345" lon="-1.1691763729245694"><ele>144.33333333333331</ele><time>2026-04-19T16:00:32Z</time></trkpt><trkpt lat="38.0354085577752" lon="-1.1690965583969322"><ele>143.5</ele><time>2026-04-19T16:00:36Z</time></trkpt><trkpt lat="38.03537827848947" lon="-1.1690117172236394"><ele>142.66666666666666</ele><time>2026-04-19T16:00:43Z</time></trkpt><trkpt lat="38.03533909639288" lon="-1.168937842972658"><ele>141.83333333333334</ele><time>2026-04-19T16:00:55Z</time></trkpt><trkpt lat="38.035282473849385" lon="-1.1688918123933767"><ele>141.0</ele><time>2026-04-19T16:01:01Z</time></trkpt><trkpt lat="38.03522747189672" lon="-1.1688048341773971"><ele>140.0</ele><time>2026-04-19T16:01:10Z</time></trkpt><trkpt lat="38.035145975321875" lon="-1.168771218017078"><ele>139.0</ele><time>2026-04-19T16:01:13Z</time></trkpt><trkpt lat="38.03506247112416" lon="-1.1687742019125578"><ele>138.0</ele><time>2026-04-19T16:01:18Z</time></trkpt><trkpt lat="38.03499461372832" lon="-1.1687550649678005"><ele>137.0</ele><time>2026-04-19T16:01:21Z</time></trkpt><trkpt lat="38.035058370974305" lon="-1.1687647205462655"><ele>136.0</ele><time>2026-04-19T16:01:44Z</time></trkpt><trkpt lat="38.035132716971596" lon="-1.168779552753716"><ele>135.0</ele><time>2026-04-19T16:01:48Z</time></trkpt><trkpt lat="38.03519342508263" lon="-1.1688103723223158"><ele>134.0</ele><time>2026-04-19T16:01:51Z</time></trkpt><trkpt lat="38.035244231744066" lon="-1.1688613994331434"><ele>134.0</ele><time>2026-04-19T16:02:00Z</time></trkpt><trkpt lat="38.03530005240049" lon="-1.1689237814797027"><ele>134.0</ele><time>2026-04-19T16:02:04Z</time></trkpt><trkpt lat="38.035353494293645" lon="-1.168980602472094"><ele>134.0</ele><time>2026-04-19T16:02:10Z</time></trkpt><trkpt lat="38.03538344493274" lon="-1.1690728955858474"><ele>134.0</ele><time>2026-04-19T16:02:28Z</time></trkpt><trkpt lat="38.03541868030354" lon="-1.1691714748492317"><ele>134.0</ele><time>2026-04-19T16:02:31Z</time></trkpt><trkpt lat="38.035444140861756" lon="-1.169248440584528"><ele>134.0</ele><time>2026-04-19T16:02:34Z</time></trkpt><trkpt lat="38.03546956429333" lon="-1.169354925588136"><ele>135.0</ele><time>2026-04-19T16:02:37Z</time></trkpt><trkpt lat="38.03548950656565" lon="-1.1694316879826392"><ele>136.0</ele><time>2026-04-19T16:03:00Z</time></trkpt><trkpt lat="38.03551877776746" lon="-1.1695244139996999"><ele>137.0</ele><time>2026-04-19T16:03:58Z</time></trkpt><trkpt lat="38.03556153430693" lon="-1.1695962888217106"><ele>138.0</ele><time>2026-04-19T16:04:07Z</time></trkpt><trkpt lat="38.03560666332587" lon="-1.1696648077645835"><ele>139.0</ele><time>2026-04-19T16:04:47Z</time></trkpt><trkpt lat="38.0355702045003" lon="-1.1695989612092919"><ele>140.0</ele><time>2026-04-19T16:05:39Z</time></trkpt><trkpt lat="38.035539301890644" lon="-1.1695184187835694"><ele>141.0</ele><time>2026-04-19T16:06:05Z</time></trkpt><trkpt lat="38.03551728051988" lon="-1.1694364234701786"><ele>141.0</ele><time>2026-04-19T16:06:39Z</time></trkpt><trkpt lat="38.03548206787496" lon="-1.1693668005932263"><ele>141.0</ele><time>2026-04-19T16:08:32Z</time></trkpt><trkpt lat="38.0354562984375" lon="-1.1692760027213844"><ele>141.0</ele><time>2026-04-19T16:08:35Z</time></trkpt><trkpt lat="38.03539439007877" lon="-1.1693175942944702"><ele>141.0</ele><time>2026-04-19T16:08:46Z</time></trkpt><trkpt lat="38.03538254411994" lon="-1.1694062577106787"><ele>141.0</ele><time>2026-04-19T16:09:16Z</time></trkpt><trkpt lat="38.03538261407537" lon="-1.1694884834524453"><ele>141.0</ele><time>2026-04-19T16:09:25Z</time></trkpt><trkpt lat="38.03532728075331" lon="-1.1695571668174014"><ele>141.0</ele><time>2026-04-19T16:09:28Z</time></trkpt><trkpt lat="38.03534710145328" lon="-1.1696526649237686"><ele>141.0</ele><time>2026-04-19T16:09:31Z</time></trkpt><trkpt lat="38.035427410708806" lon="-1.1696828794203233"><ele>141.0</ele><time>2026-04-19T16:09:34Z</time></trkpt><trkpt lat="38.035493598322084" lon="-1.1696935161414046"><ele>141.0</ele><time>2026-04-19T16:09:38Z</time></trkpt><trkpt lat="38.035556206626055" lon="-1.1697547876802308"><ele>141.0</ele><time>2026-04-19T16:09:41Z</time></trkpt><trkpt lat="38.03561312691844" lon="-1.169796978307528"><ele>141.0</ele><time>2026-04-19T16:09:48Z</time></trkpt><trkpt lat="38.03567677710813" lon="-1.1698202819126289"><ele>141.0</ele><time>2026-04-19T16:09:57Z</time></trkpt><trkpt lat="38.03571548641881" lon="-1.1698915460504191"><ele>141.0</ele><time>2026-04-19T16:10:03Z</time></trkpt><trkpt lat="38.03577990663607" lon="-1.1699094960394116"><ele>141.57142857142858</ele><time>2026-04-19T16:10:35Z</time></trkpt><trkpt lat="38.035848023753466" lon="-1.1699173126660816"><ele>142.14285714285714</ele><time>2026-04-19T16:10:39Z</time></trkpt><trkpt lat="38.035900598585265" lon="-1.1699815319324969"><ele>142.71428571428572</ele><time>2026-04-19T16:10:52Z</time></trkpt><trkpt lat="38.03593468745859" lon="-1.1700541871846863"><ele>143.28571428571428</ele><time>2026-04-19T16:12:11Z</time></trkpt><trkpt lat="38.03595398088238" lon="-1.1701334762464628"><ele>143.85714285714286</ele><time>2026-04-19T16:12:15Z</time></trkpt><trkpt lat="38.03600619972539" lon="-1.1702215562478429"><ele>144.42857142857144</ele><time>2026-04-19T16:12:28Z</time></trkpt><trkpt lat="38.036050470612224" lon="-1.170279401307333"><ele>145.0</ele><time>2026-04-19T16:12:32Z</time></trkpt><trkpt lat="38.036087802374226" lon="-1.1703485247906003"><ele>145.0</ele><time>2026-04-19T16:12:38Z</time></trkpt><trkpt lat="38.03610884417397" lon="-1.1704260451453232"><ele>145.0</ele><time>2026-04-19T16:12:47Z</time></trkpt><trkpt lat="38.03617067493248" lon="-1.1704434195112958"><ele>145.0</ele><time>2026-04-19T16:12:55Z</time></trkpt><trkpt lat="38.03621543572739" lon="-1.1705016235562453"><ele>145.0</ele><time>2026-04-19T16:13:35Z</time></trkpt><trkpt lat="38.0362743622229" lon="-1.170552754845912"><ele>145.0</ele><time>2026-04-19T16:13:40Z</time></trkpt><trkpt lat="38.036336905826126" lon="-1.1705779097163678"><ele>145.0</ele><time>2026-04-19T16:15:03Z</time></trkpt><trkpt lat="38.03637458456302" lon="-1.1704967829701198"><ele>145.0</ele><time>2026-04-19T16:15:27Z</time></trkpt><trkpt lat="38.03643750969031" lon="-1.1704561486432754"><ele>145.0</ele><time>2026-04-19T16:15:35Z</time></trkpt><trkpt lat="38.03649772358676" lon="-1.1704307147401225"><ele>145.0</ele><time>2026-04-19T16:16:05Z</time></trkpt><trkpt lat="38.036570390600865" lon="-1.170379542473473"><ele>145.0</ele><time>2026-04-19T16:16:09Z</time></trkpt><trkpt lat="38.03663848557322" lon="-1.1703455730679242"><ele>145.0</ele><time>2026-04-19T16:16:11Z</time></trkpt><trkpt lat="38.03670004653224" lon="-1.1703281099686318"><ele>145.0</ele><time>2026-04-19T16:17:49Z</time></trkpt><trkpt lat="38.03676612906177" lon="-1.1702667806449962"><ele>145.0</ele><time>2026-04-19T16:17:52Z</time></trkpt><trkpt lat="38.03682454376782" lon="-1.1702348505739104"><ele>145.0</ele><time>2026-04-19T16:18:03Z</time></trkpt><trkpt lat="38.03676656832683" lon="-1.170282054759627"><ele>145.0</ele><time>2026-04-19T16:20:43Z</time></trkpt><trkpt lat="38.036701997766734" lon="-1.170328587246643"><ele>145.0</ele><time>2026-04-19T16:20:50Z</time></trkpt><trkpt lat="38.036639516222074" lon="-1.170341428068454"><ele>145.0</ele><time>2026-04-19T16:20:56Z</time></trkpt><trkpt lat="38.03657651491243" lon="-1.1703752529339875"><ele>145.0</ele><time>2026-04-19T16:21:02Z</time></trkpt><trkpt lat="38.03652650869291" lon="-1.170425651425858"><ele>145.0</ele><time>2026-04-19T16:21:12Z</time></trkpt><trkpt lat="38.03657649091033" lon="-1.1703770293142475"><ele>145.0</ele><time>2026-04-19T16:25:54Z</time></trkpt><trkpt lat="38.03663723661806" lon="-1.1703538448870718"><ele>145.0</ele><time>2026-04-19T16:26:02Z</time></trkpt><trkpt lat="38.036704651130094" lon="-1.1703267146058107"><ele>146.33333333333334</ele><time>2026-04-19T16:26:10Z</time></trkpt><trkpt lat="38.03676018431013" lon="-1.1702821024952879"><ele>147.66666666666669</ele><time>2026-04-19T16:26:19Z</time></trkpt><trkpt lat="38.03686120696081" lon="-1.1702110508886507"><ele>149.0</ele><time>2026-04-19T16:27:21Z</time></trkpt><trkpt lat="38.036921838625105" lon="-1.1701502487711806"><ele>150.33333333333334</ele><time>2026-04-19T16:27:32Z</time></trkpt><trkpt lat="38.03697014903094" lon="-1.1700495483314515"><ele>151.66666666666666</ele><time>2026-04-19T16:27:34Z</time></trkpt><trkpt lat="38.036995049811416" lon="-1.1699476810193876"><ele>153.0</ele><time>2026-04-19T16:27:36Z</time></trkpt><trkpt lat="38.036999777089726" lon="-1.169864975773987"><ele>152.66666666666666</ele><time>2026-04-19T16:27:38Z</time></trkpt><trkpt lat="38.037000862690654" lon="-1.169753634996025"><ele>152.33333333333334</ele><time>2026-04-19T16:27:41Z</time></trkpt><trkpt lat="38.03699097889424" lon="-1.169664364420606"><ele>152.0</ele><time>2026-04-19T16:27:45Z</time></trkpt><trkpt lat="38.03699471229106" lon="-1.169568098136501"><ele>151.66666666666669</ele><time>2026-04-19T16:27:47Z</time></trkpt><trkpt lat="38.03698092838381" lon="-1.1694698457297685"><ele>151.33333333333334</ele><time>2026-04-19T16:27:50Z</time></trkpt><trkpt lat="38.036956482527984" lon="-1.1693891205903195"><ele>151.0</ele><time>2026-04-19T16:27:53Z</time></trkpt><trkpt lat="38.0369296615835" lon="-1.1692745882878675"><ele>151.0</ele><time>2026-04-19T16:27:56Z</time></trkpt><trkpt lat="38.03693400091443" lon="-1.169165666949347"><ele>151.0</ele><time>2026-04-19T16:27:58Z</time></trkpt><trkpt lat="38.03692436641715" lon="-1.1689299986516517"><ele>151.0</ele><time>2026-04-19T16:28:00Z</time></trkpt><trkpt lat="38.036910491876064" lon="-1.1687926916270657"><ele>151.0</ele><time>2026-04-19T16:28:02Z</time></trkpt><trkpt lat="38.03685547659239" lon="-1.168652359855572"><ele>151.4</ele><time>2026-04-19T16:28:04Z</time></trkpt><trkpt lat="38.036819052569776" lon="-1.1685868320233843"><ele>151.8</ele><time>2026-04-19T16:28:05Z</time></trkpt><trkpt lat="38.036782342991025" lon="-1.1684638476002625"><ele>152.20000000000002</ele><time>2026-04-19T16:28:07Z</time></trkpt><trkpt lat="38.03683488197146" lon="-1.1683341294460186"><ele>152.6</ele><time>2026-04-19T16:28:10Z</time></trkpt><trkpt lat="38.03694134495172" lon="-1.1682100852757835"><ele>153.0</ele><time>2026-04-19T16:28:12Z</time></trkpt><trkpt lat="38.03699761444496" lon="-1.1681421712264064"><ele>153.0</ele><time>2026-04-19T16:28:13Z</time></trkpt><trkpt lat="38.037079597351294" lon="-1.1680801526068192"><ele>153.0</ele><time>2026-04-19T16:28:15Z</time></trkpt><trkpt lat="38.03714752740531" lon="-1.1680246302197628"><ele>153.0</ele><time>2026-04-19T16:28:18Z</time></trkpt><trkpt lat="38.037206304448404" lon="-1.167988950477986"><ele>153.0</ele><time>2026-04-19T16:28:21Z</time></trkpt><trkpt lat="38.03727770774093" lon="-1.167975652702891"><ele>153.0</ele><time>2026-04-19T16:28:25Z</time></trkpt><trkpt lat="38.03736455855001" lon="-1.16806753666858"><ele>153.0</ele><time>2026-04-19T16:28:52Z</time></trkpt><trkpt lat="38.03742097579477" lon="-1.1681210617627786"><ele>152.33333333333334</ele><time>2026-04-19T16:28:53Z</time></trkpt><trkpt lat="38.0374920808923" lon="-1.1681810390772314"><ele>151.66666666666666</ele><time>2026-04-19T16:28:55Z</time></trkpt><trkpt lat="38.03755541556387" lon="-1.1681464509666537"><ele>151.0</ele><time>2026-04-19T16:28:58Z</time></trkpt><trkpt lat="38.03761085870177" lon="-1.16809718956823"><ele>150.33333333333331</ele><time>2026-04-19T16:29:00Z</time></trkpt><trkpt lat="38.0376640271741" lon="-1.1680337532148806"><ele>149.66666666666666</ele><time>2026-04-19T16:29:05Z</time></trkpt><trkpt lat="38.03774058032097" lon="-1.1679768511938677"><ele>149.0</ele><time>2026-04-19T16:29:08Z</time></trkpt><trkpt lat="38.037789302119236" lon="-1.1678784940966258"><ele>149.0</ele><time>2026-04-19T16:29:11Z</time></trkpt><trkpt lat="38.037823772217855" lon="-1.1678099182011958"><ele>149.0</ele><time>2026-04-19T16:29:13Z</time></trkpt><trkpt lat="38.03786287009766" lon="-1.1677405197897996"><ele>149.0</ele><time>2026-04-19T16:29:15Z</time></trkpt><trkpt lat="38.03790474894424" lon="-1.167637018010592"><ele>149.0</ele><time>2026-04-19T16:29:17Z</time></trkpt><trkpt lat="38.03795832835631" lon="-1.1675432749883028"><ele>149.0</ele><time>2026-04-19T16:29:19Z</time></trkpt><trkpt lat="38.038000688344844" lon="-1.1674400419870101"><ele>149.0</ele><time>2026-04-19T16:29:21Z</time></trkpt><trkpt lat="38.03805485992174" lon="-1.167334256855025"><ele>146.8</ele><time>2026-04-19T16:29:23Z</time></trkpt><trkpt lat="38.03809855868727" lon="-1.1672234467040243"><ele>144.60000000000002</ele><time>2026-04-19T16:29:25Z</time></trkpt><trkpt lat="38.03810266174559" lon="-1.1671268499387482"><ele>142.4</ele><time>2026-04-19T16:29:27Z</time></trkpt><trkpt lat="38.03806835644851" lon="-1.166976577977884"><ele>140.20000000000002</ele><time>2026-04-19T16:29:29Z</time></trkpt><trkpt lat="38.03804712590624" lon="-1.166826908741807"><ele>138.0</ele><time>2026-04-19T16:29:31Z</time></trkpt><trkpt lat="38.03804548426686" lon="-1.166746088264468"><ele>138.0</ele><time>2026-04-19T16:29:32Z</time></trkpt><trkpt lat="38.038053133137375" lon="-1.1666662590048416"><ele>138.0</ele><time>2026-04-19T16:29:33Z</time></trkpt><trkpt lat="38.0380816444629" lon="-1.1665401838892897"><ele>138.0</ele><time>2026-04-19T16:29:35Z</time></trkpt><trkpt lat="38.038083528645565" lon="-1.166443110668442"><ele>138.0</ele><time>2026-04-19T16:29:38Z</time></trkpt><trkpt lat="38.038069745776724" lon="-1.1663401426316675"><ele>138.0</ele><time>2026-04-19T16:29:41Z</time></trkpt><trkpt lat="38.038126817220885" lon="-1.1662959982981735"><ele>138.0</ele><time>2026-04-19T16:29:45Z</time></trkpt><trkpt lat="38.038180994245764" lon="-1.1662498991342352"><ele>138.0</ele><time>2026-04-19T16:29:51Z</time></trkpt><trkpt lat="38.038241906054694" lon="-1.166216365479767"><ele>138.0</ele><time>2026-04-19T16:29:59Z</time></trkpt><trkpt lat="38.03829277439446" lon="-1.166271852400415"><ele>138.0</ele><time>2026-04-19T16:30:02Z</time></trkpt><trkpt lat="38.03827356946986" lon="-1.1663761803007444"><ele>138.0</ele><time>2026-04-19T16:30:05Z</time></trkpt><trkpt lat="38.038230577689376" lon="-1.1664728749181874"><ele>138.0</ele><time>2026-04-19T16:30:08Z</time></trkpt><trkpt lat="38.03819873148915" lon="-1.166558131681054"><ele>138.0</ele><time>2026-04-19T16:30:10Z</time></trkpt><trkpt lat="38.03816422271498" lon="-1.1666842972990044"><ele>138.0</ele><time>2026-04-19T16:30:19Z</time></trkpt><trkpt lat="38.03816588470332" lon="-1.1667752979730126"><ele>138.0</ele><time>2026-04-19T16:30:21Z</time></trkpt><trkpt lat="38.03818885857632" lon="-1.1668744233660013"><ele>138.0</ele><time>2026-04-19T16:30:23Z</time></trkpt><trkpt lat="38.0382355673377" lon="-1.1669688098111217"><ele>138.0</ele><time>2026-04-19T16:30:26Z</time></trkpt><trkpt lat="38.03828888581812" lon="-1.1670278646500256"><ele>138.0</ele><time>2026-04-19T16:30:29Z</time></trkpt><trkpt lat="38.03833114729064" lon="-1.1671206765170246"><ele>138.0</ele><time>2026-04-19T16:30:32Z</time></trkpt><trkpt lat="38.03838033951793" lon="-1.1672103553376312"><ele>137.85714285714286</ele><time>2026-04-19T16:30:35Z</time></trkpt><trkpt lat="38.03843190739129" lon="-1.1672941100924554"><ele>137.71428571428572</ele><time>2026-04-19T16:30:38Z</time></trkpt><trkpt lat="38.03849048244751" lon="-1.1673665821795103"><ele>137.57142857142858</ele><time>2026-04-19T16:30:41Z</time></trkpt><trkpt lat="38.03853963635859" lon="-1.167422697235864"><ele>137.42857142857144</ele><time>2026-04-19T16:30:44Z</time></trkpt><trkpt lat="38.03859165464146" lon="-1.167478050010487"><ele>137.28571428571428</ele><time>2026-04-19T16:30:50Z</time></trkpt><trkpt lat="38.0386349236307" lon="-1.1675378324212586"><ele>137.14285714285717</ele><time>2026-04-19T16:31:20Z</time></trkpt><trkpt lat="38.03866959411347" lon="-1.1676161189037462"><ele>137.0</ele><time>2026-04-19T16:31:27Z</time></trkpt><trkpt lat="38.038638365972595" lon="-1.1675391775328496"><ele>137.00000000000003</ele><time>2026-04-19T16:32:04Z</time></trkpt><trkpt lat="38.03865688117768" lon="-1.1676185169121738"><ele>137.0</ele><time>2026-04-19T16:33:59Z</time></trkpt><trkpt lat="38.03865739173414" lon="-1.1677043679859171"><ele>137.0</ele><time>2026-04-19T16:34:18Z</time></trkpt><trkpt lat="38.03863780976338" lon="-1.167783548459064"><ele>137.0</ele><time>2026-04-19T16:34:22Z</time></trkpt><trkpt lat="38.03862076398873" lon="-1.1678647049832982"><ele>137.0</ele><time>2026-04-19T16:34:27Z</time></trkpt><trkpt lat="38.03863408347737" lon="-1.167951118170992"><ele>137.00000000000003</ele><time>2026-04-19T16:34:30Z</time></trkpt><trkpt lat="38.0386114138499" lon="-1.1680404998746543"><ele>137.0</ele><time>2026-04-19T16:34:36Z</time></trkpt><trkpt lat="38.03857578383114" lon="-1.1681158265840377"><ele>138.00000000000003</ele><time>2026-04-19T16:34:40Z</time></trkpt><trkpt lat="38.03858883044555" lon="-1.168223701836653"><ele>139.0</ele><time>2026-04-19T16:34:45Z</time></trkpt><trkpt lat="38.03860199221382" lon="-1.1683151659241358"><ele>140.0</ele><time>2026-04-19T16:34:48Z</time></trkpt><trkpt lat="38.03862761504917" lon="-1.168408972244043"><ele>141.0</ele><time>2026-04-19T16:34:57Z</time></trkpt><trkpt lat="38.03865329617707" lon="-1.1684848871570628"><ele>142.0</ele><time>2026-04-19T16:35:02Z</time></trkpt><trkpt lat="38.03864758262915" lon="-1.1685670858280546"><ele>143.00000000000003</ele><time>2026-04-19T16:35:06Z</time></trkpt><trkpt lat="38.03862492204545" lon="-1.1686543601346457"><ele>144.0</ele><time>2026-04-19T16:35:10Z</time></trkpt><trkpt lat="38.03860190157906" lon="-1.1687500136365534"><ele>144.0</ele><time>2026-04-19T16:35:14Z</time></trkpt><trkpt lat="38.03865373876082" lon="-1.1688306123729073"><ele>144.0</ele><time>2026-04-19T16:35:17Z</time></trkpt><trkpt lat="38.03872989483174" lon="-1.1688053686652606"><ele>144.0</ele><time>2026-04-19T16:35:19Z</time></trkpt><trkpt lat="38.03879761520628" lon="-1.1687764313613784"><ele>144.0</ele><time>2026-04-19T16:35:21Z</time></trkpt><trkpt lat="38.03887145237196" lon="-1.168704524429496"><ele>144.0</ele><time>2026-04-19T16:35:25Z</time></trkpt><trkpt lat="38.03891013562361" lon="-1.168628136360886"><ele>144.0</ele><time>2026-04-19T16:42:00Z</time></trkpt><trkpt lat="38.03895891236262" lon="-1.1685642265241576"><ele>144.0</ele><time>2026-04-19T16:42:02Z</time></trkpt><trkpt lat="38.03901461669813" lon="-1.1685013368251047"><ele>144.0</ele><time>2026-04-19T16:42:04Z</time></trkpt><trkpt lat="38.03910213017186" lon="-1.1684358806468134"><ele>144.0</ele><time>2026-04-19T16:42:07Z</time></trkpt><trkpt lat="38.03917309050294" lon="-1.1684457926953382"><ele>144.0</ele><time>2026-04-19T16:42:10Z</time></trkpt><trkpt lat="38.03919944454882" lon="-1.1685415316163474"><ele>144.0</ele><time>2026-04-19T16:42:12Z</time></trkpt><trkpt lat="38.039203059753355" lon="-1.1686432310638006"><ele>144.0</ele><time>2026-04-19T16:42:14Z</time></trkpt><trkpt lat="38.0392209361773" lon="-1.1687765583313736"><ele>144.0</ele><time>2026-04-19T16:42:16Z</time></trkpt><trkpt lat="38.03923854689609" lon="-1.168917470501653"><ele>144.0</ele><time>2026-04-19T16:42:18Z</time></trkpt><trkpt lat="38.03923705198559" lon="-1.1690429365412567"><ele>144.0</ele><time>2026-04-19T16:42:20Z</time></trkpt><trkpt lat="38.03924899264357" lon="-1.1691810870944639"><ele>144.0</ele><time>2026-04-19T16:42:22Z</time></trkpt><trkpt lat="38.03927956484296" lon="-1.1693239617353"><ele>144.0</ele><time>2026-04-19T16:42:24Z</time></trkpt><trkpt lat="38.03928554007395" lon="-1.1694054370780216"><ele>145.0</ele><time>2026-04-19T16:42:25Z</time></trkpt><trkpt lat="38.03928687670348" lon="-1.169486903606779"><ele>146.0</ele><time>2026-04-19T16:42:26Z</time></trkpt><trkpt lat="38.03928868461868" lon="-1.1695685319045608"><ele>147.0</ele><time>2026-04-19T16:42:27Z</time></trkpt><trkpt lat="38.03928221194005" lon="-1.169722303496238"><ele>148.0</ele><time>2026-04-19T16:42:29Z</time></trkpt><trkpt lat="38.039272262786845" lon="-1.1698053549899512"><ele>149.0</ele><time>2026-04-19T16:42:30Z</time></trkpt><trkpt lat="38.03925915504128" lon="-1.1698853264979503"><ele>150.0</ele><time>2026-04-19T16:42:31Z</time></trkpt><trkpt lat="38.039217534469614" lon="-1.1700351777455307"><ele>150.57142857142856</ele><time>2026-04-19T16:42:33Z</time></trkpt><trkpt lat="38.0391872354135" lon="-1.1701077479941449"><ele>151.14285714285714</ele><time>2026-04-19T16:42:34Z</time></trkpt><trkpt lat="38.039158468783604" lon="-1.1701822463545395"><ele>151.71428571428572</ele><time>2026-04-19T16:42:35Z</time></trkpt><trkpt lat="38.03913710365095" lon="-1.1702629249334977"><ele>152.28571428571428</ele><time>2026-04-19T16:42:36Z</time></trkpt><trkpt lat="38.0391158072582" lon="-1.1703419782424027"><ele>152.85714285714286</ele><time>2026-04-19T16:42:37Z</time></trkpt><trkpt lat="38.0390901592533" lon="-1.1704263973394229"><ele>153.42857142857142</ele><time>2026-04-19T16:42:38Z</time></trkpt><trkpt lat="38.03905993070991" lon="-1.17050521632911"><ele>154.0</ele><time>2026-04-19T16:42:39Z</time></trkpt><trkpt lat="38.03902538780632" lon="-1.1705857544915634"><ele>154.0</ele><time>2026-04-19T16:42:40Z</time></trkpt><trkpt lat="38.038991679530604" lon="-1.1706694927998564"><ele>154.0</ele><time>2026-04-19T16:42:41Z</time></trkpt><trkpt lat="38.03892816777015" lon="-1.1707633394067314"><ele>154.0</ele><time>2026-04-19T16:42:43Z</time></trkpt><trkpt lat="38.038865889773454" lon="-1.17084275985343"><ele>154.0</ele><time>2026-04-19T16:42:45Z</time></trkpt><trkpt lat="38.03876000909696" lon="-1.170846108434825"><ele>154.0</ele><time>2026-04-19T16:42:47Z</time></trkpt><trkpt lat="38.038639729268205" lon="-1.1707751633671353"><ele>154.0</ele><time>2026-04-19T16:42:49Z</time></trkpt><trkpt lat="38.03857411341174" lon="-1.1707347719911891"><ele>154.0</ele><time>2026-04-19T16:42:50Z</time></trkpt><trkpt lat="38.03851315086819" lon="-1.170692836531498"><ele>154.0</ele><time>2026-04-19T16:42:51Z</time></trkpt><trkpt lat="38.0384036384393" lon="-1.1706516852756301"><ele>154.0</ele><time>2026-04-19T16:42:53Z</time></trkpt><trkpt lat="38.038332892546016" lon="-1.1706412735489573"><ele>154.0</ele><time>2026-04-19T16:42:55Z</time></trkpt><trkpt lat="38.03825524220155" lon="-1.170641345184395"><ele>154.0</ele><time>2026-04-19T16:42:57Z</time></trkpt><trkpt lat="38.0381696289498" lon="-1.1706194411555144"><ele>155.0</ele><time>2026-04-19T16:42:59Z</time></trkpt><trkpt lat="38.03806500049292" lon="-1.1706275271475417"><ele>156.0</ele><time>2026-04-19T16:43:01Z</time></trkpt><trkpt lat="38.03796644543144" lon="-1.1706304904271856"><ele>157.0</ele><time>2026-04-19T16:43:03Z</time></trkpt><trkpt lat="38.03790213540064" lon="-1.170658777957758"><ele>158.0</ele><time>2026-04-19T16:43:05Z</time></trkpt><trkpt lat="38.03784413679861" lon="-1.1707313263385533"><ele>159.0</ele><time>2026-04-19T16:43:08Z</time></trkpt><trkpt lat="38.03778793453482" lon="-1.1708423405959247"><ele>159.0</ele><time>2026-04-19T16:50:50Z</time></trkpt><trkpt lat="38.037783232562475" lon="-1.1709439805357311"><ele>159.0</ele><time>2026-04-19T16:50:52Z</time></trkpt><trkpt lat="38.037854413870946" lon="-1.1709979631062144"><ele>159.0</ele><time>2026-04-19T16:50:54Z</time></trkpt><trkpt lat="38.037954042192126" lon="-1.1710715073960611"><ele>159.0</ele><time>2026-04-19T16:50:56Z</time></trkpt><trkpt lat="38.038008593759606" lon="-1.1711589253094155"><ele>159.0</ele><time>2026-04-19T16:50:58Z</time></trkpt><trkpt lat="38.03798686091854" lon="-1.171298987952836"><ele>159.0</ele><time>2026-04-19T16:51:00Z</time></trkpt><trkpt lat="38.037986454777304" lon="-1.1713950402306086"><ele>159.0</ele><time>2026-04-19T16:51:01Z</time></trkpt><trkpt lat="38.037921580070524" lon="-1.1715160003455518"><ele>159.0</ele><time>2026-04-19T16:51:03Z</time></trkpt><trkpt lat="38.037852722027516" lon="-1.1716181959079786"><ele>159.0</ele><time>2026-04-19T16:51:05Z</time></trkpt><trkpt lat="38.03782572292372" lon="-1.1716958372719124"><ele>159.0</ele><time>2026-04-19T16:51:06Z</time></trkpt><trkpt lat="38.037787156508095" lon="-1.1717797892327182"><ele>159.0</ele><time>2026-04-19T16:51:07Z</time></trkpt><trkpt lat="38.03776982171165" lon="-1.171879785046667"><ele>159.4</ele><time>2026-04-19T16:51:08Z</time></trkpt><trkpt lat="38.03779025675291" lon="-1.171986499734155"><ele>159.8</ele><time>2026-04-19T16:51:09Z</time></trkpt><trkpt lat="38.037846069631996" lon="-1.1720834049621274"><ele>160.20000000000002</ele><time>2026-04-19T16:51:10Z</time></trkpt><trkpt lat="38.037941212388226" lon="-1.1721675895509058"><ele>160.60000000000002</ele><time>2026-04-19T16:51:11Z</time></trkpt><trkpt lat="38.03805036136039" lon="-1.1722484260662251"><ele>161.0</ele><time>2026-04-19T16:51:12Z</time></trkpt><trkpt lat="38.03815308427737" lon="-1.17233243546417"><ele>162.60000000000002</ele><time>2026-04-19T16:51:13Z</time></trkpt><trkpt lat="38.038242786098884" lon="-1.1724146650032101"><ele>164.2</ele><time>2026-04-19T16:51:14Z</time></trkpt><trkpt lat="38.0383266059138" lon="-1.1724736971617422"><ele>165.8</ele><time>2026-04-19T16:51:15Z</time></trkpt><trkpt lat="38.03838659929797" lon="-1.1725633623411555"><ele>167.39999999999998</ele><time>2026-04-19T16:51:16Z</time></trkpt><trkpt lat="38.03841787952434" lon="-1.1726647713635627"><ele>169.0</ele><time>2026-04-19T16:51:17Z</time></trkpt><trkpt lat="38.038366334202365" lon="-1.1727753003301857"><ele>169.0</ele><time>2026-04-19T16:51:18Z</time></trkpt><trkpt lat="38.038348882741" lon="-1.1728640697368877"><ele>169.0</ele><time>2026-04-19T16:51:20Z</time></trkpt><trkpt lat="38.03821318450955" lon="-1.1728835208475594"><ele>169.0</ele><time>2026-04-19T16:51:24Z</time></trkpt><trkpt lat="38.038127947768345" lon="-1.1728879486880717"><ele>169.0</ele><time>2026-04-19T16:51:26Z</time></trkpt><trkpt lat="38.03800302511114" lon="-1.1728050614028305"><ele>169.0</ele><time>2026-04-19T16:51:28Z</time></trkpt><trkpt lat="38.03791985762664" lon="-1.1727350786309862"><ele>169.0</ele><time>2026-04-19T16:51:29Z</time></trkpt><trkpt lat="38.037835278241275" lon="-1.1726637298393057"><ele>169.0</ele><time>2026-04-19T16:51:30Z</time></trkpt><trkpt lat="38.03776424017506" lon="-1.1726099200615485"><ele>169.0</ele><time>2026-04-19T16:51:31Z</time></trkpt><trkpt lat="38.037694867061305" lon="-1.1725766882140443"><ele>169.0</ele><time>2026-04-19T16:51:32Z</time></trkpt><trkpt lat="38.03761312108899" lon="-1.172538809471565"><ele>169.0</ele><time>2026-04-19T16:51:33Z</time></trkpt><trkpt lat="38.03753006917772" lon="-1.1724927651236583"><ele>169.0</ele><time>2026-04-19T16:51:34Z</time></trkpt><trkpt lat="38.037452031617754" lon="-1.1724478368982139"><ele>168.66666666666669</ele><time>2026-04-19T16:51:35Z</time></trkpt><trkpt lat="38.03738801525547" lon="-1.1724135569801617"><ele>168.33333333333334</ele><time>2026-04-19T16:51:36Z</time></trkpt><trkpt lat="38.0372707729329" lon="-1.172395270351225"><ele>168.0</ele><time>2026-04-19T16:51:38Z</time></trkpt><trkpt lat="38.037203588435766" lon="-1.1723893319559031"><ele>167.66666666666666</ele><time>2026-04-19T16:51:39Z</time></trkpt><trkpt lat="38.037134410112635" lon="-1.1723698866408825"><ele>167.33333333333331</ele><time>2026-04-19T16:51:40Z</time></trkpt><trkpt lat="38.03707021273187" lon="-1.1723455057241465"><ele>167.0</ele><time>2026-04-19T16:51:41Z</time></trkpt><trkpt lat="38.03701295089003" lon="-1.1723108483099012"><ele>165.33333333333331</ele><time>2026-04-19T16:51:42Z</time></trkpt><trkpt lat="38.0369397277025" lon="-1.1722106203075167"><ele>163.66666666666666</ele><time>2026-04-19T16:51:44Z</time></trkpt><trkpt lat="38.036926719686186" lon="-1.172130954433458"><ele>162.0</ele><time>2026-04-19T16:51:45Z</time></trkpt><trkpt lat="38.036917363925646" lon="-1.1720338186471293"><ele>160.33333333333334</ele><time>2026-04-19T16:51:46Z</time></trkpt><trkpt lat="38.03689683113218" lon="-1.1719452623172202"><ele>158.66666666666669</ele><time>2026-04-19T16:51:47Z</time></trkpt><trkpt lat="38.036860711188574" lon="-1.1718708438516432"><ele>157.0</ele><time>2026-04-19T16:51:48Z</time></trkpt><trkpt lat="38.036827607418445" lon="-1.171802770704049"><ele>157.0</ele><time>2026-04-19T16:51:49Z</time></trkpt><trkpt lat="38.03674927327474" lon="-1.1716882655813043"><ele>157.0</ele><time>2026-04-19T16:51:51Z</time></trkpt><trkpt lat="38.03663172991183" lon="-1.1716200321954635"><ele>157.0</ele><time>2026-04-19T16:51:53Z</time></trkpt><trkpt lat="38.03655399093137" lon="-1.1715908342828192"><ele>157.0</ele><time>2026-04-19T16:51:54Z</time></trkpt><trkpt lat="38.03647489410513" lon="-1.1715525062904977"><ele>157.0</ele><time>2026-04-19T16:51:55Z</time></trkpt><trkpt lat="38.03641129696315" lon="-1.171511359807332"><ele>155.57142857142856</ele><time>2026-04-19T16:51:56Z</time></trkpt><trkpt lat="38.036356674416" lon="-1.1714648543763728"><ele>154.14285714285714</ele><time>2026-04-19T16:51:57Z</time></trkpt><trkpt lat="38.03630307525581" lon="-1.1714121697712034"><ele>152.71428571428572</ele><time>2026-04-19T16:51:58Z</time></trkpt><trkpt lat="38.03625165962795" lon="-1.1713635726803115"><ele>151.28571428571428</ele><time>2026-04-19T16:51:59Z</time></trkpt><trkpt lat="38.03615807068626" lon="-1.1713377743219777"><ele>149.85714285714286</ele><time>2026-04-19T16:52:01Z</time></trkpt><trkpt lat="38.03609121188966" lon="-1.1713545716301959"><ele>148.42857142857142</ele><time>2026-04-19T16:52:02Z</time></trkpt><trkpt lat="38.03601026287236" lon="-1.1713723624363057"><ele>147.0</ele><time>2026-04-19T16:52:03Z</time></trkpt><trkpt lat="38.03593989825926" lon="-1.1713875241746141"><ele>147.0</ele><time>2026-04-19T16:52:04Z</time></trkpt><trkpt lat="38.035843541553085" lon="-1.171409009445472"><ele>147.0</ele><time>2026-04-19T16:52:06Z</time></trkpt><trkpt lat="38.03578679067219" lon="-1.1714704832336946"><ele>147.0</ele><time>2026-04-19T16:52:09Z</time></trkpt><trkpt lat="38.03574556293433" lon="-1.1716627087572267"><ele>147.0</ele><time>2026-04-19T16:52:12Z</time></trkpt><trkpt lat="38.03572843515199" lon="-1.171797970456617"><ele>147.0</ele><time>2026-04-19T16:52:14Z</time></trkpt><trkpt lat="38.035691377132544" lon="-1.171898058241695"><ele>148.4</ele><time>2026-04-19T16:52:17Z</time></trkpt><trkpt lat="38.03567805464864" lon="-1.1719832380276602"><ele>149.79999999999998</ele><time>2026-04-19T16:52:19Z</time></trkpt><trkpt lat="38.035646089349214" lon="-1.1721030982790988"><ele>151.2</ele><time>2026-04-19T16:52:21Z</time></trkpt><trkpt lat="38.03560188697298" lon="-1.1722143956940314"><ele>152.6</ele><time>2026-04-19T16:52:23Z</time></trkpt><trkpt lat="38.035528401931494" lon="-1.1723282867458498"><ele>154.0</ele><time>2026-04-19T16:52:25Z</time></trkpt><trkpt lat="38.03544975314398" lon="-1.1722864920285552"><ele>154.0</ele><time>2026-04-19T16:52:31Z</time></trkpt><trkpt lat="38.03542282266082" lon="-1.172181400655313"><ele>154.0</ele><time>2026-04-19T16:52:33Z</time></trkpt><trkpt lat="38.03538942059559" lon="-1.1720355992150469"><ele>154.0</ele><time>2026-04-19T16:52:35Z</time></trkpt><trkpt lat="38.03538630736559" lon="-1.171932016024306"><ele>154.0</ele><time>2026-04-19T16:52:36Z</time></trkpt><trkpt lat="38.03537882803519" lon="-1.1718439720175955"><ele>154.0</ele><time>2026-04-19T16:52:37Z</time></trkpt><trkpt lat="38.035359675161246" lon="-1.1717671787527753"><ele>154.0</ele><time>2026-04-19T16:52:38Z</time></trkpt><trkpt lat="38.03529833902839" lon="-1.171640547841797"><ele>154.0</ele><time>2026-04-19T16:52:40Z</time></trkpt><trkpt lat="38.03523240319801" lon="-1.1715575036860084"><ele>154.0</ele><time>2026-04-19T16:52:42Z</time></trkpt><trkpt lat="38.035164738990794" lon="-1.1715205119991525"><ele>154.0</ele><time>2026-04-19T16:52:44Z</time></trkpt><trkpt lat="38.035073759796475" lon="-1.1715311737419536"><ele>154.0</ele><time>2026-04-19T16:52:47Z</time></trkpt><trkpt lat="38.03498782478538" lon="-1.1715548894436978"><ele>154.0</ele><time>2026-04-19T16:52:50Z</time></trkpt><trkpt lat="38.034918491503014" lon="-1.1716679105682595"><ele>152.25</ele><time>2026-04-19T16:52:52Z</time></trkpt><trkpt lat="38.034841304227854" lon="-1.1718215243590706"><ele>150.5</ele><time>2026-04-19T16:52:54Z</time></trkpt><trkpt lat="38.03474937131779" lon="-1.1719630589312244"><ele>148.75</ele><time>2026-04-19T16:52:55Z</time></trkpt><trkpt lat="38.03468646715563" lon="-1.1720434686201382"><ele>147.0</ele><time>2026-04-19T16:52:56Z</time></trkpt><trkpt lat="38.03462878489862" lon="-1.172120590132512"><ele>147.0</ele><time>2026-04-19T16:52:57Z</time></trkpt><trkpt lat="38.03457183674687" lon="-1.1721993279148204"><ele>147.0</ele><time>2026-04-19T16:52:58Z</time></trkpt><trkpt lat="38.03451917863017" lon="-1.1722785635497395"><ele>147.0</ele><time>2026-04-19T16:52:59Z</time></trkpt><trkpt lat="38.03446631638945" lon="-1.1723592347115046"><ele>147.0</ele><time>2026-04-19T16:53:00Z</time></trkpt><trkpt lat="38.03441165184023" lon="-1.1724334563572643"><ele>147.0</ele><time>2026-04-19T16:53:01Z</time></trkpt><trkpt lat="38.034356171569094" lon="-1.1725151288441826"><ele>147.0</ele><time>2026-04-19T16:53:02Z</time></trkpt><trkpt lat="38.03430156041176" lon="-1.1725890914672337"><ele>147.16666666666666</ele><time>2026-04-19T16:53:03Z</time></trkpt><trkpt lat="38.03424904218493" lon="-1.172650041372639"><ele>147.33333333333334</ele><time>2026-04-19T16:53:04Z</time></trkpt><trkpt lat="38.0341797351311" lon="-1.1726911860821732"><ele>147.5</ele><time>2026-04-19T16:53:05Z</time></trkpt><trkpt lat="38.03410866438282" lon="-1.1727344963800204"><ele>147.66666666666669</ele><time>2026-04-19T16:53:06Z</time></trkpt><trkpt lat="38.03404506302137" lon="-1.1727724245267992"><ele>147.83333333333334</ele><time>2026-04-19T16:53:07Z</time></trkpt><trkpt lat="38.03397127524829" lon="-1.1728247425432645"><ele>148.0</ele><time>2026-04-19T16:53:08Z</time></trkpt><trkpt lat="38.033889276152365" lon="-1.1728894388378834"><ele>147.20000000000002</ele><time>2026-04-19T16:53:09Z</time></trkpt><trkpt lat="38.03382221752109" lon="-1.172958234829443"><ele>146.4</ele><time>2026-04-19T16:53:10Z</time></trkpt><trkpt lat="38.03377730377394" lon="-1.1730259472309452"><ele>145.60000000000002</ele><time>2026-04-19T16:53:11Z</time></trkpt><trkpt lat="38.03370012254056" lon="-1.17312630395758"><ele>144.8</ele><time>2026-04-19T16:53:13Z</time></trkpt><trkpt lat="38.03361792387171" lon="-1.1732362800554978"><ele>144.0</ele><time>2026-04-19T16:53:15Z</time></trkpt><trkpt lat="38.0335710201667" lon="-1.1732976464632383"><ele>143.83333333333334</ele><time>2026-04-19T16:53:16Z</time></trkpt><trkpt lat="38.033503260227576" lon="-1.1733635924551917"><ele>143.66666666666666</ele><time>2026-04-19T16:53:17Z</time></trkpt><trkpt lat="38.033440768206" lon="-1.1734335284926805"><ele>143.5</ele><time>2026-04-19T16:53:18Z</time></trkpt><trkpt lat="38.03338451785856" lon="-1.1735123585172653"><ele>143.33333333333331</ele><time>2026-04-19T16:53:19Z</time></trkpt><trkpt lat="38.033337428995395" lon="-1.1735940754041563"><ele>143.16666666666666</ele><time>2026-04-19T16:53:20Z</time></trkpt><trkpt lat="38.03328587085226" lon="-1.173665234716013"><ele>143.0</ele><time>2026-04-19T16:53:21Z</time></trkpt><trkpt lat="38.03323182746349" lon="-1.1737321197376132"><ele>143.0</ele><time>2026-04-19T16:53:22Z</time></trkpt><trkpt lat="38.033168737703335" lon="-1.173802263451403"><ele>143.0</ele><time>2026-04-19T16:53:24Z</time></trkpt><trkpt lat="38.03308381204943" lon="-1.1738971397269276"><ele>143.0</ele><time>2026-04-19T16:53:26Z</time></trkpt><trkpt lat="38.033022776727265" lon="-1.173973825090293"><ele>143.0</ele><time>2026-04-19T16:53:27Z</time></trkpt><trkpt lat="38.03296867732344" lon="-1.1740392556640782"><ele>143.0</ele><time>2026-04-19T16:53:28Z</time></trkpt><trkpt lat="38.03289709199749" lon="-1.1741515068120785"><ele>143.33333333333331</ele><time>2026-04-19T16:53:30Z</time></trkpt><trkpt lat="38.03282048263208" lon="-1.1742551590686359"><ele>143.66666666666666</ele><time>2026-04-19T16:53:32Z</time></trkpt><trkpt lat="38.032777650042235" lon="-1.1743198063171547"><ele>144.0</ele><time>2026-04-19T16:53:33Z</time></trkpt><trkpt lat="38.03272784530321" lon="-1.1743743247125666"><ele>144.33333333333334</ele><time>2026-04-19T16:53:34Z</time></trkpt><trkpt lat="38.03266769315867" lon="-1.1744948458500615"><ele>144.66666666666669</ele><time>2026-04-19T16:53:36Z</time></trkpt><trkpt lat="38.032636291370224" lon="-1.1745679732584071"><ele>145.0</ele><time>2026-04-19T16:53:37Z</time></trkpt><trkpt lat="38.03259036830243" lon="-1.1746576396502173"><ele>145.0</ele><time>2026-04-19T16:53:38Z</time></trkpt><trkpt lat="38.03251837880103" lon="-1.1747362905856806"><ele>145.0</ele><time>2026-04-19T16:53:39Z</time></trkpt><trkpt lat="38.03243540691972" lon="-1.174818196001974"><ele>145.0</ele><time>2026-04-19T16:53:40Z</time></trkpt><trkpt lat="38.03237785419326" lon="-1.1749009326581739"><ele>145.0</ele><time>2026-04-19T16:53:41Z</time></trkpt><trkpt lat="38.032331111885284" lon="-1.1749865206260581"><ele>145.0</ele><time>2026-04-19T16:53:42Z</time></trkpt><trkpt lat="38.0322861370598" lon="-1.1750598281587543"><ele>145.0</ele><time>2026-04-19T16:53:43Z</time></trkpt><trkpt lat="38.032241598103866" lon="-1.1751166115859473"><ele>145.0</ele><time>2026-04-19T16:53:44Z</time></trkpt><trkpt lat="38.032164260911536" lon="-1.1752223578613072"><ele>145.0</ele><time>2026-04-19T16:53:46Z</time></trkpt><trkpt lat="38.0321189663336" lon="-1.1752914293319794"><ele>145.0</ele><time>2026-04-19T16:53:47Z</time></trkpt><trkpt lat="38.03206268942574" lon="-1.175377408334018"><ele>145.0</ele><time>2026-04-19T16:53:48Z</time></trkpt><trkpt lat="38.03199212767321" lon="-1.1754814821961177"><ele>145.0</ele><time>2026-04-19T16:53:49Z</time></trkpt><trkpt lat="38.03190800808858" lon="-1.175595018619949"><ele>145.0</ele><time>2026-04-19T16:53:50Z</time></trkpt><trkpt lat="38.03183220541459" lon="-1.1757021352720902"><ele>145.0</ele><time>2026-04-19T16:53:51Z</time></trkpt><trkpt lat="38.03177678635993" lon="-1.1757904682494307"><ele>145.0</ele><time>2026-04-19T16:53:52Z</time></trkpt><trkpt lat="38.03172315012108" lon="-1.1758726982965797"><ele>145.0</ele><time>2026-04-19T16:53:53Z</time></trkpt><trkpt lat="38.03166765131746" lon="-1.1759327487382862"><ele>145.0</ele><time>2026-04-19T16:53:54Z</time></trkpt><trkpt lat="38.031623778990266" lon="-1.1760000739340442"><ele>145.0</ele><time>2026-04-19T16:53:55Z</time></trkpt><trkpt lat="38.03157087257863" lon="-1.176082740181691"><ele>145.0</ele><time>2026-04-19T16:53:57Z</time></trkpt><trkpt lat="38.03149672556697" lon="-1.1761698486851109"><ele>145.0</ele><time>2026-04-19T16:53:59Z</time></trkpt><trkpt lat="38.03145067086115" lon="-1.1762364024758685"><ele>145.0</ele><time>2026-04-19T16:54:00Z</time></trkpt><trkpt lat="38.03139209197359" lon="-1.1763008251550346"><ele>145.0</ele><time>2026-04-19T16:54:01Z</time></trkpt><trkpt lat="38.031341259251164" lon="-1.1763706969069023"><ele>145.0</ele><time>2026-04-19T16:54:02Z</time></trkpt><trkpt lat="38.03130476552394" lon="-1.1764879692982517"><ele>145.0</ele><time>2026-04-19T16:54:04Z</time></trkpt><trkpt lat="38.03133285804955" lon="-1.176564002435844"><ele>145.4</ele><time>2026-04-19T16:54:05Z</time></trkpt><trkpt lat="38.031402927718325" lon="-1.176616414164401"><ele>145.8</ele><time>2026-04-19T16:54:06Z</time></trkpt><trkpt lat="38.031506988024766" lon="-1.176672201967043"><ele>146.2</ele><time>2026-04-19T16:54:07Z</time></trkpt><trkpt lat="38.03160979129315" lon="-1.176751699225357"><ele>146.6</ele><time>2026-04-19T16:54:08Z</time></trkpt><trkpt lat="38.03168546328287" lon="-1.1768305499284637"><ele>147.0</ele><time>2026-04-19T16:54:09Z</time></trkpt><trkpt lat="38.03173419238012" lon="-1.1768980708607446"><ele>147.0</ele><time>2026-04-19T16:54:10Z</time></trkpt><trkpt lat="38.031747467684035" lon="-1.1769851671765927"><ele>147.0</ele><time>2026-04-19T16:54:11Z</time></trkpt><trkpt lat="38.03172521041027" lon="-1.1770742011099036"><ele>147.0</ele><time>2026-04-19T16:54:12Z</time></trkpt><trkpt lat="38.03168157430067" lon="-1.1771774585314068"><ele>147.0</ele><time>2026-04-19T16:54:13Z</time></trkpt><trkpt lat="38.031617304523856" lon="-1.1772955571751695"><ele>147.0</ele><time>2026-04-19T16:54:14Z</time></trkpt><trkpt lat="38.031561604474355" lon="-1.177407308583352"><ele>148.75</ele><time>2026-04-19T16:54:15Z</time></trkpt><trkpt lat="38.03150990236892" lon="-1.1775490193024147"><ele>150.5</ele><time>2026-04-19T16:54:16Z</time></trkpt><trkpt lat="38.03145631956671" lon="-1.1776700192228602"><ele>152.25</ele><time>2026-04-19T16:54:17Z</time></trkpt><trkpt lat="38.03140485669562" lon="-1.1777853741638458"><ele>154.0</ele><time>2026-04-19T16:54:18Z</time></trkpt><trkpt lat="38.03135393479923" lon="-1.1779296920053006"><ele>154.0</ele><time>2026-04-19T16:54:19Z</time></trkpt><trkpt lat="38.0312987649764" lon="-1.1780773363346884"><ele>154.0</ele><time>2026-04-19T16:54:20Z</time></trkpt><trkpt lat="38.03123439137128" lon="-1.1782190141944646"><ele>154.0</ele><time>2026-04-19T16:54:21Z</time></trkpt><trkpt lat="38.03117156909567" lon="-1.1783528672503754"><ele>154.0</ele><time>2026-04-19T16:54:22Z</time></trkpt><trkpt lat="38.03111575992799" lon="-1.1784819488079001"><ele>155.75</ele><time>2026-04-19T16:54:23Z</time></trkpt><trkpt lat="38.03106473106294" lon="-1.1786154464055643"><ele>157.5</ele><time>2026-04-19T16:54:24Z</time></trkpt><trkpt lat="38.03101178324549" lon="-1.1787509185480038"><ele>159.25</ele><time>2026-04-19T16:54:25Z</time></trkpt><trkpt lat="38.03095905651941" lon="-1.178883094542664"><ele>161.0</ele><time>2026-04-19T16:54:26Z</time></trkpt><trkpt lat="38.03090789563207" lon="-1.1790130294490926"><ele>161.75</ele><time>2026-04-19T16:54:27Z</time></trkpt><trkpt lat="38.03086060871868" lon="-1.1791464176946753"><ele>162.5</ele><time>2026-04-19T16:54:28Z</time></trkpt><trkpt lat="38.03082386135408" lon="-1.1792912761689491"><ele>163.25</ele><time>2026-04-19T16:54:29Z</time></trkpt><trkpt lat="38.03079348469527" lon="-1.1794402573881222"><ele>164.0</ele><time>2026-04-19T16:54:30Z</time></trkpt><trkpt lat="38.03077127468899" lon="-1.1796021078504093"><ele>164.2</ele><time>2026-04-19T16:54:31Z</time></trkpt><trkpt lat="38.03074524093731" lon="-1.179763045984737"><ele>164.39999999999998</ele><time>2026-04-19T16:54:32Z</time></trkpt><trkpt lat="38.0307214376554" lon="-1.1799029753996517"><ele>164.6</ele><time>2026-04-19T16:54:33Z</time></trkpt><trkpt lat="38.03070053253755" lon="-1.180016646710093"><ele>164.8</ele><time>2026-04-19T16:54:34Z</time></trkpt><trkpt lat="38.0306794909089" lon="-1.1801206532068347"><ele>165.0</ele><time>2026-04-19T16:54:35Z</time></trkpt><trkpt lat="38.03065436207737" lon="-1.1802243726348207"><ele>165.0</ele><time>2026-04-19T16:54:36Z</time></trkpt><trkpt lat="38.03060941463197" lon="-1.1803026903571345"><ele>165.0</ele><time>2026-04-19T16:54:37Z</time></trkpt><trkpt lat="38.030553957603146" lon="-1.1803736274407015"><ele>165.0</ele><time>2026-04-19T16:54:38Z</time></trkpt><trkpt lat="38.03049422398759" lon="-1.180424250591491"><ele>165.0</ele><time>2026-04-19T16:54:39Z</time></trkpt><trkpt lat="38.03043085281884" lon="-1.1804362283123617"><ele>165.0</ele><time>2026-04-19T16:54:40Z</time></trkpt><trkpt lat="38.03035353594899" lon="-1.1804174407644645"><ele>165.0</ele><time>2026-04-19T16:54:41Z</time></trkpt><trkpt lat="38.03026125574197" lon="-1.1803538499485973"><ele>165.0</ele><time>2026-04-19T16:54:42Z</time></trkpt><trkpt lat="38.03017227824991" lon="-1.1802608382581536"><ele>165.0</ele><time>2026-04-19T16:54:43Z</time></trkpt><trkpt lat="38.03008636829836" lon="-1.1801537615107227"><ele>165.0</ele><time>2026-04-19T16:54:44Z</time></trkpt><trkpt lat="38.029998176915214" lon="-1.1800642479371855"><ele>165.0</ele><time>2026-04-19T16:54:45Z</time></trkpt><trkpt lat="38.02991072177971" lon="-1.179992510208743"><ele>164.0</ele><time>2026-04-19T16:54:46Z</time></trkpt><trkpt lat="38.02983187149219" lon="-1.1799257264747722"><ele>163.0</ele><time>2026-04-19T16:54:47Z</time></trkpt><trkpt lat="38.02976559441481" lon="-1.1798645696394907"><ele>162.0</ele><time>2026-04-19T16:54:48Z</time></trkpt><trkpt lat="38.029702806129286" lon="-1.1798314400201246"><ele>161.0</ele><time>2026-04-19T16:54:49Z</time></trkpt><trkpt lat="38.02959950768711" lon="-1.1798375504933392"><ele>160.0</ele><time>2026-04-19T16:54:51Z</time></trkpt><trkpt lat="38.029519065223944" lon="-1.1798853077756606"><ele>159.0</ele><time>2026-04-19T16:54:53Z</time></trkpt><trkpt lat="38.029411914722104" lon="-1.1799569472720848"><ele>159.0</ele><time>2026-04-19T16:54:55Z</time></trkpt><trkpt lat="38.02932825703458" lon="-1.1799856209541701"><ele>159.0</ele><time>2026-04-19T16:54:56Z</time></trkpt><trkpt lat="38.029229823338596" lon="-1.1799720990884617"><ele>159.0</ele><time>2026-04-19T16:54:57Z</time></trkpt><trkpt lat="38.02914111633546" lon="-1.1799592538939154"><ele>159.0</ele><time>2026-04-19T16:54:58Z</time></trkpt><trkpt lat="38.02906646888885" lon="-1.1799560527685022"><ele>159.0</ele><time>2026-04-19T16:54:59Z</time></trkpt><trkpt lat="38.02894846165523" lon="-1.179948607792579"><ele>158.2</ele><time>2026-04-19T16:55:01Z</time></trkpt><trkpt lat="38.028876886549206" lon="-1.1799693399363473"><ele>157.4</ele><time>2026-04-19T16:55:02Z</time></trkpt><trkpt lat="38.02878026573402" lon="-1.1799997590652034"><ele>156.6</ele><time>2026-04-19T16:55:03Z</time></trkpt><trkpt lat="38.028685205408536" lon="-1.1800456989539347"><ele>155.8</ele><time>2026-04-19T16:55:04Z</time></trkpt><trkpt lat="38.02860150172913" lon="-1.1800943146533993"><ele>155.0</ele><time>2026-04-19T16:55:05Z</time></trkpt><trkpt lat="38.028504691817425" lon="-1.1801257282394375"><ele>155.0</ele><time>2026-04-19T16:55:06Z</time></trkpt><trkpt lat="38.02839809651792" lon="-1.1801586680502558"><ele>155.0</ele><time>2026-04-19T16:55:07Z</time></trkpt><trkpt lat="38.02827528379528" lon="-1.1802030645737394"><ele>155.0</ele><time>2026-04-19T16:55:08Z</time></trkpt><trkpt lat="38.02813420846858" lon="-1.1802611838429733"><ele>155.0</ele><time>2026-04-19T16:55:09Z</time></trkpt><trkpt lat="38.028003809884254" lon="-1.180321875200064"><ele>152.25</ele><time>2026-04-19T16:55:10Z</time></trkpt><trkpt lat="38.02788314773197" lon="-1.1803756474198936"><ele>149.5</ele><time>2026-04-19T16:55:11Z</time></trkpt><trkpt lat="38.027765224320696" lon="-1.1804140503586493"><ele>146.75</ele><time>2026-04-19T16:55:12Z</time></trkpt><trkpt lat="38.02765278916143" lon="-1.1804550517166281"><ele>144.0</ele><time>2026-04-19T16:55:13Z</time></trkpt><trkpt lat="38.0275426764754" lon="-1.1805212798993157"><ele>143.8</ele><time>2026-04-19T16:55:14Z</time></trkpt><trkpt lat="38.02744538758787" lon="-1.1805924466884434"><ele>143.60000000000002</ele><time>2026-04-19T16:55:15Z</time></trkpt><trkpt lat="38.02734818426313" lon="-1.1806601088595"><ele>143.4</ele><time>2026-04-19T16:55:16Z</time></trkpt><trkpt lat="38.02724766767383" lon="-1.1807230061031342"><ele>143.20000000000002</ele><time>2026-04-19T16:55:17Z</time></trkpt><trkpt lat="38.02715740067394" lon="-1.1807699310196456"><ele>143.0</ele><time>2026-04-19T16:55:18Z</time></trkpt><trkpt lat="38.02707069520122" lon="-1.1808016028550514"><ele>142.0</ele><time>2026-04-19T16:55:19Z</time></trkpt><trkpt lat="38.026965706710094" lon="-1.1808206152258578"><ele>141.0</ele><time>2026-04-19T16:55:20Z</time></trkpt><trkpt lat="38.02684198359245" lon="-1.1808405730552438"><ele>140.0</ele><time>2026-04-19T16:55:21Z</time></trkpt><trkpt lat="38.02675435483342" lon="-1.180870224464452"><ele>139.0</ele><time>2026-04-19T16:55:22Z</time></trkpt><trkpt lat="38.02668817749586" lon="-1.1809177293509452"><ele>138.0</ele><time>2026-04-19T16:55:23Z</time></trkpt><trkpt lat="38.02665079703119" lon="-1.1809821551448265"><ele>137.83333333333334</ele><time>2026-04-19T16:55:24Z</time></trkpt><trkpt lat="38.026628595343134" lon="-1.181060027849963"><ele>137.66666666666666</ele><time>2026-04-19T16:55:25Z</time></trkpt><trkpt lat="38.02661056680742" lon="-1.181162163262106"><ele>137.5</ele><time>2026-04-19T16:55:26Z</time></trkpt><trkpt lat="38.02660007983473" lon="-1.181285803769818"><ele>137.33333333333331</ele><time>2026-04-19T16:55:27Z</time></trkpt><trkpt lat="38.02660051831274" lon="-1.1814182488415095"><ele>137.16666666666666</ele><time>2026-04-19T16:55:28Z</time></trkpt><trkpt lat="38.0266003702192" lon="-1.1815286263522384"><ele>137.0</ele><time>2026-04-19T16:55:29Z</time></trkpt><trkpt lat="38.026594343057084" lon="-1.181610311529613"><ele>137.0</ele><time>2026-04-19T16:55:30Z</time></trkpt><trkpt lat="38.026583372833855" lon="-1.1817168816813584"><ele>137.0</ele><time>2026-04-19T16:55:32Z</time></trkpt><trkpt lat="38.02651576101516" lon="-1.1817989369795454"><ele>137.0</ele><time>2026-04-19T16:55:34Z</time></trkpt><trkpt lat="38.02641480291188" lon="-1.181848418782768"><ele>137.0</ele><time>2026-04-19T16:55:36Z</time></trkpt><trkpt lat="38.02631592700112" lon="-1.1819511862553256"><ele>137.0</ele><time>2026-04-19T16:55:38Z</time></trkpt><trkpt lat="38.02623267849892" lon="-1.1820589796177325"><ele>137.0</ele><time>2026-04-19T16:55:40Z</time></trkpt><trkpt lat="38.026186684704946" lon="-1.1821270177723544"><ele>137.0</ele><time>2026-04-19T16:55:41Z</time></trkpt><trkpt lat="38.02613003165836" lon="-1.1821824697141232"><ele>137.0</ele><time>2026-04-19T16:55:42Z</time></trkpt><trkpt lat="38.02608575163523" lon="-1.1822448475539704"><ele>137.0</ele><time>2026-04-19T16:55:43Z</time></trkpt><trkpt lat="38.02601731207751" lon="-1.1823722516914825"><ele>137.0</ele><time>2026-04-19T16:55:45Z</time></trkpt><trkpt lat="38.02591561743551" lon="-1.182505917798879"><ele>136.0</ele><time>2026-04-19T16:55:47Z</time></trkpt><trkpt lat="38.025875288229834" lon="-1.1825847930284183"><ele>135.0</ele><time>2026-04-19T16:55:48Z</time></trkpt><trkpt lat="38.02583836512677" lon="-1.182678106053532"><ele>134.0</ele><time>2026-04-19T16:55:49Z</time></trkpt><trkpt lat="38.02581541682744" lon="-1.1827625947093385"><ele>133.0</ele><time>2026-04-19T16:55:50Z</time></trkpt><trkpt lat="38.02577335755333" lon="-1.182906675220481"><ele>132.0</ele><time>2026-04-19T16:55:52Z</time></trkpt><trkpt lat="38.0257559677158" lon="-1.1830128740309043"><ele>131.0</ele><time>2026-04-19T16:55:53Z</time></trkpt><trkpt lat="38.02568998889474" lon="-1.183139610408909"><ele>132.8</ele><time>2026-04-19T16:55:55Z</time></trkpt><trkpt lat="38.02561712453443" lon="-1.1832404029465062"><ele>134.6</ele><time>2026-04-19T16:55:57Z</time></trkpt><trkpt lat="38.02561019785376" lon="-1.1833308257010344"><ele>136.4</ele><time>2026-04-19T16:55:58Z</time></trkpt><trkpt lat="38.02558826564618" lon="-1.1834456550012529"><ele>138.2</ele><time>2026-04-19T16:56:00Z</time></trkpt><trkpt lat="38.025610399635156" lon="-1.1835339494862251"><ele>140.0</ele><time>2026-04-19T16:56:01Z</time></trkpt><trkpt lat="38.02561176686841" lon="-1.1836750458341139"><ele>140.0</ele><time>2026-04-19T16:56:03Z</time></trkpt><trkpt lat="38.02564604663108" lon="-1.1837678022281346"><ele>140.0</ele><time>2026-04-19T16:56:04Z</time></trkpt><trkpt lat="38.02567381207029" lon="-1.1838508838806803"><ele>140.0</ele><time>2026-04-19T16:56:05Z</time></trkpt><trkpt lat="38.02569752514939" lon="-1.1839312701794613"><ele>140.0</ele><time>2026-04-19T16:56:06Z</time></trkpt><trkpt lat="38.02571708831183" lon="-1.1841058593876526"><ele>140.0</ele><time>2026-04-19T16:56:08Z</time></trkpt><trkpt lat="38.02573377039457" lon="-1.1842061722125021"><ele>140.0</ele><time>2026-04-19T16:56:09Z</time></trkpt><trkpt lat="38.02575620935329" lon="-1.1842986002680487"><ele>139.66666666666666</ele><time>2026-04-19T16:56:10Z</time></trkpt><trkpt lat="38.0257943821738" lon="-1.184389165846718"><ele>139.33333333333331</ele><time>2026-04-19T16:56:11Z</time></trkpt><trkpt lat="38.02582324333868" lon="-1.1844871476952785"><ele>139.0</ele><time>2026-04-19T16:56:12Z</time></trkpt><trkpt lat="38.025849204950404" lon="-1.1845837465822562"><ele>138.66666666666666</ele><time>2026-04-19T16:56:13Z</time></trkpt><trkpt lat="38.02587883876078" lon="-1.1846775106753775"><ele>138.33333333333334</ele><time>2026-04-19T16:56:14Z</time></trkpt><trkpt lat="38.025908442419166" lon="-1.184765419938622"><ele>138.0</ele><time>2026-04-19T16:56:15Z</time></trkpt><trkpt lat="38.0259315787061" lon="-1.1848472990568097"><ele>136.33333333333334</ele><time>2026-04-19T16:56:16Z</time></trkpt><trkpt lat="38.02598258586467" lon="-1.1849733313151"><ele>134.66666666666666</ele><time>2026-04-19T16:56:18Z</time></trkpt><trkpt lat="38.02599643000384" lon="-1.1850518959717253"><ele>133.0</ele><time>2026-04-19T16:56:19Z</time></trkpt><trkpt lat="38.02604421028185" lon="-1.1851833544236634"><ele>131.33333333333331</ele><time>2026-04-19T16:56:21Z</time></trkpt><trkpt lat="38.02603469474453" lon="-1.1852693448916998"><ele>129.66666666666666</ele><time>2026-04-19T16:56:46Z</time></trkpt><trkpt lat="38.02597081203743" lon="-1.1853347388084425"><ele>128.0</ele><time>2026-04-19T16:56:51Z</time></trkpt><trkpt lat="38.02591116448364" lon="-1.1854124938300323"><ele>128.0</ele><time>2026-04-19T16:56:54.021Z</time></trkpt><trkpt lat="38.02585468141104" lon="-1.1854762386873263"><ele>127.99999999999999</ele><time>2026-04-19T16:56:56.026Z</time></trkpt><trkpt lat="38.02578870530576" lon="-1.185476674238361"><ele>128.0</ele><time>2026-04-19T16:56:58Z</time></trkpt><trkpt lat="38.02572830887207" lon="-1.1855391182357677"><ele>128.0</ele><time>2026-04-19T16:56:59Z</time></trkpt><trkpt lat="38.0256597345254" lon="-1.185575071155933"><ele>127.99999999999999</ele><time>2026-04-19T16:57:01Z</time></trkpt><trkpt lat="38.025593038927205" lon="-1.1856514529091575"><ele>128.0</ele><time>2026-04-19T16:57:13Z</time></trkpt><trkpt lat="38.02556794200017" lon="-1.1857278435265675"><ele>128.0</ele><time>2026-04-19T16:57:52Z</time></trkpt><trkpt lat="38.02550967601334" lon="-1.1857944854868816"><ele>128.33333333333331</ele><time>2026-04-19T16:57:55Z</time></trkpt><trkpt lat="38.025443736242124" lon="-1.1857657476448502"><ele>128.66666666666666</ele><time>2026-04-19T16:57:58Z</time></trkpt><trkpt lat="38.02536719810841" lon="-1.185792092851385"><ele>129.0</ele><time>2026-04-19T16:58:32Z</time></trkpt><trkpt lat="38.02530577980059" lon="-1.1858428353018873"><ele>129.33333333333334</ele><time>2026-04-19T16:58:34Z</time></trkpt><trkpt lat="38.025256757064675" lon="-1.1859053228464673"><ele>129.66666666666669</ele><time>2026-04-19T16:58:36Z</time></trkpt><trkpt lat="38.025263138400135" lon="-1.1859945433852686"><ele>130.0</ele><time>2026-04-19T16:58:38Z</time></trkpt><trkpt lat="38.02529027471188" lon="-1.186108118698812"><ele>130.0</ele><time>2026-04-19T16:58:40Z</time></trkpt><trkpt lat="38.02534308461862" lon="-1.1862151784768564"><ele>130.0</ele><time>2026-04-19T16:58:42Z</time></trkpt><trkpt lat="38.02538533919631" lon="-1.186275337085554"><ele>130.0</ele><time>2026-04-19T16:58:43Z</time></trkpt><trkpt lat="38.025419044875576" lon="-1.186359747718637"><ele>130.0</ele><time>2026-04-19T16:58:45Z</time></trkpt><trkpt lat="38.02535319170095" lon="-1.1864406059455461"><ele>130.0</ele><time>2026-04-19T16:58:48Z</time></trkpt><trkpt lat="38.025271312563504" lon="-1.1864767488986736"><ele>130.0</ele><time>2026-04-19T16:58:50Z</time></trkpt><trkpt lat="38.02520446098085" lon="-1.186484493639545"><ele>130.0</ele><time>2026-04-19T16:58:52Z</time></trkpt><trkpt lat="38.025132423694274" lon="-1.186483477366773"><ele>130.0</ele><time>2026-04-19T16:58:54Z</time></trkpt><trkpt lat="38.02506204277221" lon="-1.1865531163152414"><ele>130.0</ele><time>2026-04-19T16:58:56Z</time></trkpt><trkpt lat="38.02500768235815" lon="-1.1866640336286183"><ele>130.0</ele><time>2026-04-19T16:58:58Z</time></trkpt><trkpt lat="38.02496875710405" lon="-1.1867322482196938"><ele>130.0</ele><time>2026-04-19T16:58:59Z</time></trkpt><trkpt lat="38.024930519907336" lon="-1.1868339519550055"><ele>130.0</ele><time>2026-04-19T16:59:01Z</time></trkpt><trkpt lat="38.02496642755382" lon="-1.186953115024733"><ele>129.83333333333334</ele><time>2026-04-19T16:59:03Z</time></trkpt><trkpt lat="38.024973951105686" lon="-1.1870338532404705"><ele>129.66666666666669</ele><time>2026-04-19T16:59:04Z</time></trkpt><trkpt lat="38.02493857596571" lon="-1.1871679797169492"><ele>129.5</ele><time>2026-04-19T16:59:06Z</time></trkpt><trkpt lat="38.0249015189432" lon="-1.187296421667301"><ele>129.33333333333334</ele><time>2026-04-19T16:59:08Z</time></trkpt><trkpt lat="38.02491158876018" lon="-1.1873816227078255"><ele>129.16666666666666</ele><time>2026-04-19T16:59:09Z</time></trkpt><trkpt lat="38.02489220716063" lon="-1.187471954172228"><ele>129.0</ele><time>2026-04-19T16:59:10Z</time></trkpt><trkpt lat="38.02486386906834" lon="-1.187562474712406"><ele>128.57142857142856</ele><time>2026-04-19T16:59:11Z</time></trkpt><trkpt lat="38.02483778127488" lon="-1.1876460625459526"><ele>128.14285714285714</ele><time>2026-04-19T16:59:12Z</time></trkpt><trkpt lat="38.0248088706773" lon="-1.1877213789981549"><ele>127.71428571428571</ele><time>2026-04-19T16:59:13Z</time></trkpt><trkpt lat="38.0247832137268" lon="-1.187808297102707"><ele>127.28571428571428</ele><time>2026-04-19T16:59:14Z</time></trkpt><trkpt lat="38.02476044729788" lon="-1.1878919196960889"><ele>126.85714285714286</ele><time>2026-04-19T16:59:15Z</time></trkpt><trkpt lat="38.02469957378901" lon="-1.1879465910227474"><ele>126.42857142857143</ele><time>2026-04-19T16:59:17Z</time></trkpt><trkpt lat="38.02464759493695" lon="-1.1878991521543156"><ele>126.0</ele><time>2026-04-19T16:59:34Z</time></trkpt><trkpt lat="38.02456963488989" lon="-1.1878745733770875"><ele>126.0</ele><time>2026-04-19T16:59:36Z</time></trkpt><trkpt lat="38.02455325023443" lon="-1.1879685011812846"><ele>126.0</ele><time>2026-04-19T16:59:38Z</time></trkpt><trkpt lat="38.02461583013944" lon="-1.1880776430482132"><ele>126.0</ele><time>2026-04-19T16:59:40Z</time></trkpt><trkpt lat="38.024634869979685" lon="-1.1881762621384484"><ele>126.0</ele><time>2026-04-19T16:59:41Z</time></trkpt><trkpt lat="38.024612549716664" lon="-1.188278628350323"><ele>126.0</ele><time>2026-04-19T16:59:43Z</time></trkpt><trkpt lat="38.02453971135548" lon="-1.1883391886499546"><ele>126.0</ele><time>2026-04-19T16:59:45Z</time></trkpt><trkpt lat="38.024521134783136" lon="-1.1884597862101451"><ele>124.4</ele><time>2026-04-19T16:59:47Z</time></trkpt><trkpt lat="38.02454315738606" lon="-1.1885767213238791"><ele>122.8</ele><time>2026-04-19T16:59:49Z</time></trkpt><trkpt lat="38.02461500892578" lon="-1.1886380568369947"><ele>121.20000000000002</ele><time>2026-04-19T16:59:51Z</time></trkpt><trkpt lat="38.02469966924229" lon="-1.1886460329034243"><ele>119.60000000000001</ele><time>2026-04-19T16:59:52Z</time></trkpt><trkpt lat="38.02481031150913" lon="-1.1886581942214418"><ele>118.0</ele><time>2026-04-19T16:59:53Z</time></trkpt><trkpt lat="38.02490360628832" lon="-1.1886870027768577"><ele>118.00000000000001</ele><time>2026-04-19T16:59:54Z</time></trkpt><trkpt lat="38.024970278814315" lon="-1.1887360347657265"><ele>118.0</ele><time>2026-04-19T16:59:56Z</time></trkpt><trkpt lat="38.02493336031139" lon="-1.1888248252194555"><ele>118.0</ele><time>2026-04-19T16:59:58Z</time></trkpt><trkpt lat="38.024874290081506" lon="-1.1889054166749515"><ele>118.0</ele><time>2026-04-19T16:59:59Z</time></trkpt><trkpt lat="38.02481745981875" lon="-1.1889750310416451"><ele>118.00000000000001</ele><time>2026-04-19T17:00:00Z</time></trkpt><trkpt lat="38.024705783623496" lon="-1.188997693763402"><ele>118.0</ele><time>2026-04-19T17:00:02Z</time></trkpt><trkpt lat="38.02462009455491" lon="-1.189029866347341"><ele>117.80000000000001</ele><time>2026-04-19T17:00:03Z</time></trkpt><trkpt lat="38.02452736350041" lon="-1.189088971386334"><ele>117.60000000000001</ele><time>2026-04-19T17:00:04Z</time></trkpt><trkpt lat="38.024421459854395" lon="-1.189130966667464"><ele>117.39999999999999</ele><time>2026-04-19T17:00:05Z</time></trkpt><trkpt lat="38.024351220812065" lon="-1.189151105599953"><ele>117.19999999999999</ele><time>2026-04-19T17:00:06Z</time></trkpt><trkpt lat="38.02424082488413" lon="-1.1891510656955238"><ele>117.0</ele><time>2026-04-19T17:00:08Z</time></trkpt><trkpt lat="38.02416789309209" lon="-1.189195671155504"><ele>117.0</ele><time>2026-04-19T17:00:10Z</time></trkpt><trkpt lat="38.02417563793439" lon="-1.1892815037159992"><ele>117.0</ele><time>2026-04-19T17:00:12Z</time></trkpt><trkpt lat="38.02426343860634" lon="-1.1893692259086512"><ele>117.0</ele><time>2026-04-19T17:00:14Z</time></trkpt><trkpt lat="38.0243237863703" lon="-1.189413637622452"><ele>117.0</ele><time>2026-04-19T17:00:15Z</time></trkpt><trkpt lat="38.024392509595266" lon="-1.1894871415435704"><ele>117.0</ele><time>2026-04-19T17:00:17Z</time></trkpt><trkpt lat="38.02442568981205" lon="-1.1895698087807385"><ele>117.0</ele><time>2026-04-19T17:00:19Z</time></trkpt><trkpt lat="38.024448378394986" lon="-1.1896601073172102"><ele>117.0</ele><time>2026-04-19T17:00:21Z</time></trkpt><trkpt lat="38.024450375378095" lon="-1.1897527732106796"><ele>117.0</ele><time>2026-04-19T17:00:24Z</time></trkpt><trkpt lat="38.02438035365365" lon="-1.1897584858226444"><ele>117.0</ele><time>2026-04-19T17:00:29Z</time></trkpt><trkpt lat="38.0243254572183" lon="-1.1898048269092907"><ele>117.0</ele><time>2026-04-19T17:00:32Z</time></trkpt><trkpt lat="38.02422065124322" lon="-1.189779017694878"><ele>117.0</ele><time>2026-04-19T17:00:35Z</time></trkpt><trkpt lat="38.02416944229133" lon="-1.1897107110794698"><ele>117.0</ele><time>2026-04-19T17:00:38Z</time></trkpt><trkpt lat="38.024151332630815" lon="-1.189602867258999"><ele>117.33333333333333</ele><time>2026-04-19T17:00:41Z</time></trkpt><trkpt lat="38.0241416614436" lon="-1.1895048736059832"><ele>117.66666666666666</ele><time>2026-04-19T17:00:43Z</time></trkpt><trkpt lat="38.024094917065405" lon="-1.1894046639245999"><ele>118.0</ele><time>2026-04-19T17:00:44Z</time></trkpt><trkpt lat="38.02402878675276" lon="-1.1893308111924408"><ele>118.33333333333333</ele><time>2026-04-19T17:00:45Z</time></trkpt><trkpt lat="38.02398101463397" lon="-1.1892576192156243"><ele>118.66666666666666</ele><time>2026-04-19T17:00:46Z</time></trkpt><trkpt lat="38.023883669554316" lon="-1.1891782673094182"><ele>119.0</ele><time>2026-04-19T17:00:48Z</time></trkpt><trkpt lat="38.02378788162675" lon="-1.1892571112519081"><ele>119.0</ele><time>2026-04-19T17:00:50Z</time></trkpt><trkpt lat="38.023723859903555" lon="-1.1893226044742062"><ele>119.0</ele><time>2026-04-19T17:00:51Z</time></trkpt><trkpt lat="38.02367551251403" lon="-1.189382217481837"><ele>119.0</ele><time>2026-04-19T17:00:52Z</time></trkpt><trkpt lat="38.02360176053708" lon="-1.1894891222587014"><ele>119.0</ele><time>2026-04-19T17:00:54Z</time></trkpt><trkpt lat="38.02347088008016" lon="-1.1895282631575144"><ele>119.0</ele><time>2026-04-19T17:00:56Z</time></trkpt><trkpt lat="38.023394436728594" lon="-1.189536511226518"><ele>118.99999999999999</ele><time>2026-04-19T17:00:57Z</time></trkpt><trkpt lat="38.02333022639566" lon="-1.189554438950177"><ele>119.0</ele><time>2026-04-19T17:00:58Z</time></trkpt><trkpt lat="38.02326918821822" lon="-1.189582291779517"><ele>119.0</ele><time>2026-04-19T17:00:59Z</time></trkpt><trkpt lat="38.02318001571789" lon="-1.1896776984963873"><ele>119.0</ele><time>2026-04-19T17:01:01Z</time></trkpt><trkpt lat="38.02313747896025" lon="-1.1897725251661846"><ele>118.99999999999999</ele><time>2026-04-19T17:01:02Z</time></trkpt><trkpt lat="38.023083357389574" lon="-1.1899025936082304"><ele>119.0</ele><time>2026-04-19T17:01:03Z</time></trkpt><trkpt lat="38.02302733480729" lon="-1.1900042299319584"><ele>117.66666666666666</ele><time>2026-04-19T17:01:04Z</time></trkpt><trkpt lat="38.02297181530511" lon="-1.190088110264354"><ele>116.33333333333333</ele><time>2026-04-19T17:01:05Z</time></trkpt><trkpt lat="38.022911575358556" lon="-1.1901599549590973"><ele>115.0</ele><time>2026-04-19T17:01:06Z</time></trkpt><trkpt lat="38.02284741559461" lon="-1.1902223758719035"><ele>113.66666666666666</ele><time>2026-04-19T17:01:07Z</time></trkpt><trkpt lat="38.02277785684654" lon="-1.1902698015490216"><ele>112.33333333333333</ele><time>2026-04-19T17:01:08Z</time></trkpt><trkpt lat="38.02270688660862" lon="-1.1903106851884901"><ele>111.0</ele><time>2026-04-19T17:01:09Z</time></trkpt><trkpt lat="38.02265086310751" lon="-1.1903630072932154"><ele>111.0</ele><time>2026-04-19T17:01:10Z</time></trkpt><trkpt lat="38.022603395072295" lon="-1.1904924611089907"><ele>111.0</ele><time>2026-04-19T17:01:12Z</time></trkpt><trkpt lat="38.02260073292689" lon="-1.190576799669641"><ele>111.0</ele><time>2026-04-19T17:01:13Z</time></trkpt><trkpt lat="38.02263965122848" lon="-1.1907255361586095"><ele>111.0</ele><time>2026-04-19T17:01:15Z</time></trkpt><trkpt lat="38.02268016523335" lon="-1.1908400192770534"><ele>111.0</ele><time>2026-04-19T17:01:17Z</time></trkpt><trkpt lat="38.02268549969605" lon="-1.1909401415428391"><ele>110.33333333333333</ele><time>2026-04-19T17:01:19Z</time></trkpt><trkpt lat="38.022717050270714" lon="-1.1910350149869642"><ele>109.66666666666666</ele><time>2026-04-19T17:01:21Z</time></trkpt><trkpt lat="38.022633236664575" lon="-1.191161689060434"><ele>109.0</ele><time>2026-04-19T17:01:23Z</time></trkpt><trkpt lat="38.02257637856148" lon="-1.1912294589710497"><ele>108.33333333333333</ele><time>2026-04-19T17:01:24Z</time></trkpt><trkpt lat="38.022520755893495" lon="-1.1913116342984524"><ele>107.66666666666666</ele><time>2026-04-19T17:01:25Z</time></trkpt><trkpt lat="38.02248898836787" lon="-1.1913809150466532"><ele>107.0</ele><time>2026-04-19T17:01:26Z</time></trkpt><trkpt lat="38.022455677445386" lon="-1.1914634353865685"><ele>106.6</ele><time>2026-04-19T17:01:29Z</time></trkpt><trkpt lat="38.022382229506206" lon="-1.191481560711376"><ele>106.19999999999999</ele><time>2026-04-19T17:01:31Z</time></trkpt><trkpt lat="38.02223562007338" lon="-1.1914190599689725"><ele>105.8</ele><time>2026-04-19T17:01:35Z</time></trkpt><trkpt lat="38.02214319049904" lon="-1.1913682168995896"><ele>105.4</ele><time>2026-04-19T17:01:37Z</time></trkpt><trkpt lat="38.02206159711312" lon="-1.1914020875710005"><ele>105.0</ele><time>2026-04-19T17:01:46Z</time></trkpt><trkpt lat="38.021999284780115" lon="-1.1914434538574463"><ele>105.0</ele><time>2026-04-19T17:01:49Z</time></trkpt><trkpt lat="38.02192028543049" lon="-1.1914536121472523"><ele>105.0</ele><time>2026-04-19T17:01:53Z</time></trkpt><trkpt lat="38.021883132396425" lon="-1.1915324856195648"><ele>105.0</ele><time>2026-04-19T17:01:57Z</time></trkpt><trkpt lat="38.021876578686886" lon="-1.191620502671593"><ele>105.0</ele><time>2026-04-19T17:02:00Z</time></trkpt><trkpt lat="38.02188531993913" lon="-1.1917040510284345"><ele>105.0</ele><time>2026-04-19T17:02:05Z</time></trkpt><trkpt lat="38.02185858791362" lon="-1.1917910337394448"><ele>105.0</ele><time>2026-04-19T17:02:07Z</time></trkpt><trkpt lat="38.02184706335033" lon="-1.1919012606680466"><ele>105.0</ele><time>2026-04-19T17:02:10Z</time></trkpt><trkpt lat="38.02186926175719" lon="-1.1919835602945463"><ele>105.28571428571429</ele><time>2026-04-19T17:02:14Z</time></trkpt><trkpt lat="38.02188834181569" lon="-1.1920638844647142"><ele>105.57142857142857</ele><time>2026-04-19T17:02:25Z</time></trkpt><trkpt lat="38.021898025799395" lon="-1.1921523540959522"><ele>105.85714285714286</ele><time>2026-04-19T17:02:45Z</time></trkpt><trkpt lat="38.02193188709077" lon="-1.1922515378460588"><ele>106.14285714285714</ele><time>2026-04-19T17:03:43Z</time></trkpt><trkpt lat="38.02196562703443" lon="-1.1923400839562313"><ele>106.42857142857143</ele><time>2026-04-19T17:03:49Z</time></trkpt><trkpt lat="38.02198148112251" lon="-1.1924243593281711"><ele>106.71428571428572</ele><time>2026-04-19T17:04:01Z</time></trkpt><trkpt lat="38.02195307855222" lon="-1.1925037165790127"><ele>107.0</ele><time>2026-04-19T17:04:18Z</time></trkpt><trkpt lat="38.02190777643134" lon="-1.1925594523429972"><ele>107.00000000000001</ele><time>2026-04-19T17:04:22Z</time></trkpt><trkpt lat="38.0218547254714" lon="-1.1926169177036745"><ele>107.0</ele><time>2026-04-19T17:04:25Z</time></trkpt><trkpt lat="38.0218214371524" lon="-1.1926977761641353"><ele>107.0</ele><time>2026-04-19T17:04:32Z</time></trkpt><trkpt lat="38.021765784272716" lon="-1.1927782052711624"><ele>107.0</ele><time>2026-04-19T17:04:36Z</time></trkpt><trkpt lat="38.02171568102864" lon="-1.1928626702877965"><ele>107.0</ele><time>2026-04-19T17:05:25Z</time></trkpt><trkpt lat="38.021652826966715" lon="-1.1928679548906689"><ele>107.00000000000001</ele><time>2026-04-19T17:05:30Z</time></trkpt><trkpt lat="38.021626955439615" lon="-1.1927931893276058"><ele>107.0</ele><time>2026-04-19T17:06:42Z</time></trkpt><trkpt lat="38.02164151911873" lon="-1.1928811567119584"><ele>109.83333333333333</ele><time>2026-04-19T17:07:00Z</time></trkpt><trkpt lat="38.0216178819872" lon="-1.1927699864814005"><ele>112.66666666666666</ele><time>2026-04-19T17:09:55Z</time></trkpt><trkpt lat="38.02161832163735" lon="-1.1926832160267125"><ele>115.5</ele><time>2026-04-19T17:10:03Z</time></trkpt><trkpt lat="38.02153043652577" lon="-1.1926706784584908"><ele>118.33333333333334</ele><time>2026-04-19T17:10:15Z</time></trkpt><trkpt lat="38.021611859089276" lon="-1.1926696025332693"><ele>121.16666666666667</ele><time>2026-04-19T17:18:36Z</time></trkpt><trkpt lat="38.021619511735885" lon="-1.1927617906195538"><ele>124.0</ele><time>2026-04-19T17:18:53Z</time></trkpt><trkpt lat="38.02163827996558" lon="-1.1928399936899063"><ele>121.57142857142858</ele><time>2026-04-19T17:19:07Z</time></trkpt><trkpt lat="38.021698587644174" lon="-1.1928844082825807"><ele>119.14285714285715</ele><time>2026-04-19T17:19:53Z</time></trkpt><trkpt lat="38.02175344524835" lon="-1.192824943704838"><ele>116.71428571428572</ele><time>2026-04-19T17:20:24Z</time></trkpt><trkpt lat="38.02179052702252" lon="-1.1927535251484105"><ele>114.28571428571429</ele><time>2026-04-19T17:20:34Z</time></trkpt><trkpt lat="38.02182982879566" lon="-1.1926757909334187"><ele>111.85714285714286</ele><time>2026-04-19T17:20:39Z</time></trkpt><trkpt lat="38.02187545689389" lon="-1.192597429857208"><ele>109.42857142857144</ele><time>2026-04-19T17:20:43Z</time></trkpt><trkpt lat="38.021938365610445" lon="-1.1925308980036626"><ele>107.0</ele><time>2026-04-19T17:20:47Z</time></trkpt><trkpt lat="38.02196730194367" lon="-1.1924366716182129"><ele>106.99999999999999</ele><time>2026-04-19T17:20:52Z</time></trkpt><trkpt lat="38.021946054599866" lon="-1.1923475840340514"><ele>107.0</ele><time>2026-04-19T17:21:02Z</time></trkpt><trkpt lat="38.02193230393512" lon="-1.1922565822307474"><ele>107.0</ele><time>2026-04-19T17:21:20Z</time></trkpt><trkpt lat="38.02190223275807" lon="-1.1921745061564943"><ele>107.0</ele><time>2026-04-19T17:21:25Z</time></trkpt><trkpt lat="38.02189141788425" lon="-1.1920892379514436"><ele>106.99999999999999</ele><time>2026-04-19T17:22:25Z</time></trkpt><trkpt lat="38.021887417481295" lon="-1.1920062253880448"><ele>107.0</ele><time>2026-04-19T17:22:31Z</time></trkpt><trkpt lat="38.02187399512385" lon="-1.191871199714513"><ele>106.71428571428572</ele><time>2026-04-19T17:27:10Z</time></trkpt><trkpt lat="38.02189262586464" lon="-1.1917807071192665"><ele>106.42857142857143</ele><time>2026-04-19T17:27:12Z</time></trkpt><trkpt lat="38.02187860404221" lon="-1.1916985594454752"><ele>106.14285714285714</ele><time>2026-04-19T17:27:21Z</time></trkpt><trkpt lat="38.02188033469629" lon="-1.1916030369948396"><ele>105.85714285714286</ele><time>2026-04-19T17:27:28Z</time></trkpt><trkpt lat="38.02187665810603" lon="-1.1915231351001299"><ele>105.57142857142857</ele><time>2026-04-19T17:27:36Z</time></trkpt><trkpt lat="38.021924341347976" lon="-1.1914639028965712"><ele>105.28571428571429</ele><time>2026-04-19T17:27:39Z</time></trkpt><trkpt lat="38.021991327401444" lon="-1.1914540554534163"><ele>105.0</ele><time>2026-04-19T17:27:43Z</time></trkpt><trkpt lat="38.02204645159312" lon="-1.1913941846172174"><ele>105.0</ele><time>2026-04-19T17:27:46Z</time></trkpt><trkpt lat="38.02213094163333" lon="-1.1914007139192395"><ele>105.0</ele><time>2026-04-19T17:27:48Z</time></trkpt><trkpt lat="38.02221364458029" lon="-1.1914891727064454"><ele>105.0</ele><time>2026-04-19T17:27:50Z</time></trkpt><trkpt lat="38.02231675405745" lon="-1.191508519995088"><ele>105.0</ele><time>2026-04-19T17:27:52Z</time></trkpt><trkpt lat="38.022414364324106" lon="-1.1914635245763294"><ele>105.0</ele><time>2026-04-19T17:27:54Z</time></trkpt><trkpt lat="38.02251656936106" lon="-1.1915022586682382"><ele>104.66666666666667</ele><time>2026-04-19T17:27:56Z</time></trkpt><trkpt lat="38.02257581006216" lon="-1.191551860811258"><ele>104.33333333333334</ele><time>2026-04-19T17:27:57Z</time></trkpt><trkpt lat="38.02263289557053" lon="-1.1916100930087572"><ele>104.0</ele><time>2026-04-19T17:27:58Z</time></trkpt><trkpt lat="38.02269682544714" lon="-1.191676455034076"><ele>103.66666666666667</ele><time>2026-04-19T17:27:59Z</time></trkpt><trkpt lat="38.02276256967472" lon="-1.191734263709374"><ele>103.33333333333334</ele><time>2026-04-19T17:28:00Z</time></trkpt><trkpt lat="38.0228341125078" lon="-1.1917815117504817"><ele>103.0</ele><time>2026-04-19T17:28:01Z</time></trkpt><trkpt lat="38.02290650584592" lon="-1.191833286953773"><ele>103.00000000000001</ele><time>2026-04-19T17:28:02Z</time></trkpt><trkpt lat="38.02297924261233" lon="-1.191893484166404"><ele>103.0</ele><time>2026-04-19T17:28:03Z</time></trkpt><trkpt lat="38.023051231287525" lon="-1.191945806808404"><ele>103.0</ele><time>2026-04-19T17:28:04Z</time></trkpt><trkpt lat="38.02311984602993" lon="-1.1920028679692314"><ele>103.0</ele><time>2026-04-19T17:28:05Z</time></trkpt><trkpt lat="38.02318425581767" lon="-1.1920648126704976"><ele>103.00000000000001</ele><time>2026-04-19T17:28:06Z</time></trkpt><trkpt lat="38.02324384370949" lon="-1.192125401536639"><ele>103.0</ele><time>2026-04-19T17:28:07Z</time></trkpt><trkpt lat="38.02329854056463" lon="-1.192182801559067"><ele>104.50000000000001</ele><time>2026-04-19T17:28:09Z</time></trkpt><trkpt lat="38.023360784954065" lon="-1.1922672554810985"><ele>106.0</ele><time>2026-04-19T17:28:13Z</time></trkpt><trkpt lat="38.02340255185422" lon="-1.192327951319154"><ele>107.5</ele><time>2026-04-19T17:28:16Z</time></trkpt><trkpt lat="38.02340820463982" lon="-1.192417133391696"><ele>109.0</ele><time>2026-04-19T17:28:22Z</time></trkpt><trkpt lat="38.023327242712114" lon="-1.1924406144339355"><ele>110.50000000000001</ele><time>2026-04-19T17:28:25Z</time></trkpt><trkpt lat="38.023318867390714" lon="-1.1925489111565817"><ele>112.0</ele><time>2026-04-19T17:28:28Z</time></trkpt><trkpt lat="38.0233284293154" lon="-1.1926385337482328"><ele>112.0</ele><time>2026-04-19T17:28:51Z</time></trkpt><trkpt lat="38.02326495185081" lon="-1.1926332687660188"><ele>111.99999999999999</ele><time>2026-04-19T17:28:53Z</time></trkpt><trkpt lat="38.02327722897228" lon="-1.192554233970575"><ele>111.99999999999999</ele><time>2026-04-19T17:28:56Z</time></trkpt><trkpt lat="38.02333933017348" lon="-1.1926744464005274"><ele>112.0</ele><time>2026-04-19T17:28:58Z</time></trkpt><trkpt lat="38.02334660805964" lon="-1.1927992880447689"><ele>112.0</ele><time>2026-04-19T17:28:59Z</time></trkpt><trkpt lat="38.0233240943246" lon="-1.1929457489962347"><ele>112.0</ele><time>2026-04-19T17:29:00Z</time></trkpt><trkpt lat="38.02330036868361" lon="-1.1930815632016705"><ele>111.99999999999999</ele><time>2026-04-19T17:29:01Z</time></trkpt><trkpt lat="38.02330076785234" lon="-1.1931973073334805"><ele>111.99999999999999</ele><time>2026-04-19T17:29:02Z</time></trkpt><trkpt lat="38.0233216169296" lon="-1.1933189942850753"><ele>112.0</ele><time>2026-04-19T17:29:03Z</time></trkpt><trkpt lat="38.02334297495644" lon="-1.193432193553797"><ele>112.0</ele><time>2026-04-19T17:29:04Z</time></trkpt><trkpt lat="38.0233679420599" lon="-1.193528318651224"><ele>112.00000000000001</ele><time>2026-04-19T17:29:05Z</time></trkpt><trkpt lat="38.02340866425188" lon="-1.1936034059080538"><ele>112.0</ele><time>2026-04-19T17:29:06Z</time></trkpt><trkpt lat="38.02346353582106" lon="-1.1936710618985016"><ele>112.0</ele><time>2026-04-19T17:29:07Z</time></trkpt><trkpt lat="38.02352901401552" lon="-1.1937520299019257"><ele>112.0</ele><time>2026-04-19T17:29:08Z</time></trkpt><trkpt lat="38.023576931145406" lon="-1.1938295037519744"><ele>112.00000000000001</ele><time>2026-04-19T17:29:09Z</time></trkpt><trkpt lat="38.02359052058723" lon="-1.19396516957254"><ele>112.0</ele><time>2026-04-19T17:29:10Z</time></trkpt><trkpt lat="38.02363013333957" lon="-1.1940788263986564"><ele>111.6</ele><time>2026-04-19T17:29:11Z</time></trkpt><trkpt lat="38.02368273762408" lon="-1.1941791895880038"><ele>111.19999999999999</ele><time>2026-04-19T17:29:12Z</time></trkpt><trkpt lat="38.023743415163985" lon="-1.1942677614780113"><ele>110.8</ele><time>2026-04-19T17:29:13Z</time></trkpt><trkpt lat="38.023808410999976" lon="-1.1943749066112763"><ele>110.4</ele><time>2026-04-19T17:29:14Z</time></trkpt><trkpt lat="38.023875413099645" lon="-1.194491564724399"><ele>110.0</ele><time>2026-04-19T17:29:15Z</time></trkpt><trkpt lat="38.02395297363901" lon="-1.1946178187938326"><ele>110.0</ele><time>2026-04-19T17:29:16Z</time></trkpt><trkpt lat="38.02401789063736" lon="-1.1947373233128253"><ele>110.0</ele><time>2026-04-19T17:29:17Z</time></trkpt><trkpt lat="38.02404784878583" lon="-1.1948644609433823"><ele>110.0</ele><time>2026-04-19T17:29:18Z</time></trkpt><trkpt lat="38.02408002880298" lon="-1.1949857988768424"><ele>110.0</ele><time>2026-04-19T17:29:19Z</time></trkpt><trkpt lat="38.024148450921345" lon="-1.1950988336935535"><ele>110.0</ele><time>2026-04-19T17:29:20Z</time></trkpt><trkpt lat="38.0242190494958" lon="-1.1952061418584148"><ele>110.2</ele><time>2026-04-19T17:29:21Z</time></trkpt><trkpt lat="38.0242920861395" lon="-1.195336589818856"><ele>110.4</ele><time>2026-04-19T17:29:22Z</time></trkpt><trkpt lat="38.02435321051257" lon="-1.1954719800066713"><ele>110.6</ele><time>2026-04-19T17:29:23Z</time></trkpt><trkpt lat="38.024402029020514" lon="-1.195587168030394"><ele>110.8</ele><time>2026-04-19T17:29:24Z</time></trkpt><trkpt lat="38.024431773295696" lon="-1.1957004290780184"><ele>111.0</ele><time>2026-04-19T17:29:25Z</time></trkpt><trkpt lat="38.024458314408356" lon="-1.1958205921804241"><ele>112.6</ele><time>2026-04-19T17:29:26Z</time></trkpt><trkpt lat="38.02449593472585" lon="-1.195931122090228"><ele>114.19999999999999</ele><time>2026-04-19T17:29:27Z</time></trkpt><trkpt lat="38.0245518487835" lon="-1.1960447087219503"><ele>115.80000000000001</ele><time>2026-04-19T17:29:28Z</time></trkpt><trkpt lat="38.024613525488505" lon="-1.196155959945753"><ele>117.4</ele><time>2026-04-19T17:29:29Z</time></trkpt><trkpt lat="38.02466859568768" lon="-1.1962664025572294"><ele>119.0</ele><time>2026-04-19T17:29:30Z</time></trkpt><trkpt lat="38.02472370286705" lon="-1.1963669573514009"><ele>119.0</ele><time>2026-04-19T17:29:31Z</time></trkpt><trkpt lat="38.02477848901771" lon="-1.196470388360534"><ele>119.0</ele><time>2026-04-19T17:29:32Z</time></trkpt><trkpt lat="38.02483050566314" lon="-1.196574010576438"><ele>119.0</ele><time>2026-04-19T17:29:33Z</time></trkpt><trkpt lat="38.02487366399549" lon="-1.196664971620171"><ele>119.0</ele><time>2026-04-19T17:29:34Z</time></trkpt><trkpt lat="38.024924273905" lon="-1.1967560272029794"><ele>119.0</ele><time>2026-04-19T17:29:35Z</time></trkpt><trkpt lat="38.024989187860285" lon="-1.1968334222079895"><ele>117.2</ele><time>2026-04-19T17:29:36Z</time></trkpt><trkpt lat="38.02503299393764" lon="-1.1969041064140367"><ele>115.4</ele><time>2026-04-19T17:29:37Z</time></trkpt><trkpt lat="38.02506436315469" lon="-1.1969994877795846"><ele>113.6</ele><time>2026-04-19T17:29:38Z</time></trkpt><trkpt lat="38.02519672428808" lon="-1.1970674743978302"><ele>111.8</ele><time>2026-04-19T17:29:39Z</time></trkpt><trkpt lat="38.025206880827476" lon="-1.1972310224976124"><ele>110.0</ele><time>2026-04-19T17:29:41Z</time></trkpt><trkpt lat="38.02521377125901" lon="-1.1973369019537083"><ele>109.49999999999999</ele><time>2026-04-19T17:29:42Z</time></trkpt><trkpt lat="38.02522118054412" lon="-1.197450754062795"><ele>109.0</ele><time>2026-04-19T17:29:43Z</time></trkpt><trkpt lat="38.02522810794508" lon="-1.1975501949701695"><ele>108.5</ele><time>2026-04-19T17:29:44Z</time></trkpt><trkpt lat="38.02523648668991" lon="-1.197660635443704"><ele>108.0</ele><time>2026-04-19T17:29:45Z</time></trkpt><trkpt lat="38.025246540365835" lon="-1.1977766201016828"><ele>107.49999999999999</ele><time>2026-04-19T17:29:46Z</time></trkpt><trkpt lat="38.025256556653005" lon="-1.1978921843131383"><ele>107.0</ele><time>2026-04-19T17:29:47Z</time></trkpt><trkpt lat="38.02526604259435" lon="-1.198001629657477"><ele>106.99999999999999</ele><time>2026-04-19T17:29:48Z</time></trkpt><trkpt lat="38.0252759349559" lon="-1.1981157640821756"><ele>107.0</ele><time>2026-04-19T17:29:49Z</time></trkpt><trkpt lat="38.02528548199604" lon="-1.1982298538553262"><ele>107.0</ele><time>2026-04-19T17:29:50Z</time></trkpt><trkpt lat="38.02529374574083" lon="-1.198338207088271"><ele>107.0</ele><time>2026-04-19T17:29:51Z</time></trkpt><trkpt lat="38.02530266661584" lon="-1.198455176416324"><ele>106.99999999999999</ele><time>2026-04-19T17:29:52Z</time></trkpt><trkpt lat="38.02531112372342" lon="-1.1985660649702747"><ele>107.0</ele><time>2026-04-19T17:29:53Z</time></trkpt><trkpt lat="38.025321443997605" lon="-1.1987013830366424"><ele>107.0</ele><time>2026-04-19T17:29:54Z</time></trkpt><trkpt lat="38.0253307766537" lon="-1.1988237517365927"><ele>106.99999999999999</ele><time>2026-04-19T17:29:55Z</time></trkpt><trkpt lat="38.025342026988746" lon="-1.1989738919407917"><ele>106.99999999999999</ele><time>2026-04-19T17:29:56Z</time></trkpt><trkpt lat="38.025350132823846" lon="-1.1991032358249611"><ele>107.0</ele><time>2026-04-19T17:29:57Z</time></trkpt><trkpt lat="38.025356914440515" lon="-1.1992315212998492"><ele>107.0</ele><time>2026-04-19T17:29:58Z</time></trkpt><trkpt lat="38.02516254176648" lon="-1.1993844236018811"><ele>106.99999999999999</ele><time>2026-04-19T17:29:59Z</time></trkpt><trkpt lat="38.025158294750895" lon="-1.1995040451961352"><ele>107.0</ele><time>2026-04-19T17:30:00Z</time></trkpt><trkpt lat="38.02515830026594" lon="-1.1996301699583394"><ele>107.0</ele><time>2026-04-19T17:30:01Z</time></trkpt><trkpt lat="38.025159467787475" lon="-1.1997310609345233"><ele>107.0</ele><time>2026-04-19T17:30:02Z</time></trkpt><trkpt lat="38.02516707440974" lon="-1.1998205427082285"><ele>106.99999999999999</ele><time>2026-04-19T17:30:03Z</time></trkpt><trkpt lat="38.02517144969215" lon="-1.1999415240593025"><ele>107.0</ele><time>2026-04-19T17:30:05Z</time></trkpt><trkpt lat="38.025342794066106" lon="-1.2000116060578838"><ele>106.0</ele><time>2026-04-19T17:30:06Z</time></trkpt><trkpt lat="38.02533366766627" lon="-1.2001013700763088"><ele>104.99999999999999</ele><time>2026-04-19T17:30:08Z</time></trkpt><trkpt lat="38.02532103631764" lon="-1.200209890384146"><ele>104.0</ele><time>2026-04-19T17:30:21Z</time></trkpt><trkpt lat="38.02529637180206" lon="-1.2003137232998637"><ele>103.0</ele><time>2026-04-19T17:30:22Z</time></trkpt><trkpt lat="38.02527645944428" lon="-1.2004395688151295"><ele>102.0</ele><time>2026-04-19T17:30:23Z</time></trkpt><trkpt lat="38.025258747360965" lon="-1.2005738662250236"><ele>101.25</ele><time>2026-04-19T17:30:24Z</time></trkpt><trkpt lat="38.02524305654257" lon="-1.2007110435694772"><ele>100.5</ele><time>2026-04-19T17:30:25Z</time></trkpt><trkpt lat="38.025217102249066" lon="-1.2008495047143126"><ele>99.75</ele><time>2026-04-19T17:30:26Z</time></trkpt><trkpt lat="38.02517884508264" lon="-1.2009975710283283"><ele>99.0</ele><time>2026-04-19T17:30:27Z</time></trkpt><trkpt lat="38.02513419045923" lon="-1.2011559937055005"><ele>99.0</ele><time>2026-04-19T17:30:28Z</time></trkpt><trkpt lat="38.02508149394438" lon="-1.201323678322714"><ele>99.0</ele><time>2026-04-19T17:30:29Z</time></trkpt><trkpt lat="38.02502996670091" lon="-1.2014836771640813"><ele>99.0</ele><time>2026-04-19T17:30:30Z</time></trkpt><trkpt lat="38.024976950818306" lon="-1.2016361000380227"><ele>99.0</ele><time>2026-04-19T17:30:31Z</time></trkpt><trkpt lat="38.024924647655915" lon="-1.201794898139899"><ele>97.25</ele><time>2026-04-19T17:30:32Z</time></trkpt><trkpt lat="38.02487320491521" lon="-1.2019475278560077"><ele>95.5</ele><time>2026-04-19T17:30:33Z</time></trkpt><trkpt lat="38.02482377275385" lon="-1.202092933555859"><ele>93.75</ele><time>2026-04-19T17:30:34Z</time></trkpt><trkpt lat="38.024779771250465" lon="-1.202222839058064"><ele>92.0</ele><time>2026-04-19T17:30:35Z</time></trkpt><trkpt lat="38.024724985780104" lon="-1.2023376300262223"><ele>90.19999999999999</ele><time>2026-04-19T17:30:36Z</time></trkpt><trkpt lat="38.02466239099383" lon="-1.2024648331206593"><ele>88.4</ele><time>2026-04-19T17:30:37Z</time></trkpt><trkpt lat="38.02458711923277" lon="-1.2025496478902997"><ele>86.6</ele><time>2026-04-19T17:30:38Z</time></trkpt><trkpt lat="38.02450610100087" lon="-1.202646403563015"><ele>84.80000000000001</ele><time>2026-04-19T17:30:39Z</time></trkpt><trkpt lat="38.024419855028114" lon="-1.202726166392855"><ele>83.0</ele><time>2026-04-19T17:30:40Z</time></trkpt><trkpt lat="38.0243466935937" lon="-1.2028195472509104"><ele>83.0</ele><time>2026-04-19T17:30:41Z</time></trkpt><trkpt lat="38.02427944734201" lon="-1.2028632562112458"><ele>83.0</ele><time>2026-04-19T17:30:42Z</time></trkpt><trkpt lat="38.024228533839434" lon="-1.2029113793284663"><ele>83.0</ele><time>2026-04-19T17:30:43Z</time></trkpt><trkpt lat="38.024198862806465" lon="-1.2030430060359738"><ele>83.0</ele><time>2026-04-19T17:30:45Z</time></trkpt><trkpt lat="38.02414635792733" lon="-1.2031627631835655"><ele>83.0</ele><time>2026-04-19T17:30:46Z</time></trkpt><trkpt lat="38.02416221238584" lon="-1.2032640005096737"><ele>83.0</ele><time>2026-04-19T17:30:47Z</time></trkpt><trkpt lat="38.02419438158792" lon="-1.2033870116752274"><ele>82.5</ele><time>2026-04-19T17:30:48Z</time></trkpt><trkpt lat="38.0242319025077" lon="-1.2035033644739277"><ele>82.0</ele><time>2026-04-19T17:30:49Z</time></trkpt><trkpt lat="38.02427907277075" lon="-1.2036105771883143"><ele>81.5</ele><time>2026-04-19T17:30:50Z</time></trkpt><trkpt lat="38.02431748729834" lon="-1.2037124588872374"><ele>81.0</ele><time>2026-04-19T17:30:51Z</time></trkpt><trkpt lat="38.02435004908975" lon="-1.2038099368335338"><ele>80.5</ele><time>2026-04-19T17:30:52Z</time></trkpt><trkpt lat="38.02435707844783" lon="-1.2039052817780744"><ele>80.0</ele><time>2026-04-19T17:30:53Z</time></trkpt><trkpt lat="38.024342227520954" lon="-1.2040098414152398"><ele>79.75</ele><time>2026-04-19T17:30:54Z</time></trkpt><trkpt lat="38.02429777815781" lon="-1.204112059523393"><ele>79.5</ele><time>2026-04-19T17:30:55Z</time></trkpt><trkpt lat="38.02422517838504" lon="-1.204230003663806"><ele>79.25</ele><time>2026-04-19T17:30:56Z</time></trkpt><trkpt lat="38.024147196437916" lon="-1.204359041419123"><ele>79.0</ele><time>2026-04-19T17:30:57Z</time></trkpt><trkpt lat="38.024083151560475" lon="-1.2044929522933454"><ele>80.5</ele><time>2026-04-19T17:30:58Z</time></trkpt><trkpt lat="38.024028897558814" lon="-1.2046503785259375"><ele>82.0</ele><time>2026-04-19T17:30:59Z</time></trkpt><trkpt lat="38.02397143530549" lon="-1.2048298170960574"><ele>83.5</ele><time>2026-04-19T17:31:00Z</time></trkpt><trkpt lat="38.023920641062816" lon="-1.205003217526046"><ele>85.0</ele><time>2026-04-19T17:31:01Z</time></trkpt><trkpt lat="38.023872339895796" lon="-1.205172172443594"><ele>85.25</ele><time>2026-04-19T17:31:02Z</time></trkpt><trkpt lat="38.02381731269457" lon="-1.2053294906095482"><ele>85.5</ele><time>2026-04-19T17:31:03Z</time></trkpt><trkpt lat="38.02375987877547" lon="-1.2054686462053577"><ele>85.75</ele><time>2026-04-19T17:31:04Z</time></trkpt><trkpt lat="38.02370397378486" lon="-1.2056047131836851"><ele>86.0</ele><time>2026-04-19T17:31:05Z</time></trkpt><trkpt lat="38.02364852373851" lon="-1.205750193159689"><ele>85.25</ele><time>2026-04-19T17:31:06Z</time></trkpt><trkpt lat="38.02358505369708" lon="-1.2059131043153075"><ele>84.5</ele><time>2026-04-19T17:31:07Z</time></trkpt><trkpt lat="38.02352880533474" lon="-1.2060630032789041"><ele>83.75</ele><time>2026-04-19T17:31:08Z</time></trkpt><trkpt lat="38.02348501287212" lon="-1.2062048784250665"><ele>83.0</ele><time>2026-04-19T17:31:09Z</time></trkpt><trkpt lat="38.02345318389923" lon="-1.2063392259388361"><ele>83.0</ele><time>2026-04-19T17:31:10Z</time></trkpt><trkpt lat="38.0234187826079" lon="-1.206470543482404"><ele>83.0</ele><time>2026-04-19T17:31:11Z</time></trkpt><trkpt lat="38.02339737327947" lon="-1.2066009273357599"><ele>83.0</ele><time>2026-04-19T17:31:12Z</time></trkpt><trkpt lat="38.02338575522593" lon="-1.2067122412478126"><ele>83.0</ele><time>2026-04-19T17:31:13Z</time></trkpt><trkpt lat="38.02339244153343" lon="-1.2068397376374826"><ele>83.0</ele><time>2026-04-19T17:31:14Z</time></trkpt><trkpt lat="38.023401327890916" lon="-1.2069523711922594"><ele>81.83333333333334</ele><time>2026-04-19T17:31:15Z</time></trkpt><trkpt lat="38.023416002507915" lon="-1.2070312824155913"><ele>80.66666666666667</ele><time>2026-04-19T17:31:17Z</time></trkpt><trkpt lat="38.02340987130594" lon="-1.207156368655185"><ele>79.5</ele><time>2026-04-19T17:31:19Z</time></trkpt><trkpt lat="38.02341128804271" lon="-1.2072379850124633"><ele>78.33333333333333</ele><time>2026-04-19T17:31:20Z</time></trkpt><trkpt lat="38.02342094583405" lon="-1.2073392995278243"><ele>77.16666666666666</ele><time>2026-04-19T17:31:21Z</time></trkpt><trkpt lat="38.02341563000832" lon="-1.2074640110159438"><ele>76.0</ele><time>2026-04-19T17:31:22Z</time></trkpt><trkpt lat="38.02342266806695" lon="-1.2075745669451174"><ele>76.0</ele><time>2026-04-19T17:31:23Z</time></trkpt><trkpt lat="38.02340398056112" lon="-1.2077039875080038"><ele>76.0</ele><time>2026-04-19T17:31:24Z</time></trkpt><trkpt lat="38.02336804214546" lon="-1.2078297532438336"><ele>76.0</ele><time>2026-04-19T17:31:25Z</time></trkpt><trkpt lat="38.02333116779501" lon="-1.207943896393787"><ele>76.0</ele><time>2026-04-19T17:31:26Z</time></trkpt><trkpt lat="38.023290863146144" lon="-1.2080495796720083"><ele>76.0</ele><time>2026-04-19T17:31:27Z</time></trkpt><trkpt lat="38.023316535326614" lon="-1.2081750223516243"><ele>75.0</ele><time>2026-04-19T17:31:28Z</time></trkpt><trkpt lat="38.023318604470134" lon="-1.208308694931181"><ele>74.0</ele><time>2026-04-19T17:31:29Z</time></trkpt><trkpt lat="38.023339702752565" lon="-1.2084198637808694"><ele>73.0</ele><time>2026-04-19T17:31:30Z</time></trkpt><trkpt lat="38.02336183239281" lon="-1.2085232529798926"><ele>72.0</ele><time>2026-04-19T17:31:31Z</time></trkpt><trkpt lat="38.02338446818502" lon="-1.2086208699592824"><ele>71.0</ele><time>2026-04-19T17:31:32Z</time></trkpt><trkpt lat="38.02340955831089" lon="-1.2087055874885961"><ele>70.0</ele><time>2026-04-19T17:31:33Z</time></trkpt><trkpt lat="38.023445536923546" lon="-1.2087807479681723"><ele>70.0</ele><time>2026-04-19T17:31:35Z</time></trkpt><trkpt lat="38.023471407541614" lon="-1.2088751509722484"><ele>70.0</ele><time>2026-04-19T17:31:38Z</time></trkpt><trkpt lat="38.023347165303065" lon="-1.2090549019227397"><ele>70.0</ele><time>2026-04-19T17:31:40Z</time></trkpt><trkpt lat="38.02326170024901" lon="-1.2091260869627434"><ele>70.0</ele><time>2026-04-19T17:31:42Z</time></trkpt><trkpt lat="38.02320342455969" lon="-1.2091759626174592"><ele>70.0</ele><time>2026-04-19T17:31:44Z</time></trkpt><trkpt lat="38.02313302086064" lon="-1.2092369137495034"><ele>70.33333333333333</ele><time>2026-04-19T17:31:47Z</time></trkpt><trkpt lat="38.02307894736407" lon="-1.209283727207524"><ele>70.66666666666666</ele><time>2026-04-19T17:32:27Z</time></trkpt><trkpt lat="38.02306660432137" lon="-1.2091791096802413"><ele>71.0</ele><time>2026-04-19T17:33:02Z</time></trkpt><trkpt lat="38.02311670017673" lon="-1.2091278671591792"><ele>71.33333333333333</ele><time>2026-04-19T17:33:06Z</time></trkpt><trkpt lat="38.0232022086306" lon="-1.2091426767342321"><ele>71.66666666666667</ele><time>2026-04-19T17:33:19Z</time></trkpt><trkpt lat="38.02315269475561" lon="-1.209087791839769"><ele>72.0</ele><time>2026-04-19T17:33:26Z</time></trkpt><trkpt lat="38.02323877785793" lon="-1.209119315493679"><ele>72.0</ele><time>2026-04-19T17:33:42Z</time></trkpt><trkpt lat="38.02317714019976" lon="-1.2090973111513692"><ele>72.0</ele><time>2026-04-19T17:33:47Z</time></trkpt><trkpt lat="38.02311089505107" lon="-1.2091406839862404"><ele>72.0</ele><time>2026-04-19T17:34:20Z</time></trkpt><trkpt lat="38.02304010231012" lon="-1.2092157680109925"><ele>72.0</ele><time>2026-04-19T17:34:54Z</time></trkpt><trkpt lat="38.02297833292967" lon="-1.209106738302286"><ele>72.0</ele><time>2026-04-19T17:40:02Z</time></trkpt><trkpt lat="38.02305764696592" lon="-1.2091676312313469"><ele>72.0</ele><time>2026-04-19T17:41:04Z</time></trkpt><trkpt lat="38.02301358919892" lon="-1.2092433327605765"><ele>72.0</ele><time>2026-04-19T17:43:15Z</time></trkpt><trkpt lat="38.02297917841517" lon="-1.2093140505068674"><ele>72.0</ele><time>2026-04-19T17:43:21Z</time></trkpt><trkpt lat="38.022913641636414" lon="-1.2094298257194513"><ele>72.0</ele><time>2026-04-19T17:43:23Z</time></trkpt><trkpt lat="38.02284167974745" lon="-1.209445991123303"><ele>72.0</ele><time>2026-04-19T17:43:25Z</time></trkpt><trkpt lat="38.022768966934585" lon="-1.209479567561562"><ele>72.0</ele><time>2026-04-19T17:43:32Z</time></trkpt><trkpt lat="38.022705198945324" lon="-1.2094922691031795"><ele>72.0</ele><time>2026-04-19T17:43:33Z</time></trkpt><trkpt lat="38.02262475589724" lon="-1.2095050228311146"><ele>72.0</ele><time>2026-04-19T17:43:34Z</time></trkpt><trkpt lat="38.02254979364413" lon="-1.2095111507156964"><ele>72.0</ele><time>2026-04-19T17:43:35Z</time></trkpt><trkpt lat="38.02247677226764" lon="-1.2095132506561284"><ele>72.0</ele><time>2026-04-19T17:43:36Z</time></trkpt><trkpt lat="38.022396961747944" lon="-1.2095117259793142"><ele>72.0</ele><time>2026-04-19T17:43:37Z</time></trkpt><trkpt lat="38.02231219722443" lon="-1.2095193960471826"><ele>72.0</ele><time>2026-04-19T17:43:38Z</time></trkpt><trkpt lat="38.02221206524293" lon="-1.2095242502762844"><ele>72.0</ele><time>2026-04-19T17:43:39Z</time></trkpt><trkpt lat="38.02210260496386" lon="-1.209533065649685"><ele>72.2</ele><time>2026-04-19T17:43:40Z</time></trkpt><trkpt lat="38.021999362726035" lon="-1.209553746670484"><ele>72.4</ele><time>2026-04-19T17:43:41Z</time></trkpt><trkpt lat="38.02188797723331" lon="-1.2095752095466872"><ele>72.6</ele><time>2026-04-19T17:43:42Z</time></trkpt><trkpt lat="38.02178927985006" lon="-1.2095939241760696"><ele>72.8</ele><time>2026-04-19T17:43:43Z</time></trkpt><trkpt lat="38.021685832163335" lon="-1.2096134389879685"><ele>73.0</ele><time>2026-04-19T17:43:44Z</time></trkpt><trkpt lat="38.02157634871505" lon="-1.2096379539340343"><ele>73.0</ele><time>2026-04-19T17:43:45Z</time></trkpt><trkpt lat="38.02148520901303" lon="-1.209670137508474"><ele>73.0</ele><time>2026-04-19T17:43:46Z</time></trkpt><trkpt lat="38.021392389178175" lon="-1.2096928886521456"><ele>73.0</ele><time>2026-04-19T17:43:47Z</time></trkpt><trkpt lat="38.021297793219574" lon="-1.2097128151807655"><ele>73.0</ele><time>2026-04-19T17:43:48Z</time></trkpt><trkpt lat="38.02120241807755" lon="-1.2097388230932107"><ele>73.0</ele><time>2026-04-19T17:43:49Z</time></trkpt><trkpt lat="38.02110604593117" lon="-1.2097523697596029"><ele>73.0</ele><time>2026-04-19T17:43:50Z</time></trkpt><trkpt lat="38.02100778901225" lon="-1.2097787219349017"><ele>73.0</ele><time>2026-04-19T17:43:51Z</time></trkpt><trkpt lat="38.020912460809114" lon="-1.2098000979443166"><ele>73.0</ele><time>2026-04-19T17:43:52Z</time></trkpt><trkpt lat="38.020813912085764" lon="-1.2098148123106276"><ele>73.0</ele><time>2026-04-19T17:43:53Z</time></trkpt><trkpt lat="38.020718155413014" lon="-1.2098272446062162"><ele>73.0</ele><time>2026-04-19T17:43:54Z</time></trkpt><trkpt lat="38.02062393265295" lon="-1.2098486238147292"><ele>74.0</ele><time>2026-04-19T17:43:55Z</time></trkpt><trkpt lat="38.020533147395696" lon="-1.2098954149231962"><ele>75.0</ele><time>2026-04-19T17:43:56Z</time></trkpt><trkpt lat="38.020450469910585" lon="-1.209970540497064"><ele>76.0</ele><time>2026-04-19T17:43:57Z</time></trkpt><trkpt lat="38.02038241185122" lon="-1.2100623248707856"><ele>77.0</ele><time>2026-04-19T17:43:58Z</time></trkpt><trkpt lat="38.0203249390801" lon="-1.2101726094836742"><ele>78.0</ele><time>2026-04-19T17:43:59Z</time></trkpt><trkpt lat="38.02027668822478" lon="-1.2103045342169232"><ele>78.0</ele><time>2026-04-19T17:44:00Z</time></trkpt><trkpt lat="38.02024271721574" lon="-1.2104515084938863"><ele>78.0</ele><time>2026-04-19T17:44:01Z</time></trkpt><trkpt lat="38.02019634400458" lon="-1.2105784469408343"><ele>78.0</ele><time>2026-04-19T17:44:02Z</time></trkpt><trkpt lat="38.02011605257618" lon="-1.2106911404757768"><ele>78.0</ele><time>2026-04-19T17:44:03Z</time></trkpt><trkpt lat="38.02002878222218" lon="-1.2107672584305254"><ele>75.8</ele><time>2026-04-19T17:44:04Z</time></trkpt><trkpt lat="38.019947334773676" lon="-1.210818648816859"><ele>73.6</ele><time>2026-04-19T17:44:05Z</time></trkpt><trkpt lat="38.01987200778588" lon="-1.210859868977767"><ele>71.4</ele><time>2026-04-19T17:44:06Z</time></trkpt><trkpt lat="38.01978822861591" lon="-1.2108833206092215"><ele>69.2</ele><time>2026-04-19T17:44:07Z</time></trkpt><trkpt lat="38.01968720119493" lon="-1.210881978688422"><ele>67.0</ele><time>2026-04-19T17:44:08Z</time></trkpt><trkpt lat="38.019590484711536" lon="-1.2108717410951861"><ele>67.0</ele><time>2026-04-19T17:44:09Z</time></trkpt><trkpt lat="38.019479608798235" lon="-1.2108497024276752"><ele>67.0</ele><time>2026-04-19T17:44:10Z</time></trkpt><trkpt lat="38.0193754613509" lon="-1.210829441124205"><ele>67.0</ele><time>2026-04-19T17:44:11Z</time></trkpt><trkpt lat="38.01929168865168" lon="-1.2108032184234196"><ele>67.0</ele><time>2026-04-19T17:44:12Z</time></trkpt><trkpt lat="38.01921299838558" lon="-1.2107771924647706"><ele>67.0</ele><time>2026-04-19T17:44:13Z</time></trkpt><trkpt lat="38.019128399316934" lon="-1.2107298559529664"><ele>66.5</ele><time>2026-04-19T17:44:14Z</time></trkpt><trkpt lat="38.01905326363032" lon="-1.2106705489418301"><ele>66.0</ele><time>2026-04-19T17:44:15Z</time></trkpt><trkpt lat="38.01897678919171" lon="-1.2106058239010506"><ele>65.5</ele><time>2026-04-19T17:44:16Z</time></trkpt><trkpt lat="38.01890544680649" lon="-1.2105448826000758"><ele>65.0</ele><time>2026-04-19T17:44:17Z</time></trkpt><trkpt lat="38.01883238168381" lon="-1.210493098927825"><ele>64.5</ele><time>2026-04-19T17:44:18Z</time></trkpt><trkpt lat="38.01875906141732" lon="-1.2104406574333009"><ele>64.0</ele><time>2026-04-19T17:44:19Z</time></trkpt><trkpt lat="38.018680489138134" lon="-1.210389939311225"><ele>64.5</ele><time>2026-04-19T17:44:20Z</time></trkpt><trkpt lat="38.018574381841006" lon="-1.210321491562815"><ele>65.0</ele><time>2026-04-19T17:44:21Z</time></trkpt><trkpt lat="38.01844464200809" lon="-1.2102460883626132"><ele>65.5</ele><time>2026-04-19T17:44:22Z</time></trkpt><trkpt lat="38.018311003559255" lon="-1.2101777023445073"><ele>66.0</ele><time>2026-04-19T17:44:23Z</time></trkpt><trkpt lat="38.018155050242044" lon="-1.2101044975885658"><ele>66.0</ele><time>2026-04-19T17:44:24Z</time></trkpt><trkpt lat="38.018014055642965" lon="-1.2100345804881028"><ele>66.0</ele><time>2026-04-19T17:44:25Z</time></trkpt><trkpt lat="38.01788018640034" lon="-1.20997821814179"><ele>66.0</ele><time>2026-04-19T17:44:26Z</time></trkpt><trkpt lat="38.017774432671004" lon="-1.2098969916176234"><ele>66.0</ele><time>2026-04-19T17:44:27Z</time></trkpt><trkpt lat="38.017665156597126" lon="-1.2098296202163838"><ele>66.8</ele><time>2026-04-19T17:44:28Z</time></trkpt><trkpt lat="38.01757101694371" lon="-1.2097781628681292"><ele>67.6</ele><time>2026-04-19T17:44:29Z</time></trkpt><trkpt lat="38.017506217022515" lon="-1.2097384062162602"><ele>68.4</ele><time>2026-04-19T17:44:30Z</time></trkpt><trkpt lat="38.01740562504038" lon="-1.2097010167596651"><ele>69.2</ele><time>2026-04-19T17:44:32Z</time></trkpt><trkpt lat="38.01733886848485" lon="-1.2096286229298279"><ele>70.0</ele><time>2026-04-19T17:44:35Z</time></trkpt><trkpt lat="38.01726062572036" lon="-1.2095690846343832"><ele>70.5</ele><time>2026-04-19T17:44:37Z</time></trkpt><trkpt lat="38.01697946124505" lon="-1.2091478794621402"><ele>71.0</ele><time>2026-04-19T17:44:39Z</time></trkpt><trkpt lat="38.01696516664912" lon="-1.2090637004406415"><ele>73.75</ele><time>2026-04-19T17:44:40Z</time></trkpt><trkpt lat="38.016972987416494" lon="-1.2088223478610065"><ele>76.5</ele><time>2026-04-19T17:44:41Z</time></trkpt><trkpt lat="38.01698207265754" lon="-1.2086869865876222"><ele>79.25</ele><time>2026-04-19T17:44:43Z</time></trkpt><trkpt lat="38.016987698549954" lon="-1.2086031663906203"><ele>82.0</ele><time>2026-04-19T17:44:44Z</time></trkpt><trkpt lat="38.01745302607168" lon="-1.2085627469988742"><ele>82.0</ele><time>2026-04-19T17:44:45Z</time></trkpt><trkpt lat="38.017478502184744" lon="-1.208452993796428"><ele>82.0</ele><time>2026-04-19T17:44:46Z</time></trkpt><trkpt lat="38.01700675722285" lon="-1.2083192131454823"><ele>82.0</ele><time>2026-04-19T17:44:47Z</time></trkpt><trkpt lat="38.01701279367926" lon="-1.2082292769175629"><ele>82.0</ele><time>2026-04-19T17:44:49Z</time></trkpt><trkpt lat="38.01703936483853" lon="-1.2081349341487793"><ele>82.0</ele><time>2026-04-19T17:44:52Z</time></trkpt><trkpt lat="38.01734735291168" lon="-1.2080973640433939"><ele>83.16666666666666</ele><time>2026-04-19T17:44:54Z</time></trkpt><trkpt lat="38.01729316674675" lon="-1.208013287677232"><ele>84.33333333333333</ele><time>2026-04-19T17:44:56Z</time></trkpt><trkpt lat="38.01726062905424" lon="-1.2079443017687441"><ele>85.5</ele><time>2026-04-19T17:44:58Z</time></trkpt><trkpt lat="38.017204038659045" lon="-1.2078604571690217"><ele>86.66666666666667</ele><time>2026-04-19T17:45:01Z</time></trkpt><trkpt lat="38.0171633140928" lon="-1.2077607868523188"><ele>87.83333333333334</ele><time>2026-04-19T17:45:03Z</time></trkpt><trkpt lat="38.01713289337446" lon="-1.207684612719135"><ele>89.0</ele><time>2026-04-19T17:45:05Z</time></trkpt><trkpt lat="38.017102128261534" lon="-1.2076050667733946"><ele>88.99999999999999</ele><time>2026-04-19T17:45:09Z</time></trkpt><trkpt lat="38.01706296763079" lon="-1.2075351233052676"><ele>89.0</ele><time>2026-04-19T17:45:12Z</time></trkpt><trkpt lat="38.01701747209719" lon="-1.207471679080311"><ele>89.0</ele><time>2026-04-19T17:45:48Z</time></trkpt><trkpt lat="38.017030971273634" lon="-1.2073784430622394"><ele>89.0</ele><time>2026-04-19T17:45:50Z</time></trkpt><trkpt lat="38.01707006871461" lon="-1.2073136421728679"><ele>89.0</ele><time>2026-04-19T17:45:51Z</time></trkpt><trkpt lat="38.017121996212644" lon="-1.2072188562071104"><ele>88.99999999999999</ele><time>2026-04-19T17:45:52Z</time></trkpt><trkpt lat="38.0171666241028" lon="-1.2071612336788666"><ele>89.0</ele><time>2026-04-19T17:45:53Z</time></trkpt><trkpt lat="38.017210993862726" lon="-1.2070881891587608"><ele>89.83333333333334</ele><time>2026-04-19T17:45:55Z</time></trkpt><trkpt lat="38.0172733035462" lon="-1.2070191062436184"><ele>90.66666666666667</ele><time>2026-04-19T17:45:58Z</time></trkpt><trkpt lat="38.01734124171528" lon="-1.2069560881256893"><ele>91.5</ele><time>2026-04-19T17:46:00Z</time></trkpt><trkpt lat="38.0174017960276" lon="-1.2069077156614296"><ele>92.33333333333333</ele><time>2026-04-19T17:46:02Z</time></trkpt><trkpt lat="38.01746294242705" lon="-1.206863829519242"><ele>93.16666666666666</ele><time>2026-04-19T17:46:04Z</time></trkpt><trkpt lat="38.017543731277144" lon="-1.2068637062682583"><ele>94.0</ele><time>2026-04-19T17:46:07Z</time></trkpt><trkpt lat="38.01762891713131" lon="-1.2068608308567699"><ele>91.5</ele><time>2026-04-19T17:46:09Z</time></trkpt><trkpt lat="38.017718170015414" lon="-1.206896818406708"><ele>89.0</ele><time>2026-04-19T17:46:11Z</time></trkpt><trkpt lat="38.01778359006931" lon="-1.2069255864124324"><ele>86.5</ele><time>2026-04-19T17:46:13Z</time></trkpt><trkpt lat="38.01784756287654" lon="-1.2069047624966287"><ele>84.0</ele><time>2026-04-19T17:46:15Z</time></trkpt><trkpt lat="38.0179132420836" lon="-1.2068127997695568"><ele>81.5</ele><time>2026-04-19T17:46:17Z</time></trkpt><trkpt lat="38.01791102603654" lon="-1.2067043679307234"><ele>79.0</ele><time>2026-04-19T17:46:20Z</time></trkpt><trkpt lat="38.017868814688434" lon="-1.2065788121846432"><ele>80.0</ele><time>2026-04-19T17:46:22Z</time></trkpt><trkpt lat="38.01777762459705" lon="-1.2064742614324877"><ele>81.0</ele><time>2026-04-19T17:46:25Z</time></trkpt><trkpt lat="38.017723409343866" lon="-1.2063974642095514"><ele>82.0</ele><time>2026-04-19T17:46:26Z</time></trkpt><trkpt lat="38.0176750601586" lon="-1.2063293000144877"><ele>83.0</ele><time>2026-04-19T17:46:27Z</time></trkpt><trkpt lat="38.017599402620185" lon="-1.2062332590692104"><ele>84.0</ele><time>2026-04-19T17:46:29Z</time></trkpt><trkpt lat="38.01757792464872" lon="-1.2061276968184613"><ele>84.0</ele><time>2026-04-19T17:46:31Z</time></trkpt><trkpt lat="38.01758182381796" lon="-1.2060197771943726"><ele>84.0</ele><time>2026-04-19T17:46:33Z</time></trkpt><trkpt lat="38.01758387643945" lon="-1.2059080030044582"><ele>84.0</ele><time>2026-04-19T17:46:35Z</time></trkpt><trkpt lat="38.01751789769262" lon="-1.205868068354271"><ele>84.0</ele><time>2026-04-19T17:46:39Z</time></trkpt><trkpt lat="38.017440169792835" lon="-1.205952697358788"><ele>84.0</ele><time>2026-04-19T17:46:42Z</time></trkpt><trkpt lat="38.01738522504846" lon="-1.2060447870701556"><ele>84.0</ele><time>2026-04-19T17:46:44Z</time></trkpt><trkpt lat="38.01730819623472" lon="-1.2060672192006274"><ele>85.16666666666667</ele><time>2026-04-19T17:46:46Z</time></trkpt><trkpt lat="38.017284681106524" lon="-1.2059787926953858"><ele>86.33333333333333</ele><time>2026-04-19T17:46:50Z</time></trkpt><trkpt lat="38.01723247712515" lon="-1.2058591646692776"><ele>87.5</ele><time>2026-04-19T17:46:51Z</time></trkpt><trkpt lat="38.01718486484604" lon="-1.2057940511861074"><ele>88.66666666666666</ele><time>2026-04-19T17:46:52Z</time></trkpt><trkpt lat="38.017138159635124" lon="-1.2057354795760329"><ele>89.83333333333333</ele><time>2026-04-19T17:46:53Z</time></trkpt><trkpt lat="38.01705048191398" lon="-1.2056645015808185"><ele>91.0</ele><time>2026-04-19T17:46:55Z</time></trkpt><trkpt lat="38.016957157341345" lon="-1.2055836526198938"><ele>91.19999999999999</ele><time>2026-04-19T17:46:57Z</time></trkpt><trkpt lat="38.016854095594915" lon="-1.205529868278859"><ele>91.39999999999999</ele><time>2026-04-19T17:46:59Z</time></trkpt><trkpt lat="38.0167552910019" lon="-1.2054147460667237"><ele>91.6</ele><time>2026-04-19T17:47:01Z</time></trkpt><trkpt lat="38.016709115759184" lon="-1.2053062703181172"><ele>91.8</ele><time>2026-04-19T17:47:03Z</time></trkpt><trkpt lat="38.016716123415556" lon="-1.2052110544268044"><ele>92.0</ele><time>2026-04-19T17:47:05Z</time></trkpt><trkpt lat="38.01681543421746" lon="-1.20513847737317"><ele>92.0</ele><time>2026-04-19T17:47:07Z</time></trkpt><trkpt lat="38.016886983417336" lon="-1.2051429472278843"><ele>92.0</ele><time>2026-04-19T17:47:08Z</time></trkpt><trkpt lat="38.016973630343415" lon="-1.2051912070249498"><ele>92.0</ele><time>2026-04-19T17:47:10Z</time></trkpt><trkpt lat="38.017042541417" lon="-1.205226660095598"><ele>92.0</ele><time>2026-04-19T17:47:47Z</time></trkpt><trkpt lat="38.01708226612914" lon="-1.2051636762422158"><ele>92.0</ele><time>2026-04-19T17:47:49Z</time></trkpt><trkpt lat="38.01714125471238" lon="-1.2051158341447668"><ele>92.0</ele><time>2026-04-19T17:47:51Z</time></trkpt><trkpt lat="38.01721625185439" lon="-1.2050469503107195"><ele>92.0</ele><time>2026-04-19T17:47:54Z</time></trkpt><trkpt lat="38.01720760963256" lon="-1.2049358621404"><ele>92.0</ele><time>2026-04-19T17:47:56Z</time></trkpt><trkpt lat="38.0172542427333" lon="-1.2048296395671338"><ele>92.0</ele><time>2026-04-19T17:47:58Z</time></trkpt><trkpt lat="38.017252608296396" lon="-1.2047374285201327"><ele>92.0</ele><time>2026-04-19T17:48:00Z</time></trkpt><trkpt lat="38.01720689679714" lon="-1.2046342191508563"><ele>92.0</ele><time>2026-04-19T17:48:03Z</time></trkpt><trkpt lat="38.01717451255041" lon="-1.2045268947122605"><ele>92.0</ele><time>2026-04-19T17:48:07Z</time></trkpt><trkpt lat="38.017096999640906" lon="-1.204436343542731"><ele>93.0</ele><time>2026-04-19T17:48:09Z</time></trkpt><trkpt lat="38.01700609417897" lon="-1.2043752330613497"><ele>94.0</ele><time>2026-04-19T17:48:11Z</time></trkpt><trkpt lat="38.016913273712206" lon="-1.2043123085716823"><ele>95.0</ele><time>2026-04-19T17:48:13Z</time></trkpt><trkpt lat="38.0168545601158" lon="-1.2042284661073515"><ele>96.0</ele><time>2026-04-19T17:48:43Z</time></trkpt><trkpt lat="38.01690354355802" lon="-1.2042850725636758"><ele>97.0</ele><time>2026-04-19T17:48:48Z</time></trkpt><trkpt lat="38.01696460560909" lon="-1.2043668073150806"><ele>97.00000000000001</ele><time>2026-04-19T17:48:50Z</time></trkpt><trkpt lat="38.01706529766089" lon="-1.204421992006511"><ele>97.0</ele><time>2026-04-19T17:48:52Z</time></trkpt><trkpt lat="38.017122755374515" lon="-1.2044586121270888"><ele>97.0</ele><time>2026-04-19T17:48:53Z</time></trkpt><trkpt lat="38.0172020055405" lon="-1.2045703671406396"><ele>97.0</ele><time>2026-04-19T17:48:55Z</time></trkpt><trkpt lat="38.01722178651435" lon="-1.204648899823363"><ele>97.00000000000001</ele><time>2026-04-19T17:49:00Z</time></trkpt><trkpt lat="38.01723076371022" lon="-1.2047491455018116"><ele>97.0</ele><time>2026-04-19T17:49:04Z</time></trkpt><trkpt lat="38.01724208518233" lon="-1.2048535726512988"><ele>97.0</ele><time>2026-04-19T17:49:07Z</time></trkpt><trkpt lat="38.017219509972016" lon="-1.2049444054895557"><ele>97.0</ele><time>2026-04-19T17:49:11Z</time></trkpt><trkpt lat="38.01721823819482" lon="-1.2050263665149996"><ele>97.0</ele><time>2026-04-19T17:49:15Z</time></trkpt><trkpt lat="38.01722904679102" lon="-1.2049330219443477"><ele>97.0</ele><time>2026-04-19T17:50:18Z</time></trkpt><trkpt lat="38.01725802219823" lon="-1.2048419223270463"><ele>97.0</ele><time>2026-04-19T17:50:20Z</time></trkpt><trkpt lat="38.017249159572465" lon="-1.2047282988239785"><ele>97.0</ele><time>2026-04-19T17:50:23Z</time></trkpt><trkpt lat="38.01721734443133" lon="-1.2046544299731103"><ele>97.0</ele><time>2026-04-19T17:50:25Z</time></trkpt><trkpt lat="38.017205996972926" lon="-1.2045609719991153"><ele>97.00000000000001</ele><time>2026-04-19T17:50:34Z</time></trkpt><trkpt lat="38.01716444637906" lon="-1.204485551326484"><ele>97.0</ele><time>2026-04-19T17:50:36Z</time></trkpt><trkpt lat="38.01708085779827" lon="-1.2044142482920865"><ele>97.0</ele><time>2026-04-19T17:50:38Z</time></trkpt><trkpt lat="38.016974590614815" lon="-1.2043521995570787"><ele>97.0</ele><time>2026-04-19T17:50:40Z</time></trkpt><trkpt lat="38.016922852824514" lon="-1.2043061321256752"><ele>97.00000000000001</ele><time>2026-04-19T17:50:43Z</time></trkpt><trkpt lat="38.01686175739686" lon="-1.204220867556958"><ele>97.0</ele><time>2026-04-19T17:51:53Z</time></trkpt><trkpt lat="38.01691274758617" lon="-1.2042694927693176"><ele>97.00000000000001</ele><time>2026-04-19T17:51:58Z</time></trkpt><trkpt lat="38.016983486802246" lon="-1.2043686691912565"><ele>97.0</ele><time>2026-04-19T17:52:00Z</time></trkpt><trkpt lat="38.017089118826405" lon="-1.2044285471251122"><ele>97.0</ele><time>2026-04-19T17:52:02Z</time></trkpt><trkpt lat="38.01714474222339" lon="-1.2044678381028568"><ele>97.0</ele><time>2026-04-19T17:52:03Z</time></trkpt><trkpt lat="38.017191032210384" lon="-1.2045223991882696"><ele>97.00000000000001</ele><time>2026-04-19T17:52:04Z</time></trkpt><trkpt lat="38.01723393781076" lon="-1.2046223861638774"><ele>97.0</ele><time>2026-04-19T17:52:06Z</time></trkpt><trkpt lat="38.01722740594493" lon="-1.204710279980497"><ele>97.0</ele><time>2026-04-19T17:53:31Z</time></trkpt><trkpt lat="38.017248758399596" lon="-1.2048106819172697"><ele>97.0</ele><time>2026-04-19T17:53:35Z</time></trkpt><trkpt lat="38.01724360683101" lon="-1.204893146496848"><ele>97.0</ele><time>2026-04-19T17:53:38Z</time></trkpt><trkpt lat="38.01721203558748" lon="-1.204966329571139"><ele>97.0</ele><time>2026-04-19T17:53:41Z</time></trkpt><trkpt lat="38.01721607657849" lon="-1.205056686947343"><ele>97.0</ele><time>2026-04-19T17:53:44Z</time></trkpt><trkpt lat="38.01722489015767" lon="-1.2049621524086054"><ele>97.0</ele><time>2026-04-19T17:53:59Z</time></trkpt><trkpt lat="38.017233757251105" lon="-1.204867268727845"><ele>97.0</ele><time>2026-04-19T17:54:01Z</time></trkpt><trkpt lat="38.01723092534485" lon="-1.2047627520853554"><ele>97.0</ele><time>2026-04-19T17:54:03Z</time></trkpt><trkpt lat="38.01727159915668" lon="-1.2048463753769068"><ele>97.0</ele><time>2026-04-19T17:54:44Z</time></trkpt><trkpt lat="38.01728655402621" lon="-1.2049318268351066"><ele>97.0</ele><time>2026-04-19T17:54:47Z</time></trkpt><trkpt lat="38.017281384576705" lon="-1.2050131233249175"><ele>97.0</ele><time>2026-04-19T17:54:50Z</time></trkpt><trkpt lat="38.01723626877225" lon="-1.205075512150567"><ele>97.0</ele><time>2026-04-19T17:54:53Z</time></trkpt><trkpt lat="38.017212920373076" lon="-1.204983267286315"><ele>97.0</ele><time>2026-04-19T17:54:58Z</time></trkpt><trkpt lat="38.0172408985962" lon="-1.204874711769646"><ele>97.0</ele><time>2026-04-19T17:55:01Z</time></trkpt><trkpt lat="38.01723393718304" lon="-1.2047777553841574"><ele>97.00000000000001</ele><time>2026-04-19T17:55:04Z</time></trkpt><trkpt lat="38.01722385185498" lon="-1.2046969944647805"><ele>97.0</ele><time>2026-04-19T17:55:07Z</time></trkpt><trkpt lat="38.0172128653078" lon="-1.204602633441351"><ele>97.0</ele><time>2026-04-19T17:55:16Z</time></trkpt><trkpt lat="38.017179580801645" lon="-1.204528388492868"><ele>97.0</ele><time>2026-04-19T17:55:58Z</time></trkpt><trkpt lat="38.01709680151816" lon="-1.2044221279186105"><ele>97.00000000000001</ele><time>2026-04-19T17:56:00Z</time></trkpt><trkpt lat="38.01703385573507" lon="-1.2043782182508374"><ele>97.0</ele><time>2026-04-19T17:56:01Z</time></trkpt><trkpt lat="38.01696863432052" lon="-1.2043444568513495"><ele>97.00000000000001</ele><time>2026-04-19T17:56:02Z</time></trkpt><trkpt lat="38.01687810958208" lon="-1.2042532373457577"><ele>97.0</ele><time>2026-04-19T17:56:04Z</time></trkpt><trkpt lat="38.01683693360291" lon="-1.204184317248222"><ele>97.0</ele><time>2026-04-19T17:56:05Z</time></trkpt><trkpt lat="38.016787920858775" lon="-1.2041192257206568"><ele>97.0</ele><time>2026-04-19T17:56:06Z</time></trkpt><trkpt lat="38.016741833226504" lon="-1.2040588807650388"><ele>97.00000000000001</ele><time>2026-04-19T17:56:07Z</time></trkpt><trkpt lat="38.01666348082279" lon="-1.2039504135960544"><ele>97.0</ele><time>2026-04-19T17:56:09Z</time></trkpt><trkpt lat="38.016621573763665" lon="-1.2038248342640787"><ele>99.8</ele><time>2026-04-19T17:56:11Z</time></trkpt><trkpt lat="38.01658973743296" lon="-1.2037093030494546"><ele>102.6</ele><time>2026-04-19T17:56:13Z</time></trkpt><trkpt lat="38.01653623043735" lon="-1.2035815183311385"><ele>105.39999999999999</ele><time>2026-04-19T17:56:15Z</time></trkpt><trkpt lat="38.01653234932892" lon="-1.2034480704625354"><ele>108.19999999999999</ele><time>2026-04-19T17:56:17Z</time></trkpt><trkpt lat="38.016535711026144" lon="-1.2033069107865884"><ele>111.0</ele><time>2026-04-19T17:56:19Z</time></trkpt><trkpt lat="38.01654448743299" lon="-1.203225715502083"><ele>113.5</ele><time>2026-04-19T17:56:20Z</time></trkpt><trkpt lat="38.01655742511119" lon="-1.2031458036667722"><ele>116.0</ele><time>2026-04-19T17:56:21Z</time></trkpt><trkpt lat="38.016553443462215" lon="-1.2030159246937195"><ele>118.5</ele><time>2026-04-19T17:56:23Z</time></trkpt><trkpt lat="38.01654266604874" lon="-1.2029302529162196"><ele>121.0</ele><time>2026-04-19T17:56:25Z</time></trkpt><trkpt lat="38.01645610514373" lon="-1.202842994084207"><ele>123.5</ele><time>2026-04-19T17:56:27Z</time></trkpt><trkpt lat="38.016373601039945" lon="-1.2027924391896976"><ele>126.0</ele><time>2026-04-19T17:56:29Z</time></trkpt><trkpt lat="38.01631579404054" lon="-1.202682752977902"><ele>126.0</ele><time>2026-04-19T17:56:31Z</time></trkpt><trkpt lat="38.01627568273247" lon="-1.2025774457792653"><ele>126.0</ele><time>2026-04-19T17:56:33Z</time></trkpt><trkpt lat="38.01621721697317" lon="-1.2025101391223374"><ele>126.0</ele><time>2026-04-19T17:56:35Z</time></trkpt><trkpt lat="38.01613513874159" lon="-1.2024283443072519"><ele>126.0</ele><time>2026-04-19T17:56:37Z</time></trkpt><trkpt lat="38.01605522939121" lon="-1.2023311641234238"><ele>126.0</ele><time>2026-04-19T17:56:39Z</time></trkpt><trkpt lat="38.01597188851553" lon="-1.2022408440501193"><ele>126.0</ele><time>2026-04-19T17:56:41Z</time></trkpt><trkpt lat="38.015908813992596" lon="-1.2021616700782787"><ele>126.0</ele><time>2026-04-19T17:56:43Z</time></trkpt><trkpt lat="38.015870243927324" lon="-1.2020773049583342"><ele>126.0</ele><time>2026-04-19T17:56:45Z</time></trkpt><trkpt lat="38.01583320919554" lon="-1.202006468563181"><ele>126.0</ele><time>2026-04-19T17:56:46Z</time></trkpt><trkpt lat="38.01579908244655" lon="-1.2019316913898563"><ele>126.0</ele><time>2026-04-19T17:56:48Z</time></trkpt><trkpt lat="38.01570496671597" lon="-1.2018921958959667"><ele>126.0</ele><time>2026-04-19T17:56:51Z</time></trkpt><trkpt lat="38.015607722688706" lon="-1.2018457675778504"><ele>126.8</ele><time>2026-04-19T17:56:53Z</time></trkpt><trkpt lat="38.015505555177306" lon="-1.2018270280129828"><ele>127.6</ele><time>2026-04-19T17:56:55Z</time></trkpt><trkpt lat="38.01541686208845" lon="-1.2018089504204728"><ele>128.4</ele><time>2026-04-19T17:56:57Z</time></trkpt><trkpt lat="38.01534986269286" lon="-1.2017671474662097"><ele>129.2</ele><time>2026-04-19T17:56:59Z</time></trkpt><trkpt lat="38.01527799096645" lon="-1.201690985748647"><ele>130.0</ele><time>2026-04-19T17:57:01Z</time></trkpt><trkpt lat="38.01519193085681" lon="-1.2015972709301035"><ele>130.0</ele><time>2026-04-19T17:57:03Z</time></trkpt><trkpt lat="38.01510052990268" lon="-1.2015239601421843"><ele>130.0</ele><time>2026-04-19T17:57:05Z</time></trkpt><trkpt lat="38.015047421875614" lon="-1.201437161477596"><ele>130.0</ele><time>2026-04-19T17:57:07Z</time></trkpt><trkpt lat="38.015043687444475" lon="-1.201308815289297"><ele>130.0</ele><time>2026-04-19T17:57:09Z</time></trkpt><trkpt lat="38.01503357151122" lon="-1.201149192499133"><ele>130.0</ele><time>2026-04-19T17:57:11Z</time></trkpt><trkpt lat="38.01499980182904" lon="-1.2010135812477123"><ele>131.25</ele><time>2026-04-19T17:57:13Z</time></trkpt><trkpt lat="38.014937903850644" lon="-1.200895957016534"><ele>132.5</ele><time>2026-04-19T17:57:15Z</time></trkpt><trkpt lat="38.01489470611454" lon="-1.200760244302559"><ele>133.75</ele><time>2026-04-19T17:57:17Z</time></trkpt><trkpt lat="38.014848247381934" lon="-1.2006142212433375"><ele>135.0</ele><time>2026-04-19T17:57:19Z</time></trkpt><trkpt lat="38.01480231268745" lon="-1.2005015825160903"><ele>134.5</ele><time>2026-04-19T17:57:21Z</time></trkpt><trkpt lat="38.01482028311893" lon="-1.2004216643763286"><ele>134.0</ele><time>2026-04-19T17:57:55Z</time></trkpt><trkpt lat="38.01493172503473" lon="-1.2003996773704568"><ele>133.5</ele><time>2026-04-19T17:57:57Z</time></trkpt><trkpt lat="38.014993558264194" lon="-1.200342923065345"><ele>133.0</ele><time>2026-04-19T17:57:58Z</time></trkpt><trkpt lat="38.01504836488764" lon="-1.2002932157145805"><ele>132.5</ele><time>2026-04-19T17:57:59Z</time></trkpt><trkpt lat="38.01513854566795" lon="-1.2002233846784562"><ele>132.0</ele><time>2026-04-19T17:58:01Z</time></trkpt><trkpt lat="38.01522126007699" lon="-1.2002067180112053"><ele>132.0</ele><time>2026-04-19T17:58:04Z</time></trkpt><trkpt lat="38.01514838732146" lon="-1.2002030656748464"><ele>132.0</ele><time>2026-04-19T18:01:46Z</time></trkpt><trkpt lat="38.01507607683989" lon="-1.2002207222670296"><ele>132.0</ele><time>2026-04-19T18:01:50Z</time></trkpt><trkpt lat="38.01499923814979" lon="-1.2003042283640086"><ele>132.0</ele><time>2026-04-19T18:01:53Z</time></trkpt><trkpt lat="38.01492835569032" lon="-1.2003626440328516"><ele>132.0</ele><time>2026-04-19T18:01:55Z</time></trkpt><trkpt lat="38.014853111728065" lon="-1.200433306115285"><ele>132.0</ele><time>2026-04-19T18:01:57Z</time></trkpt><trkpt lat="38.014804565075906" lon="-1.2004906627385334"><ele>133.79999999999998</ele><time>2026-04-19T18:02:00Z</time></trkpt><trkpt lat="38.01473509893239" lon="-1.2004282108978699"><ele>135.6</ele><time>2026-04-19T18:02:25Z</time></trkpt><trkpt lat="38.01465578065344" lon="-1.2003557055735161"><ele>137.39999999999998</ele><time>2026-04-19T18:02:27Z</time></trkpt><trkpt lat="38.014548417181445" lon="-1.2002897742008591"><ele>139.2</ele><time>2026-04-19T18:02:29Z</time></trkpt><trkpt lat="38.014479055591444" lon="-1.2002427861342841"><ele>141.0</ele><time>2026-04-19T18:02:30Z</time></trkpt><trkpt lat="38.014405010242676" lon="-1.2002026934656849"><ele>141.0</ele><time>2026-04-19T18:02:31Z</time></trkpt><trkpt lat="38.01433552637128" lon="-1.2001590619131792"><ele>141.0</ele><time>2026-04-19T18:02:32Z</time></trkpt><trkpt lat="38.014276834459096" lon="-1.2001182164179351"><ele>141.0</ele><time>2026-04-19T18:02:33Z</time></trkpt><trkpt lat="38.01422345378619" lon="-1.2000746788287835"><ele>141.0</ele><time>2026-04-19T18:02:34Z</time></trkpt><trkpt lat="38.014166226924004" lon="-1.2000161603916586"><ele>141.0</ele><time>2026-04-19T18:02:35Z</time></trkpt><trkpt lat="38.014108363027006" lon="-1.199949696205754"><ele>141.0</ele><time>2026-04-19T18:02:36Z</time></trkpt><trkpt lat="38.01404866301041" lon="-1.1998873840452038"><ele>141.0</ele><time>2026-04-19T18:02:37Z</time></trkpt><trkpt lat="38.0140009777877" lon="-1.199830752919235"><ele>142.6</ele><time>2026-04-19T18:02:38Z</time></trkpt><trkpt lat="38.013914244666374" lon="-1.1997441735524377"><ele>144.2</ele><time>2026-04-19T18:02:40Z</time></trkpt><trkpt lat="38.0138421350307" lon="-1.1996348152365837"><ele>145.8</ele><time>2026-04-19T18:02:42Z</time></trkpt><trkpt lat="38.01384060374976" lon="-1.1995334883587112"><ele>147.4</ele><time>2026-04-19T18:02:44Z</time></trkpt><trkpt lat="38.013855141010296" lon="-1.1993888091601872"><ele>149.0</ele><time>2026-04-19T18:02:46Z</time></trkpt><trkpt lat="38.013872548603175" lon="-1.1993089428496104"><ele>149.0</ele><time>2026-04-19T18:02:47Z</time></trkpt><trkpt lat="38.013879999012815" lon="-1.1992265065342533"><ele>149.0</ele><time>2026-04-19T18:02:48Z</time></trkpt><trkpt lat="38.013872088276905" lon="-1.1991296104304148"><ele>149.0</ele><time>2026-04-19T18:02:50Z</time></trkpt><trkpt lat="38.01383280159993" lon="-1.1990618925154641"><ele>149.0</ele><time>2026-04-19T18:02:54Z</time></trkpt><trkpt lat="38.01379002489323" lon="-1.1989969151533553"><ele>149.0</ele><time>2026-04-19T18:03:52Z</time></trkpt><trkpt lat="38.013715572339535" lon="-1.1989202415866438"><ele>149.0</ele><time>2026-04-19T18:03:54Z</time></trkpt><trkpt lat="38.01366435939343" lon="-1.1988642029990315"><ele>149.0</ele><time>2026-04-19T18:03:55Z</time></trkpt><trkpt lat="38.01360855533671" lon="-1.198805437782979"><ele>150.16666666666666</ele><time>2026-04-19T18:03:56Z</time></trkpt><trkpt lat="38.013560029119404" lon="-1.1987436779278178"><ele>151.33333333333331</ele><time>2026-04-19T18:03:57Z</time></trkpt><trkpt lat="38.01348206020902" lon="-1.1986418184477674"><ele>152.5</ele><time>2026-04-19T18:03:59Z</time></trkpt><trkpt lat="38.01342013003641" lon="-1.1985420441996415"><ele>153.66666666666666</ele><time>2026-04-19T18:04:01Z</time></trkpt><trkpt lat="38.01335429066609" lon="-1.1984674869225005"><ele>154.83333333333334</ele><time>2026-04-19T18:04:03Z</time></trkpt><trkpt lat="38.01335873375679" lon="-1.1983729786436064"><ele>156.0</ele><time>2026-04-19T18:04:06Z</time></trkpt><trkpt lat="38.01338725984815" lon="-1.1982891984863218"><ele>156.0</ele><time>2026-04-19T18:04:09Z</time></trkpt><trkpt lat="38.01339448137354" lon="-1.1982040819098119"><ele>156.0</ele><time>2026-04-19T18:04:12Z</time></trkpt><trkpt lat="38.013400869100295" lon="-1.198101538263756"><ele>156.0</ele><time>2026-04-19T18:04:15Z</time></trkpt><trkpt lat="38.0133785172358" lon="-1.1980240032557399"><ele>156.0</ele><time>2026-04-19T18:04:18Z</time></trkpt><trkpt lat="38.01333911592208" lon="-1.1979203138651082"><ele>156.0</ele><time>2026-04-19T18:04:21Z</time></trkpt><trkpt lat="38.01335178233828" lon="-1.1978395274698894"><ele>156.0</ele><time>2026-04-19T18:04:41Z</time></trkpt><trkpt lat="38.013416061553" lon="-1.197800029047158"><ele>156.0</ele><time>2026-04-19T18:04:45Z</time></trkpt><trkpt lat="38.01347416224488" lon="-1.1977545507624394"><ele>155.0</ele><time>2026-04-19T18:04:48Z</time></trkpt><trkpt lat="38.01351999516653" lon="-1.1976814466126124"><ele>154.0</ele><time>2026-04-19T18:04:51Z</time></trkpt><trkpt lat="38.01358955389532" lon="-1.1976070541921215"><ele>153.0</ele><time>2026-04-19T18:04:54Z</time></trkpt><trkpt lat="38.01364869765167" lon="-1.1975716865526445"><ele>152.0</ele><time>2026-04-19T18:04:57Z</time></trkpt><trkpt lat="38.01372476640507" lon="-1.197524545068404"><ele>151.0</ele><time>2026-04-19T18:05:00Z</time></trkpt><trkpt lat="38.013763770796416" lon="-1.1974575943456722"><ele>150.0</ele><time>2026-04-19T18:05:03Z</time></trkpt><trkpt lat="38.01383418087584" lon="-1.197448570432577"><ele>149.99999999999997</ele><time>2026-04-19T18:05:06Z</time></trkpt><trkpt lat="38.013903406818244" lon="-1.1974629130292176"><ele>150.0</ele><time>2026-04-19T18:05:09Z</time></trkpt><trkpt lat="38.013967028353264" lon="-1.1974503669423906"><ele>150.0</ele><time>2026-04-19T18:05:12Z</time></trkpt><trkpt lat="38.01403612991275" lon="-1.1974236255249655"><ele>150.0</ele><time>2026-04-19T18:05:15Z</time></trkpt><trkpt lat="38.01410256664954" lon="-1.1974225613253904"><ele>150.0</ele><time>2026-04-19T18:05:18Z</time></trkpt><trkpt lat="38.014166407172915" lon="-1.1974277095826724"><ele>149.99999999999997</ele><time>2026-04-19T18:05:22Z</time></trkpt><trkpt lat="38.014234258925576" lon="-1.1974656170711473"><ele>150.0</ele><time>2026-04-19T18:05:28Z</time></trkpt><trkpt lat="38.01429390632552" lon="-1.1975220648775589"><ele>148.42857142857142</ele><time>2026-04-19T18:05:34Z</time></trkpt><trkpt lat="38.014331973310824" lon="-1.1976142309083508"><ele>146.85714285714286</ele><time>2026-04-19T18:05:44Z</time></trkpt><trkpt lat="38.01435723420148" lon="-1.1976896311691907"><ele>145.28571428571428</ele><time>2026-04-19T18:07:22Z</time></trkpt><trkpt lat="38.0144065125946" lon="-1.1977616001759277"><ele>143.71428571428572</ele><time>2026-04-19T18:07:26Z</time></trkpt><trkpt lat="38.0144380165963" lon="-1.1978395421285435"><ele>142.14285714285714</ele><time>2026-04-19T18:07:29Z</time></trkpt><trkpt lat="38.014493041820074" lon="-1.1979174985437224"><ele>140.57142857142856</ele><time>2026-04-19T18:07:32Z</time></trkpt><trkpt lat="38.014520864315394" lon="-1.1979925139086298"><ele>139.0</ele><time>2026-04-19T18:07:34Z</time></trkpt><trkpt lat="38.01454630200229" lon="-1.1980767761571334"><ele>139.0</ele><time>2026-04-19T18:07:36Z</time></trkpt><trkpt lat="38.014590926425846" lon="-1.1981344422411082"><ele>139.0</ele><time>2026-04-19T18:07:40Z</time></trkpt><trkpt lat="38.0146246292279" lon="-1.1982374089185182"><ele>139.0</ele><time>2026-04-19T18:07:56Z</time></trkpt><trkpt lat="38.01471372884632" lon="-1.1982445489170868"><ele>139.0</ele><time>2026-04-19T18:08:10Z</time></trkpt><trkpt lat="38.014773395189735" lon="-1.1982790096765021"><ele>139.0</ele><time>2026-04-19T18:08:14Z</time></trkpt><trkpt lat="38.014832979204826" lon="-1.198369009058817"><ele>139.0</ele><time>2026-04-19T18:08:24Z</time></trkpt><trkpt lat="38.01490417293513" lon="-1.198423156487151"><ele>139.42857142857142</ele><time>2026-04-19T18:08:28Z</time></trkpt><trkpt lat="38.014938314253634" lon="-1.1985040150239097"><ele>139.85714285714286</ele><time>2026-04-19T18:08:32Z</time></trkpt><trkpt lat="38.01498340354081" lon="-1.1985806302182704"><ele>140.28571428571428</ele><time>2026-04-19T18:08:35Z</time></trkpt><trkpt lat="38.01502361368223" lon="-1.1986516954966773"><ele>140.71428571428572</ele><time>2026-04-19T18:08:52Z</time></trkpt><trkpt lat="38.0150735834019" lon="-1.1987004719465493"><ele>141.14285714285714</ele><time>2026-04-19T18:09:00Z</time></trkpt><trkpt lat="38.01511052749919" lon="-1.19878521656521"><ele>141.57142857142856</ele><time>2026-04-19T18:09:25Z</time></trkpt><trkpt lat="38.01509173941509" lon="-1.1988855894624766"><ele>142.0</ele><time>2026-04-19T18:09:29Z</time></trkpt><trkpt lat="38.015107305640015" lon="-1.1989686707749656"><ele>140.0</ele><time>2026-04-19T18:09:41Z</time></trkpt><trkpt lat="38.01516586480336" lon="-1.1990298623068856"><ele>138.0</ele><time>2026-04-19T18:09:54Z</time></trkpt><trkpt lat="38.015233941927825" lon="-1.199060743339136"><ele>136.0</ele><time>2026-04-19T18:10:02Z</time></trkpt><trkpt lat="38.01530186156463" lon="-1.1990946657195085"><ele>134.0</ele><time>2026-04-19T18:10:13Z</time></trkpt><trkpt lat="38.015346900566435" lon="-1.1991669487155563"><ele>132.0</ele><time>2026-04-19T18:10:35Z</time></trkpt><trkpt lat="38.01535015045315" lon="-1.1992577411099274"><ele>130.0</ele><time>2026-04-19T18:10:43Z</time></trkpt><trkpt lat="38.01533493449272" lon="-1.1993396906830214"><ele>128.0</ele><time>2026-04-19T18:10:49Z</time></trkpt><trkpt lat="38.015351586347755" lon="-1.1994178766070605"><ele>127.99999999999999</ele><time>2026-04-19T18:12:22Z</time></trkpt><trkpt lat="38.01540158574495" lon="-1.1994745658478627"><ele>128.0</ele><time>2026-04-19T18:12:28Z</time></trkpt><trkpt lat="38.015448583530286" lon="-1.1995415191959071"><ele>128.0</ele><time>2026-04-19T18:12:32Z</time></trkpt><trkpt lat="38.01552744922249" lon="-1.1995299051390107"><ele>128.0</ele><time>2026-04-19T18:12:41Z</time></trkpt><trkpt lat="38.01559480542289" lon="-1.1995188561321872"><ele>127.99999999999999</ele><time>2026-04-19T18:12:45Z</time></trkpt><trkpt lat="38.01569176561932" lon="-1.1995069496622222"><ele>128.0</ele><time>2026-04-19T18:12:47Z</time></trkpt><trkpt lat="38.01576045830703" lon="-1.1995016103400804"><ele>127.49999999999999</ele><time>2026-04-19T18:12:49Z</time></trkpt><trkpt lat="38.015823508696805" lon="-1.199581494297175"><ele>127.0</ele><time>2026-04-19T18:13:39Z</time></trkpt><trkpt lat="38.01585691202144" lon="-1.1996574348698614"><ele>126.5</ele><time>2026-04-19T18:13:41Z</time></trkpt><trkpt lat="38.01590178798375" lon="-1.1997711197124115"><ele>126.0</ele><time>2026-04-19T18:13:44Z</time></trkpt><trkpt lat="38.01593662313886" lon="-1.1998476117706938"><ele>125.49999999999999</ele><time>2026-04-19T18:13:47Z</time></trkpt><trkpt lat="38.01595711817747" lon="-1.1999297679465653"><ele>125.0</ele><time>2026-04-19T18:13:52Z</time></trkpt><trkpt lat="38.016013652026665" lon="-1.199969228159794"><ele>124.0</ele><time>2026-04-19T18:13:55Z</time></trkpt><trkpt lat="38.01610413185624" lon="-1.1999670958758692"><ele>123.0</ele><time>2026-04-19T18:13:59Z</time></trkpt><trkpt lat="38.01616006412799" lon="-1.2000097262919085"><ele>122.0</ele><time>2026-04-19T18:14:03Z</time></trkpt><trkpt lat="38.01616803260244" lon="-1.2000950731458269"><ele>121.0</ele><time>2026-04-19T18:14:07Z</time></trkpt><trkpt lat="38.01615534318655" lon="-1.2000006336055111"><ele>120.0</ele><time>2026-04-19T18:16:24Z</time></trkpt><trkpt lat="38.01608892360471" lon="-1.199978283657535"><ele>119.0</ele><time>2026-04-19T18:16:53Z</time></trkpt><trkpt lat="38.0160246694175" lon="-1.1999717784232609"><ele>118.0</ele><time>2026-04-19T18:16:56Z</time></trkpt><trkpt lat="38.01595992789903" lon="-1.1998912461298221"><ele>119.16666666666667</ele><time>2026-04-19T18:17:00Z</time></trkpt><trkpt lat="38.01592288063686" lon="-1.1997970396880613"><ele>120.33333333333334</ele><time>2026-04-19T18:17:07Z</time></trkpt><trkpt lat="38.01589337545384" lon="-1.1997247208424966"><ele>121.5</ele><time>2026-04-19T18:17:09Z</time></trkpt><trkpt lat="38.0158664300803" lon="-1.1996420504010448"><ele>122.66666666666666</ele><time>2026-04-19T18:17:11Z</time></trkpt><trkpt lat="38.0158235898577" lon="-1.199560306538526"><ele>123.83333333333333</ele><time>2026-04-19T18:17:20Z</time></trkpt><trkpt lat="38.015759546458035" lon="-1.1995012881932636"><ele>125.0</ele><time>2026-04-19T18:17:26Z</time></trkpt><trkpt lat="38.0156769513904" lon="-1.1995150937733288"><ele>125.42857142857142</ele><time>2026-04-19T18:17:28Z</time></trkpt><trkpt lat="38.01559923831716" lon="-1.1995216795626942"><ele>125.85714285714286</ele><time>2026-04-19T18:17:31Z</time></trkpt><trkpt lat="38.01552498051214" lon="-1.1995400556916582"><ele>126.28571428571428</ele><time>2026-04-19T18:17:35Z</time></trkpt><trkpt lat="38.01545505273177" lon="-1.1995025485695947"><ele>126.71428571428571</ele><time>2026-04-19T18:17:41Z</time></trkpt><trkpt lat="38.01540497541039" lon="-1.199433029516942"><ele>127.14285714285714</ele><time>2026-04-19T18:17:44Z</time></trkpt><trkpt lat="38.0153564133061" lon="-1.1993648526977743"><ele>127.57142857142857</ele><time>2026-04-19T18:17:52Z</time></trkpt><trkpt lat="38.01535695705916" lon="-1.1992841966641015"><ele>128.0</ele><time>2026-04-19T18:17:56Z</time></trkpt><trkpt lat="38.015354048212245" lon="-1.1991983148923133"><ele>128.0</ele><time>2026-04-19T18:18:00Z</time></trkpt><trkpt lat="38.01532469316901" lon="-1.1991108409126234"><ele>127.99999999999999</ele><time>2026-04-19T18:18:14Z</time></trkpt><trkpt lat="38.01527238628971" lon="-1.1990626542924594"><ele>128.0</ele><time>2026-04-19T18:19:32Z</time></trkpt><trkpt lat="38.01529182323967" lon="-1.198985997924198"><ele>128.0</ele><time>2026-04-19T18:22:10Z</time></trkpt><trkpt lat="38.01531399285091" lon="-1.1989003873300728"><ele>127.99999999999999</ele><time>2026-04-19T18:22:24Z</time></trkpt><trkpt lat="38.01537877485193" lon="-1.198853022068856"><ele>128.0</ele><time>2026-04-19T18:23:28Z</time></trkpt><trkpt lat="38.01532219072176" lon="-1.198938070412889"><ele>128.0</ele><time>2026-04-19T18:23:29Z</time></trkpt><trkpt lat="38.015282661020905" lon="-1.1990277949343748"><ele>127.99999999999999</ele><time>2026-04-19T18:25:11Z</time></trkpt><trkpt lat="38.01527379974632" lon="-1.1991148983054585"><ele>128.0</ele><time>2026-04-19T18:26:12Z</time></trkpt><trkpt lat="38.01519922879123" lon="-1.199048392663607"><ele>128.0</ele><time>2026-04-19T18:26:54Z</time></trkpt><trkpt lat="38.0151336593175" lon="-1.1989984547237216"><ele>128.0</ele><time>2026-04-19T18:26:57Z</time></trkpt><trkpt lat="38.01510108316035" lon="-1.19889127047443"><ele>127.99999999999999</ele><time>2026-04-19T18:27:41Z</time></trkpt><trkpt lat="38.015128238349675" lon="-1.1988168622284048"><ele>128.0</ele><time>2026-04-19T18:27:44Z</time></trkpt><trkpt lat="38.01508098691195" lon="-1.1987174331984014"><ele>129.16666666666666</ele><time>2026-04-19T18:27:47Z</time></trkpt><trkpt lat="38.01503892048368" lon="-1.1986523228528831"><ele>130.33333333333331</ele><time>2026-04-19T18:27:54Z</time></trkpt><trkpt lat="38.01509533763223" lon="-1.1986896779116567"><ele>131.5</ele><time>2026-04-19T18:29:04Z</time></trkpt><trkpt lat="38.01503689267049" lon="-1.1986284865300845"><ele>132.66666666666666</ele><time>2026-04-19T18:30:11Z</time></trkpt><trkpt lat="38.01497860533463" lon="-1.1985719090422777"><ele>133.83333333333334</ele><time>2026-04-19T18:30:45Z</time></trkpt><trkpt lat="38.01492549333126" lon="-1.1984736717616689"><ele>135.0</ele><time>2026-04-19T18:30:48Z</time></trkpt><trkpt lat="38.0148700236129" lon="-1.1983999822044882"><ele>135.66666666666666</ele><time>2026-04-19T18:30:51Z</time></trkpt><trkpt lat="38.01481729653041" lon="-1.1983495838071057"><ele>136.33333333333334</ele><time>2026-04-19T18:30:53Z</time></trkpt><trkpt lat="38.01477434236224" lon="-1.198280429409297"><ele>137.0</ele><time>2026-04-19T18:30:55Z</time></trkpt><trkpt lat="38.01469947707829" lon="-1.1982438140794984"><ele>137.66666666666669</ele><time>2026-04-19T18:30:58Z</time></trkpt><trkpt lat="38.01462615915085" lon="-1.1982488974120071"><ele>138.33333333333334</ele><time>2026-04-19T18:31:00Z</time></trkpt><trkpt lat="38.0145827926727" lon="-1.1981617694537026"><ele>139.0</ele><time>2026-04-19T18:31:10Z</time></trkpt><trkpt lat="38.014553727235246" lon="-1.1980674627104493"><ele>139.0</ele><time>2026-04-19T18:31:13Z</time></trkpt><trkpt lat="38.01452269653822" lon="-1.1979627413325247"><ele>139.0</ele><time>2026-04-19T18:31:16Z</time></trkpt><trkpt lat="38.01448568295179" lon="-1.1978779754494855"><ele>139.0</ele><time>2026-04-19T18:31:18Z</time></trkpt><trkpt lat="38.014430399999384" lon="-1.1978029067443725"><ele>139.0</ele><time>2026-04-19T18:31:21Z</time></trkpt><trkpt lat="38.01439249152276" lon="-1.1977169282489466"><ele>139.0</ele><time>2026-04-19T18:31:24Z</time></trkpt><trkpt lat="38.014346679701106" lon="-1.1976328361883042"><ele>139.0</ele><time>2026-04-19T18:31:27Z</time></trkpt><trkpt lat="38.014320609693" lon="-1.1975494762240493"><ele>139.0</ele><time>2026-04-19T18:31:30Z</time></trkpt><trkpt lat="38.014272928802626" lon="-1.1974659659128957"><ele>139.0</ele><time>2026-04-19T18:31:34Z</time></trkpt><trkpt lat="38.014214004414775" lon="-1.1974197015141201"><ele>139.0</ele><time>2026-04-19T18:31:37Z</time></trkpt><trkpt lat="38.01414882805597" lon="-1.1974064868630523"><ele>139.0</ele><time>2026-04-19T18:31:40Z</time></trkpt><trkpt lat="38.014072840609394" lon="-1.1974550931764785"><ele>139.0</ele><time>2026-04-19T18:31:44Z</time></trkpt><trkpt lat="38.01400363133853" lon="-1.1974349742277233"><ele>139.0</ele><time>2026-04-19T18:31:47Z</time></trkpt><trkpt lat="38.01388179618163" lon="-1.1974172314360514"><ele>141.2</ele><time>2026-04-19T18:33:21Z</time></trkpt><trkpt lat="38.0138038095955" lon="-1.1974231359314074"><ele>143.4</ele><time>2026-04-19T18:33:23Z</time></trkpt><trkpt lat="38.013734036417745" lon="-1.1975187063768953"><ele>145.6</ele><time>2026-04-19T18:33:25Z</time></trkpt><trkpt lat="38.01365043851803" lon="-1.197575321217874"><ele>147.8</ele><time>2026-04-19T18:33:27Z</time></trkpt><trkpt lat="38.01356828934794" lon="-1.1976146940133219"><ele>150.0</ele><time>2026-04-19T18:33:29Z</time></trkpt><trkpt lat="38.01349016747949" lon="-1.1977158309257545"><ele>150.0</ele><time>2026-04-19T18:33:31Z</time></trkpt><trkpt lat="38.01341331070494" lon="-1.1978080215015388"><ele>150.0</ele><time>2026-04-19T18:33:33Z</time></trkpt><trkpt lat="38.01334284158862" lon="-1.197872095202156"><ele>150.0</ele><time>2026-04-19T18:33:35Z</time></trkpt><trkpt lat="38.01330459155122" lon="-1.197802131457356"><ele>150.0</ele><time>2026-04-19T18:35:42Z</time></trkpt><trkpt lat="38.01327569222859" lon="-1.1977297693392774"><ele>150.0</ele><time>2026-04-19T18:35:44Z</time></trkpt><trkpt lat="38.01327925913304" lon="-1.1976123121404025"><ele>150.0</ele><time>2026-04-19T18:35:46Z</time></trkpt><trkpt lat="38.013302625772795" lon="-1.1975000688950541"><ele>150.0</ele><time>2026-04-19T18:35:49Z</time></trkpt><trkpt lat="38.01332272413804" lon="-1.1973981780151188"><ele>150.0</ele><time>2026-04-19T18:35:52Z</time></trkpt><trkpt lat="38.01335944527953" lon="-1.1972953363053613"><ele>150.0</ele><time>2026-04-19T18:35:55Z</time></trkpt><trkpt lat="38.01339759982689" lon="-1.1972227943289078"><ele>150.0</ele><time>2026-04-19T18:35:57Z</time></trkpt><trkpt lat="38.013439682639905" lon="-1.1971454697321062"><ele>150.0</ele><time>2026-04-19T18:35:59Z</time></trkpt><trkpt lat="38.013485675635785" lon="-1.1970716704453939"><ele>150.0</ele><time>2026-04-19T18:36:01Z</time></trkpt><trkpt lat="38.0135452071869" lon="-1.19700510165961"><ele>149.66666666666666</ele><time>2026-04-19T18:36:03Z</time></trkpt><trkpt lat="38.013622590214695" lon="-1.1969666024096872"><ele>149.33333333333334</ele><time>2026-04-19T18:36:05Z</time></trkpt><trkpt lat="38.013686326401334" lon="-1.1969283232297494"><ele>149.0</ele><time>2026-04-19T18:36:07Z</time></trkpt><trkpt lat="38.01377337630651" lon="-1.1968726759417705"><ele>148.66666666666669</ele><time>2026-04-19T18:36:09Z</time></trkpt><trkpt lat="38.01385323300834" lon="-1.1968122526196505"><ele>148.33333333333334</ele><time>2026-04-19T18:36:11Z</time></trkpt><trkpt lat="38.013928278263684" lon="-1.1967334865275852"><ele>148.0</ele><time>2026-04-19T18:36:13Z</time></trkpt><trkpt lat="38.01397722710506" lon="-1.1966670982991108"><ele>148.0</ele><time>2026-04-19T18:36:15Z</time></trkpt><trkpt lat="38.014047139944765" lon="-1.1965900810714918"><ele>148.0</ele><time>2026-04-19T18:36:17Z</time></trkpt><trkpt lat="38.01410973253362" lon="-1.1965106764991233"><ele>148.0</ele><time>2026-04-19T18:36:19Z</time></trkpt><trkpt lat="38.014172798156814" lon="-1.196418352872266"><ele>148.0</ele><time>2026-04-19T18:36:21Z</time></trkpt><trkpt lat="38.01422350525319" lon="-1.196321443665483"><ele>148.0</ele><time>2026-04-19T18:36:23Z</time></trkpt><trkpt lat="38.01427158726312" lon="-1.1962298416418666"><ele>149.66666666666669</ele><time>2026-04-19T18:36:25Z</time></trkpt><trkpt lat="38.01431360246068" lon="-1.1961414003004276"><ele>151.33333333333334</ele><time>2026-04-19T18:36:27Z</time></trkpt><trkpt lat="38.01433182900138" lon="-1.1960600519920972"><ele>153.0</ele><time>2026-04-19T18:36:29Z</time></trkpt><trkpt lat="38.01432200411582" lon="-1.1959691178725922"><ele>154.66666666666666</ele><time>2026-04-19T18:36:31Z</time></trkpt><trkpt lat="38.0142796805337" lon="-1.1958176836705763"><ele>156.33333333333331</ele><time>2026-04-19T18:36:33Z</time></trkpt><trkpt lat="38.01425188734639" lon="-1.1957444267994377"><ele>158.0</ele><time>2026-04-19T18:36:34Z</time></trkpt><trkpt lat="38.01421671781513" lon="-1.1956753372418185"><ele>158.0</ele><time>2026-04-19T18:36:35Z</time></trkpt><trkpt lat="38.01417364291215" lon="-1.1955949490515576"><ele>158.0</ele><time>2026-04-19T18:36:36Z</time></trkpt><trkpt lat="38.014117686063855" lon="-1.1955210332851673"><ele>158.0</ele><time>2026-04-19T18:36:37Z</time></trkpt><trkpt lat="38.01406686112201" lon="-1.1954448972484872"><ele>158.0</ele><time>2026-04-19T18:36:38Z</time></trkpt><trkpt lat="38.014021502435114" lon="-1.1953679952996477"><ele>158.0</ele><time>2026-04-19T18:36:39Z</time></trkpt><trkpt lat="38.01396451385989" lon="-1.1952829322168137"><ele>158.0</ele><time>2026-04-19T18:36:40Z</time></trkpt><trkpt lat="38.01388825890304" lon="-1.1951768741020206"><ele>157.25</ele><time>2026-04-19T18:36:41Z</time></trkpt><trkpt lat="38.01380463084133" lon="-1.1950758524054952"><ele>156.5</ele><time>2026-04-19T18:36:42Z</time></trkpt><trkpt lat="38.01373674704316" lon="-1.1949992177010553"><ele>155.75</ele><time>2026-04-19T18:36:43Z</time></trkpt><trkpt lat="38.01369233467307" lon="-1.19487273477183"><ele>155.0</ele><time>2026-04-19T18:36:45Z</time></trkpt><trkpt lat="38.01370208063124" lon="-1.194701328427142"><ele>153.75</ele><time>2026-04-19T18:36:47Z</time></trkpt><trkpt lat="38.013714821142344" lon="-1.1945739243926383"><ele>152.5</ele><time>2026-04-19T18:36:48Z</time></trkpt><trkpt lat="38.013735123110465" lon="-1.1944269948816986"><ele>151.25</ele><time>2026-04-19T18:36:49Z</time></trkpt><trkpt lat="38.013749138182504" lon="-1.1942716155244018"><ele>150.0</ele><time>2026-04-19T18:36:50Z</time></trkpt><trkpt lat="38.013758827013994" lon="-1.194109841588051"><ele>149.0</ele><time>2026-04-19T18:36:51Z</time></trkpt><trkpt lat="38.013772026820234" lon="-1.1939512442493432"><ele>148.0</ele><time>2026-04-19T18:36:52Z</time></trkpt><trkpt lat="38.01378961342647" lon="-1.1937959055082832"><ele>147.0</ele><time>2026-04-19T18:36:53Z</time></trkpt><trkpt lat="38.01381310354227" lon="-1.193653418034557"><ele>146.0</ele><time>2026-04-19T18:36:54Z</time></trkpt><trkpt lat="38.01384595337934" lon="-1.1935230477696273"><ele>146.0</ele><time>2026-04-19T18:36:55Z</time></trkpt><trkpt lat="38.01388770904026" lon="-1.1933940690761606"><ele>146.0</ele><time>2026-04-19T18:36:56Z</time></trkpt><trkpt lat="38.01391833005957" lon="-1.1932632099376124"><ele>146.0</ele><time>2026-04-19T18:36:57Z</time></trkpt><trkpt lat="38.01393310507729" lon="-1.1931565134778763"><ele>146.0</ele><time>2026-04-19T18:36:58Z</time></trkpt><trkpt lat="38.01393609469507" lon="-1.1930672148164347"><ele>146.0</ele><time>2026-04-19T18:36:59Z</time></trkpt><trkpt lat="38.01391415459636" lon="-1.1929883098414589"><ele>146.0</ele><time>2026-04-19T18:37:00Z</time></trkpt><trkpt lat="38.01386129472516" lon="-1.1929009133414032"><ele>146.4</ele><time>2026-04-19T18:37:01Z</time></trkpt><trkpt lat="38.01378794541099" lon="-1.1927957990256974"><ele>146.8</ele><time>2026-04-19T18:37:02Z</time></trkpt><trkpt lat="38.01371040338378" lon="-1.1926827790250396"><ele>147.20000000000002</ele><time>2026-04-19T18:37:03Z</time></trkpt><trkpt lat="38.01363974569995" lon="-1.1925828997606136"><ele>147.6</ele><time>2026-04-19T18:37:04Z</time></trkpt><trkpt lat="38.01356509229856" lon="-1.1924992476938123"><ele>148.0</ele><time>2026-04-19T18:37:05Z</time></trkpt><trkpt lat="38.01349665154023" lon="-1.1924108249943568"><ele>148.20000000000002</ele><time>2026-04-19T18:37:06Z</time></trkpt><trkpt lat="38.01343843490971" lon="-1.192316245378231"><ele>148.4</ele><time>2026-04-19T18:37:07Z</time></trkpt><trkpt lat="38.01340140533039" lon="-1.1922056369940017"><ele>148.60000000000002</ele><time>2026-04-19T18:37:08Z</time></trkpt><trkpt lat="38.01337532593186" lon="-1.1920787841238725"><ele>148.8</ele><time>2026-04-19T18:37:09Z</time></trkpt><trkpt lat="38.01335998229972" lon="-1.1919538157533296"><ele>149.0</ele><time>2026-04-19T18:37:10Z</time></trkpt><trkpt lat="38.01335901083119" lon="-1.1918229678258858"><ele>149.0</ele><time>2026-04-19T18:37:11Z</time></trkpt><trkpt lat="38.01337452006331" lon="-1.1916970909164393"><ele>149.0</ele><time>2026-04-19T18:37:12Z</time></trkpt><trkpt lat="38.01339681395692" lon="-1.1915618082394936"><ele>149.0</ele><time>2026-04-19T18:37:13Z</time></trkpt><trkpt lat="38.01342544047772" lon="-1.1914220949759582"><ele>149.0</ele><time>2026-04-19T18:37:14Z</time></trkpt><trkpt lat="38.01345406086343" lon="-1.1913093917724087"><ele>149.0</ele><time>2026-04-19T18:37:15Z</time></trkpt><trkpt lat="38.0134935097378" lon="-1.1911999289918298"><ele>148.66666666666666</ele><time>2026-04-19T18:37:16Z</time></trkpt><trkpt lat="38.01354825656731" lon="-1.1911200816321454"><ele>148.33333333333331</ele><time>2026-04-19T18:37:17Z</time></trkpt><trkpt lat="38.01362036965462" lon="-1.1910489088604879"><ele>148.0</ele><time>2026-04-19T18:37:18Z</time></trkpt><trkpt lat="38.01370276974617" lon="-1.190985964868204"><ele>147.66666666666666</ele><time>2026-04-19T18:37:19Z</time></trkpt><trkpt lat="38.01378187794281" lon="-1.1909268985574148"><ele>147.33333333333334</ele><time>2026-04-19T18:37:20Z</time></trkpt><trkpt lat="38.01383714752511" lon="-1.1908616484470806"><ele>147.0</ele><time>2026-04-19T18:37:21Z</time></trkpt><trkpt lat="38.013882184554326" lon="-1.1907722133621916"><ele>147.0</ele><time>2026-04-19T18:37:22Z</time></trkpt><trkpt lat="38.013950656330735" lon="-1.1906634695392817"><ele>147.0</ele><time>2026-04-19T18:37:23Z</time></trkpt><trkpt lat="38.014013042297805" lon="-1.1905592136501266"><ele>147.0</ele><time>2026-04-19T18:37:24Z</time></trkpt><trkpt lat="38.014062355057895" lon="-1.1904401205751138"><ele>147.0</ele><time>2026-04-19T18:37:25Z</time></trkpt><trkpt lat="38.01409660572728" lon="-1.1903265702539416"><ele>147.0</ele><time>2026-04-19T18:37:26Z</time></trkpt><trkpt lat="38.01413693239815" lon="-1.1902126102244546"><ele>147.66666666666666</ele><time>2026-04-19T18:37:27Z</time></trkpt><trkpt lat="38.01418293985304" lon="-1.1901136795207545"><ele>148.33333333333334</ele><time>2026-04-19T18:37:28Z</time></trkpt><trkpt lat="38.01423800458413" lon="-1.1900338954452945"><ele>149.0</ele><time>2026-04-19T18:37:29Z</time></trkpt><trkpt lat="38.01430405286057" lon="-1.1899824455327976"><ele>149.66666666666669</ele><time>2026-04-19T18:37:30Z</time></trkpt><trkpt lat="38.01437235407616" lon="-1.1899449648875047"><ele>150.33333333333334</ele><time>2026-04-19T18:37:31Z</time></trkpt><trkpt lat="38.01443792855698" lon="-1.1899068094153114"><ele>151.0</ele><time>2026-04-19T18:37:32Z</time></trkpt><trkpt lat="38.01451002584938" lon="-1.1898673813830436"><ele>150.33333333333334</ele><time>2026-04-19T18:37:33Z</time></trkpt><trkpt lat="38.0145899150914" lon="-1.18980864968892"><ele>149.66666666666669</ele><time>2026-04-19T18:37:34Z</time></trkpt><trkpt lat="38.01467089256181" lon="-1.189739362654589"><ele>149.0</ele><time>2026-04-19T18:37:35Z</time></trkpt><trkpt lat="38.01474510088348" lon="-1.1896749668663318"><ele>148.33333333333334</ele><time>2026-04-19T18:37:36Z</time></trkpt><trkpt lat="38.014815635104355" lon="-1.189615832571702"><ele>147.66666666666666</ele><time>2026-04-19T18:37:37Z</time></trkpt><trkpt lat="38.01488164799317" lon="-1.1895865850229266"><ele>147.0</ele><time>2026-04-19T18:37:38Z</time></trkpt><trkpt lat="38.01495365987795" lon="-1.1895781548831337"><ele>147.0</ele><time>2026-04-19T18:37:39Z</time></trkpt><trkpt lat="38.015024299764356" lon="-1.1895714182414034"><ele>147.0</ele><time>2026-04-19T18:37:40Z</time></trkpt><trkpt lat="38.01510905515654" lon="-1.1895229999183052"><ele>147.0</ele><time>2026-04-19T18:37:42Z</time></trkpt><trkpt lat="38.01518445465617" lon="-1.1894285916969918"><ele>147.0</ele><time>2026-04-19T18:37:44Z</time></trkpt><trkpt lat="38.015275384411005" lon="-1.1894166707527314"><ele>147.0</ele><time>2026-04-19T18:37:46Z</time></trkpt><trkpt lat="38.01538683435404" lon="-1.189427162444639"><ele>147.0</ele><time>2026-04-19T18:37:48Z</time></trkpt><trkpt lat="38.0154515402944" lon="-1.1893692298729435"><ele>147.0</ele><time>2026-04-19T18:37:49Z</time></trkpt><trkpt lat="38.01550367546174" lon="-1.18931378827274"><ele>147.0</ele><time>2026-04-19T18:37:50Z</time></trkpt><trkpt lat="38.01555684703946" lon="-1.1892616767098994"><ele>147.0</ele><time>2026-04-19T18:37:51Z</time></trkpt><trkpt lat="38.0156246782926" lon="-1.1892809236298743"><ele>147.0</ele><time>2026-04-19T18:37:52Z</time></trkpt><trkpt lat="38.01569808540558" lon="-1.1892866210715618"><ele>147.0</ele><time>2026-04-19T18:37:53Z</time></trkpt><trkpt lat="38.01580139727611" lon="-1.1892616339782396"><ele>147.6</ele><time>2026-04-19T18:37:54Z</time></trkpt><trkpt lat="38.01588109326485" lon="-1.1892196531290964"><ele>148.2</ele><time>2026-04-19T18:37:55Z</time></trkpt><trkpt lat="38.01593034512999" lon="-1.189133085543313"><ele>148.8</ele><time>2026-04-19T18:37:56Z</time></trkpt><trkpt lat="38.01598262775314" lon="-1.1890419913516275"><ele>149.4</ele><time>2026-04-19T18:37:57Z</time></trkpt><trkpt lat="38.01605445126323" lon="-1.1889617629280906"><ele>150.0</ele><time>2026-04-19T18:37:58Z</time></trkpt><trkpt lat="38.01611207523516" lon="-1.1888338487426446"><ele>150.0</ele><time>2026-04-19T18:37:59Z</time></trkpt><trkpt lat="38.016189248165205" lon="-1.1887903717276216"><ele>150.0</ele><time>2026-04-19T18:38:00Z</time></trkpt><trkpt lat="38.01631229616502" lon="-1.1888187977831324"><ele>150.0</ele><time>2026-04-19T18:38:02Z</time></trkpt><trkpt lat="38.016386803335344" lon="-1.1888461471713117"><ele>150.0</ele><time>2026-04-19T18:38:03Z</time></trkpt><trkpt lat="38.016487894956484" lon="-1.18888649915687"><ele>150.0</ele><time>2026-04-19T18:38:04Z</time></trkpt><trkpt lat="38.01660467765663" lon="-1.1889251927277893"><ele>149.4</ele><time>2026-04-19T18:38:05Z</time></trkpt><trkpt lat="38.01671816865597" lon="-1.1889650068399686"><ele>148.8</ele><time>2026-04-19T18:38:06Z</time></trkpt><trkpt lat="38.01684668163226" lon="-1.1890081730606554"><ele>148.2</ele><time>2026-04-19T18:38:07Z</time></trkpt><trkpt lat="38.01692236633689" lon="-1.189031284333597"><ele>147.6</ele><time>2026-04-19T18:38:08Z</time></trkpt><trkpt lat="38.01700389003417" lon="-1.1890697767329204"><ele>147.0</ele><time>2026-04-19T18:38:09Z</time></trkpt><trkpt lat="38.0170700892498" lon="-1.1890960502281454"><ele>147.0</ele><time>2026-04-19T18:38:10Z</time></trkpt><trkpt lat="38.01713712826709" lon="-1.1891195764859115"><ele>147.0</ele><time>2026-04-19T18:38:11Z</time></trkpt><trkpt lat="38.017209958554716" lon="-1.1891480896949083"><ele>147.0</ele><time>2026-04-19T18:38:12Z</time></trkpt><trkpt lat="38.01728635981452" lon="-1.1891706275593958"><ele>147.0</ele><time>2026-04-19T18:38:13Z</time></trkpt><trkpt lat="38.017362583066365" lon="-1.1891800337758063"><ele>147.0</ele><time>2026-04-19T18:38:14Z</time></trkpt><trkpt lat="38.017437146690135" lon="-1.1891763137260374"><ele>147.0</ele><time>2026-04-19T18:38:15Z</time></trkpt><trkpt lat="38.01751157187794" lon="-1.1891586458442693"><ele>147.0</ele><time>2026-04-19T18:38:16Z</time></trkpt><trkpt lat="38.017580149336325" lon="-1.1891181863054041"><ele>147.0</ele><time>2026-04-19T18:38:17Z</time></trkpt><trkpt lat="38.01764790524382" lon="-1.1890686054277413"><ele>147.0</ele><time>2026-04-19T18:38:18Z</time></trkpt><trkpt lat="38.017697473630676" lon="-1.189009640121585"><ele>147.0</ele><time>2026-04-19T18:38:19Z</time></trkpt><trkpt lat="38.01773831335453" lon="-1.1889229241176091"><ele>147.0</ele><time>2026-04-19T18:38:20Z</time></trkpt><trkpt lat="38.017803750112044" lon="-1.1888183735884708"><ele>147.0</ele><time>2026-04-19T18:38:21Z</time></trkpt><trkpt lat="38.01787377686027" lon="-1.1887259911914672"><ele>147.0</ele><time>2026-04-19T18:38:22Z</time></trkpt><trkpt lat="38.017939608238876" lon="-1.1886713076648512"><ele>147.0</ele><time>2026-04-19T18:38:23Z</time></trkpt><trkpt lat="38.018025471398424" lon="-1.188613807025426"><ele>147.0</ele><time>2026-04-19T18:38:24Z</time></trkpt><trkpt lat="38.01810949820232" lon="-1.1885559259257532"><ele>147.0</ele><time>2026-04-19T18:38:25Z</time></trkpt><trkpt lat="38.01818122560142" lon="-1.1885112906327113"><ele>147.0</ele><time>2026-04-19T18:38:26Z</time></trkpt><trkpt lat="38.01824575271216" lon="-1.188475691823585"><ele>147.0</ele><time>2026-04-19T18:38:27Z</time></trkpt><trkpt lat="38.01834179485816" lon="-1.188469910779728"><ele>146.0</ele><time>2026-04-19T18:38:29Z</time></trkpt><trkpt lat="38.018388232102545" lon="-1.1885316266299575"><ele>145.0</ele><time>2026-04-19T18:38:31Z</time></trkpt><trkpt lat="38.018430832107214" lon="-1.1885971514805556"><ele>144.0</ele><time>2026-04-19T18:38:33Z</time></trkpt><trkpt lat="38.01851828703411" lon="-1.188555315792205"><ele>143.0</ele><time>2026-04-19T18:38:35Z</time></trkpt><trkpt lat="38.018574743897254" lon="-1.1885184620032847"><ele>142.0</ele><time>2026-04-19T18:38:36Z</time></trkpt><trkpt lat="38.01867103473052" lon="-1.1884810078713093"><ele>141.0</ele><time>2026-04-19T18:38:38Z</time></trkpt><trkpt lat="38.018780057114775" lon="-1.1884064923375124"><ele>141.0</ele><time>2026-04-19T18:38:40Z</time></trkpt><trkpt lat="38.01886882161231" lon="-1.1883708042966015"><ele>141.0</ele><time>2026-04-19T18:38:42Z</time></trkpt><trkpt lat="38.01896197189425" lon="-1.1883066427771105"><ele>141.0</ele><time>2026-04-19T18:38:44Z</time></trkpt><trkpt lat="38.01901561669862" lon="-1.1882459366674107"><ele>141.0</ele><time>2026-04-19T18:38:45Z</time></trkpt><trkpt lat="38.01911185785515" lon="-1.1881820199879558"><ele>141.0</ele><time>2026-04-19T18:38:47Z</time></trkpt><trkpt lat="38.019233993260926" lon="-1.1882160111656301"><ele>139.0</ele><time>2026-04-19T18:38:49Z</time></trkpt><trkpt lat="38.01930285757132" lon="-1.1882755588019935"><ele>137.0</ele><time>2026-04-19T18:38:50Z</time></trkpt><trkpt lat="38.019374935923814" lon="-1.188322948771229"><ele>135.0</ele><time>2026-04-19T18:38:51Z</time></trkpt><trkpt lat="38.019489866657985" lon="-1.188330393024878"><ele>133.0</ele><time>2026-04-19T18:38:53Z</time></trkpt><trkpt lat="38.019554931524816" lon="-1.1883264377601463"><ele>131.0</ele><time>2026-04-19T18:38:54Z</time></trkpt><trkpt lat="38.01968528278876" lon="-1.188311736864613"><ele>131.0</ele><time>2026-04-19T18:38:56Z</time></trkpt><trkpt lat="38.01980571920993" lon="-1.188285752312457"><ele>131.0</ele><time>2026-04-19T18:38:58Z</time></trkpt><trkpt lat="38.019869113833465" lon="-1.1883149204728605"><ele>131.0</ele><time>2026-04-19T18:38:59Z</time></trkpt><trkpt lat="38.019933849425634" lon="-1.1883821592685493"><ele>131.0</ele><time>2026-04-19T18:39:00Z</time></trkpt><trkpt lat="38.020031700226745" lon="-1.1884057905661993"><ele>131.0</ele><time>2026-04-19T18:39:02Z</time></trkpt><trkpt lat="38.02011484047597" lon="-1.1882710227737503"><ele>129.5</ele><time>2026-04-19T18:39:04Z</time></trkpt><trkpt lat="38.02014644484898" lon="-1.188179719488367"><ele>128.0</ele><time>2026-04-19T18:39:05Z</time></trkpt><trkpt lat="38.02022748055349" lon="-1.1880931927606107"><ele>126.5</ele><time>2026-04-19T18:39:07Z</time></trkpt><trkpt lat="38.02029203277847" lon="-1.1881042965374693"><ele>125.0</ele><time>2026-04-19T18:39:08Z</time></trkpt><trkpt lat="38.02034798941904" lon="-1.1881628077005209"><ele>123.49999999999999</ele><time>2026-04-19T18:39:09Z</time></trkpt><trkpt lat="38.02040729161566" lon="-1.1882487575526153"><ele>122.0</ele><time>2026-04-19T18:39:10Z</time></trkpt><trkpt lat="38.020485553608424" lon="-1.1883494982668146"><ele>121.66666666666666</ele><time>2026-04-19T18:39:11Z</time></trkpt><trkpt lat="38.020547859086825" lon="-1.1884385634001369"><ele>121.33333333333333</ele><time>2026-04-19T18:39:12Z</time></trkpt><trkpt lat="38.02060101838632" lon="-1.1885098271484795"><ele>121.0</ele><time>2026-04-19T18:39:13Z</time></trkpt><trkpt lat="38.020679318560646" lon="-1.1885681535669694"><ele>120.66666666666666</ele><time>2026-04-19T18:39:15Z</time></trkpt><trkpt lat="38.020745231644305" lon="-1.188598268226458"><ele>120.33333333333333</ele><time>2026-04-19T18:39:17Z</time></trkpt><trkpt lat="38.020806766633605" lon="-1.188619955421581"><ele>120.0</ele><time>2026-04-19T18:39:19Z</time></trkpt><trkpt lat="38.02098724971992" lon="-1.1887125474972333"><ele>118.2</ele><time>2026-04-19T18:39:22Z</time></trkpt><trkpt lat="38.02103715862998" lon="-1.1887644330935012"><ele>116.4</ele><time>2026-04-19T18:39:23Z</time></trkpt><trkpt lat="38.0211161144839" lon="-1.1888745889118708"><ele>114.6</ele><time>2026-04-19T18:39:25Z</time></trkpt><trkpt lat="38.021189212918955" lon="-1.1889494231040103"><ele>112.8</ele><time>2026-04-19T18:39:27Z</time></trkpt><trkpt lat="38.0212543476366" lon="-1.1890459376781186"><ele>111.0</ele><time>2026-04-19T18:39:29Z</time></trkpt><trkpt lat="38.02128866906875" lon="-1.1892172957115321"><ele>110.83333333333333</ele><time>2026-04-19T18:39:31Z</time></trkpt><trkpt lat="38.02131501299271" lon="-1.1893125033880962"><ele>110.66666666666666</ele><time>2026-04-19T18:39:32Z</time></trkpt><trkpt lat="38.02134522581213" lon="-1.1893978262520826"><ele>110.5</ele><time>2026-04-19T18:39:33Z</time></trkpt><trkpt lat="38.02137317949842" lon="-1.1894767494641736"><ele>110.33333333333333</ele><time>2026-04-19T18:39:34Z</time></trkpt><trkpt lat="38.02147164753131" lon="-1.1895710679593776"><ele>110.16666666666666</ele><time>2026-04-19T18:39:36Z</time></trkpt><trkpt lat="38.02153462255123" lon="-1.1896454397436078"><ele>110.0</ele><time>2026-04-19T18:39:37Z</time></trkpt><trkpt lat="38.02158582577889" lon="-1.1897201833216815"><ele>110.0</ele><time>2026-04-19T18:39:38Z</time></trkpt><trkpt lat="38.02161506812165" lon="-1.1897936580099906"><ele>110.0</ele><time>2026-04-19T18:39:39Z</time></trkpt><trkpt lat="38.02168308606905" lon="-1.1899112894055741"><ele>110.0</ele><time>2026-04-19T18:39:41Z</time></trkpt><trkpt lat="38.02171403742956" lon="-1.1900693293230151"><ele>110.0</ele><time>2026-04-19T18:39:43Z</time></trkpt><trkpt lat="38.02171922271668" lon="-1.1902056831369179"><ele>110.0</ele><time>2026-04-19T18:39:44Z</time></trkpt><trkpt lat="38.02173706227635" lon="-1.1903407016977678"><ele>109.4</ele><time>2026-04-19T18:39:45Z</time></trkpt><trkpt lat="38.02176432304011" lon="-1.1904795676344704"><ele>108.8</ele><time>2026-04-19T18:39:46Z</time></trkpt><trkpt lat="38.021774202417326" lon="-1.1905876842834588"><ele>108.19999999999999</ele><time>2026-04-19T18:39:47Z</time></trkpt><trkpt lat="38.021791868164414" lon="-1.1906882878797413"><ele>107.6</ele><time>2026-04-19T18:39:48Z</time></trkpt><trkpt lat="38.02182066892374" lon="-1.1907885516703336"><ele>107.0</ele><time>2026-04-19T18:39:49Z</time></trkpt><trkpt lat="38.02185544785458" lon="-1.1909133148822308"><ele>106.6</ele><time>2026-04-19T18:39:50Z</time></trkpt><trkpt lat="38.02188183979353" lon="-1.191025901561625"><ele>106.19999999999999</ele><time>2026-04-19T18:39:51Z</time></trkpt><trkpt lat="38.021897358014755" lon="-1.1911196745840529"><ele>105.8</ele><time>2026-04-19T18:39:52Z</time></trkpt><trkpt lat="38.02191583717257" lon="-1.1912401696638557"><ele>105.4</ele><time>2026-04-19T18:39:54Z</time></trkpt><trkpt lat="38.02198889608769" lon="-1.1913189399618962"><ele>105.0</ele><time>2026-04-19T18:39:57Z</time></trkpt><trkpt lat="38.02207515288194" lon="-1.1913679666004247"><ele>105.0</ele><time>2026-04-19T18:40:01Z</time></trkpt><trkpt lat="38.02216580358633" lon="-1.1914190696230609"><ele>105.0</ele><time>2026-04-19T18:40:03Z</time></trkpt><trkpt lat="38.022324516900156" lon="-1.1915294811555064"><ele>105.0</ele><time>2026-04-19T18:40:05Z</time></trkpt><trkpt lat="38.02239126113975" lon="-1.1914957854833093"><ele>105.0</ele><time>2026-04-19T18:40:06Z</time></trkpt><trkpt lat="38.02251644462894" lon="-1.1914528134591114"><ele>105.5</ele><time>2026-04-19T18:40:08Z</time></trkpt><trkpt lat="38.0225589075059" lon="-1.1912469773457792"><ele>106.0</ele><time>2026-04-19T18:40:12Z</time></trkpt><trkpt lat="38.022629251477895" lon="-1.1911504562611286"><ele>106.5</ele><time>2026-04-19T18:40:13Z</time></trkpt><trkpt lat="38.02271327846081" lon="-1.1910305543257267"><ele>107.0</ele><time>2026-04-19T18:40:15Z</time></trkpt><trkpt lat="38.02271148350477" lon="-1.190943255678141"><ele>106.99999999999999</ele><time>2026-04-19T18:40:17Z</time></trkpt><trkpt lat="38.022663113073605" lon="-1.190855201439597"><ele>107.0</ele><time>2026-04-19T18:40:19Z</time></trkpt><trkpt lat="38.02265070479949" lon="-1.1907632049835617"><ele>107.0</ele><time>2026-04-19T18:40:21Z</time></trkpt><trkpt lat="38.02263523707627" lon="-1.190685354827246"><ele>107.0</ele><time>2026-04-19T18:40:22Z</time></trkpt><trkpt lat="38.02261037267737" lon="-1.1906109721676612"><ele>106.99999999999999</ele><time>2026-04-19T18:40:23Z</time></trkpt><trkpt lat="38.02260078490717" lon="-1.1904793561959552"><ele>107.0</ele><time>2026-04-19T18:40:25Z</time></trkpt><trkpt lat="38.022636170872396" lon="-1.1903749460315205"><ele>107.8</ele><time>2026-04-19T18:40:27Z</time></trkpt><trkpt lat="38.02264524197656" lon="-1.19028759273093"><ele>108.6</ele><time>2026-04-19T18:40:28Z</time></trkpt><trkpt lat="38.0227051596133" lon="-1.1902323489055306"><ele>109.39999999999999</ele><time>2026-04-19T18:40:29Z</time></trkpt><trkpt lat="38.022871721480804" lon="-1.190201179595157"><ele>110.19999999999999</ele><time>2026-04-19T18:40:30Z</time></trkpt><trkpt lat="38.022967966288384" lon="-1.1901064395373908"><ele>111.0</ele><time>2026-04-19T18:40:31Z</time></trkpt><trkpt lat="38.02305934931956" lon="-1.1899714143099813"><ele>111.8</ele><time>2026-04-19T18:40:32Z</time></trkpt><trkpt lat="38.023111555659206" lon="-1.189835611924281"><ele>112.6</ele><time>2026-04-19T18:40:33Z</time></trkpt><trkpt lat="38.02317302721961" lon="-1.1897174060820745"><ele>113.4</ele><time>2026-04-19T18:40:34Z</time></trkpt><trkpt lat="38.02320833535289" lon="-1.1896278192010512"><ele>114.2</ele><time>2026-04-19T18:40:35Z</time></trkpt><trkpt lat="38.023254523533026" lon="-1.1895719935467524"><ele>115.0</ele><time>2026-04-19T18:40:36Z</time></trkpt><trkpt lat="38.023302319105625" lon="-1.1894352929054286"><ele>115.00000000000001</ele><time>2026-04-19T18:40:38Z</time></trkpt><trkpt lat="38.02330031027642" lon="-1.1893381391490379"><ele>115.0</ele><time>2026-04-19T18:40:39Z</time></trkpt><trkpt lat="38.023295759826794" lon="-1.1892447374094768"><ele>115.0</ele><time>2026-04-19T18:40:40Z</time></trkpt><trkpt lat="38.023341893710594" lon="-1.1891711170731287"><ele>115.0</ele><time>2026-04-19T18:40:41Z</time></trkpt><trkpt lat="38.02342030876692" lon="-1.1891245610607037"><ele>115.00000000000001</ele><time>2026-04-19T18:40:42Z</time></trkpt><trkpt lat="38.02346837251371" lon="-1.189065267488196"><ele>115.0</ele><time>2026-04-19T18:40:43Z</time></trkpt><trkpt lat="38.02349847456023" lon="-1.1889646191499057"><ele>116.2</ele><time>2026-04-19T18:40:44Z</time></trkpt><trkpt lat="38.02354327257758" lon="-1.1888699060337908"><ele>117.4</ele><time>2026-04-19T18:40:45Z</time></trkpt><trkpt lat="38.02357344596201" lon="-1.1887631036689799"><ele>118.6</ele><time>2026-04-19T18:40:46Z</time></trkpt><trkpt lat="38.02358681393121" lon="-1.1886392643967398"><ele>119.8</ele><time>2026-04-19T18:40:47Z</time></trkpt><trkpt lat="38.023612713866825" lon="-1.1884858834545378"><ele>121.0</ele><time>2026-04-19T18:40:48Z</time></trkpt><trkpt lat="38.0236523059073" lon="-1.1883661399817769"><ele>121.0</ele><time>2026-04-19T18:40:49Z</time></trkpt><trkpt lat="38.02370349148996" lon="-1.1882349675893442"><ele>121.0</ele><time>2026-04-19T18:40:50Z</time></trkpt><trkpt lat="38.0237587551992" lon="-1.1880752719225924"><ele>121.0</ele><time>2026-04-19T18:40:51Z</time></trkpt><trkpt lat="38.02380402579419" lon="-1.1879406434407436"><ele>121.0</ele><time>2026-04-19T18:40:52Z</time></trkpt><trkpt lat="38.02386141718045" lon="-1.1877986613341318"><ele>121.33333333333334</ele><time>2026-04-19T18:40:53Z</time></trkpt><trkpt lat="38.02392381903811" lon="-1.1876662661437822"><ele>121.66666666666667</ele><time>2026-04-19T18:40:54Z</time></trkpt><trkpt lat="38.023975238007004" lon="-1.1875774282618503"><ele>122.0</ele><time>2026-04-19T18:40:55Z</time></trkpt><trkpt lat="38.024013811801204" lon="-1.1874931213990383"><ele>122.33333333333334</ele><time>2026-04-19T18:40:56Z</time></trkpt><trkpt lat="38.02400969774807" lon="-1.187399651199191"><ele>122.66666666666667</ele><time>2026-04-19T18:40:57Z</time></trkpt><trkpt lat="38.02401403163844" lon="-1.187314637899"><ele>123.0</ele><time>2026-04-19T18:40:58Z</time></trkpt><trkpt lat="38.02406707863519" lon="-1.187228355572883"><ele>123.4</ele><time>2026-04-19T18:40:59Z</time></trkpt><trkpt lat="38.02412258875281" lon="-1.1871183811631754"><ele>123.80000000000001</ele><time>2026-04-19T18:41:00Z</time></trkpt><trkpt lat="38.02416807967621" lon="-1.1869782533398023"><ele>124.2</ele><time>2026-04-19T18:41:01Z</time></trkpt><trkpt lat="38.02420373588139" lon="-1.1868526094520893"><ele>124.6</ele><time>2026-04-19T18:41:02Z</time></trkpt><trkpt lat="38.02422619029472" lon="-1.1867148527729992"><ele>125.0</ele><time>2026-04-19T18:41:03Z</time></trkpt><trkpt lat="38.02424765034853" lon="-1.186580542286338"><ele>126.2</ele><time>2026-04-19T18:41:04Z</time></trkpt><trkpt lat="38.024278222938406" lon="-1.1864129805499695"><ele>127.4</ele><time>2026-04-19T18:41:05Z</time></trkpt><trkpt lat="38.02429982452576" lon="-1.1862662860003512"><ele>128.6</ele><time>2026-04-19T18:41:06Z</time></trkpt><trkpt lat="38.024322764517244" lon="-1.1861611009591455"><ele>129.8</ele><time>2026-04-19T18:41:07Z</time></trkpt><trkpt lat="38.02436597621251" lon="-1.1860567658373167"><ele>131.0</ele><time>2026-04-19T18:41:08Z</time></trkpt><trkpt lat="38.024415064913725" lon="-1.1859382459983374"><ele>131.0</ele><time>2026-04-19T18:41:09Z</time></trkpt><trkpt lat="38.02445343477828" lon="-1.1858589433569764"><ele>131.0</ele><time>2026-04-19T18:41:10Z</time></trkpt><trkpt lat="38.024530403227814" lon="-1.1858197604161158"><ele>131.0</ele><time>2026-04-19T18:41:13Z</time></trkpt><trkpt lat="38.02462337798206" lon="-1.1857368968870106"><ele>131.0</ele><time>2026-04-19T18:41:15Z</time></trkpt><trkpt lat="38.02477828845178" lon="-1.1856382675640909"><ele>131.0</ele><time>2026-04-19T18:41:17Z</time></trkpt><trkpt lat="38.024813301669454" lon="-1.1855393272649835"><ele>131.66666666666666</ele><time>2026-04-19T18:41:19Z</time></trkpt><trkpt lat="38.02481097079189" lon="-1.1854540339030528"><ele>132.33333333333331</ele><time>2026-04-19T18:41:20Z</time></trkpt><trkpt lat="38.024818338275686" lon="-1.1853521576074417"><ele>133.0</ele><time>2026-04-19T18:41:21Z</time></trkpt><trkpt lat="38.02484320379" lon="-1.1852531026024211"><ele>133.66666666666666</ele><time>2026-04-19T18:41:22Z</time></trkpt><trkpt lat="38.02487170878966" lon="-1.185179712163927"><ele>134.33333333333334</ele><time>2026-04-19T18:41:23Z</time></trkpt><trkpt lat="38.02495622708989" lon="-1.1851710727663962"><ele>135.0</ele><time>2026-04-19T18:41:26Z</time></trkpt><trkpt lat="38.02508077758335" lon="-1.1852410413769852"><ele>135.0</ele><time>2026-04-19T18:41:28Z</time></trkpt><trkpt lat="38.0251741717856" lon="-1.185322181054872"><ele>135.0</ele><time>2026-04-19T18:41:30Z</time></trkpt><trkpt lat="38.02525548067196" lon="-1.1853851434260572"><ele>135.0</ele><time>2026-04-19T18:41:32Z</time></trkpt><trkpt lat="38.02532581844992" lon="-1.1854044042215046"><ele>135.0</ele><time>2026-04-19T18:41:35Z</time></trkpt><trkpt lat="38.02539539043252" lon="-1.185428151808845"><ele>135.0</ele><time>2026-04-19T18:41:38Z</time></trkpt><trkpt lat="38.02548061793034" lon="-1.1854549387027953"><ele>135.0</ele><time>2026-04-19T18:41:39Z</time></trkpt><trkpt lat="38.025545020994436" lon="-1.185479063434493"><ele>135.0</ele><time>2026-04-19T18:41:41Z</time></trkpt><trkpt lat="38.02561024482631" lon="-1.1854673481342535"><ele>135.0</ele><time>2026-04-19T18:41:43Z</time></trkpt><trkpt lat="38.02568742083719" lon="-1.185444918248051"><ele>135.0</ele><time>2026-04-19T18:41:45Z</time></trkpt><trkpt lat="38.02576725878318" lon="-1.1854504846381686"><ele>135.0</ele><time>2026-04-19T18:41:47Z</time></trkpt><trkpt lat="38.02581767212583" lon="-1.1853683772991175"><ele>135.0</ele><time>2026-04-19T18:41:49Z</time></trkpt><trkpt lat="38.025884134660295" lon="-1.1853036663177487"><ele>135.0</ele><time>2026-04-19T18:41:51.018Z</time></trkpt><trkpt lat="38.025961648778285" lon="-1.185350465285307"><ele>133.25</ele><time>2026-04-19T18:41:54.019Z</time></trkpt><trkpt lat="38.026088881341764" lon="-1.185115361587317"><ele>131.5</ele><time>2026-04-19T18:42:00Z</time></trkpt><trkpt lat="38.02599835762231" lon="-1.1850682439856033"><ele>129.75</ele><time>2026-04-19T18:42:04Z</time></trkpt><trkpt lat="38.02598107413811" lon="-1.1849895632544882"><ele>128.0</ele><time>2026-04-19T18:42:05Z</time></trkpt><trkpt lat="38.02595614196532" lon="-1.184899415549918"><ele>130.5</ele><time>2026-04-19T18:42:06Z</time></trkpt><trkpt lat="38.025711045058536" lon="-1.1848397434712334"><ele>133.0</ele><time>2026-04-19T18:42:08Z</time></trkpt><trkpt lat="38.02568286616825" lon="-1.1847445934539493"><ele>135.5</ele><time>2026-04-19T18:42:09Z</time></trkpt><trkpt lat="38.02564986706241" lon="-1.184632579146207"><ele>138.0</ele><time>2026-04-19T18:42:10Z</time></trkpt><trkpt lat="38.025618080630466" lon="-1.1845246431595364"><ele>138.0</ele><time>2026-04-19T18:42:11Z</time></trkpt><trkpt lat="38.025575708655865" lon="-1.1843817037222837"><ele>138.0</ele><time>2026-04-19T18:42:12Z</time></trkpt><trkpt lat="38.025532057888604" lon="-1.1842358443952392"><ele>138.0</ele><time>2026-04-19T18:42:13Z</time></trkpt><trkpt lat="38.02549259703922" lon="-1.1841039858655524"><ele>138.0</ele><time>2026-04-19T18:42:15Z</time></trkpt><trkpt lat="38.025467135963396" lon="-1.18401890741213"><ele>138.0</ele><time>2026-04-19T18:42:16Z</time></trkpt><trkpt lat="38.025785487813714" lon="-1.1837531489385704"><ele>136.83333333333334</ele><time>2026-04-19T18:42:23Z</time></trkpt><trkpt lat="38.02588384093635" lon="-1.1837132542612727"><ele>135.66666666666666</ele><time>2026-04-19T18:42:25Z</time></trkpt><trkpt lat="38.02595610988376" lon="-1.183669637298506"><ele>134.5</ele><time>2026-04-19T18:42:27Z</time></trkpt><trkpt lat="38.02593564461943" lon="-1.1835645271186157"><ele>133.33333333333331</ele><time>2026-04-19T18:42:30Z</time></trkpt><trkpt lat="38.025994180760435" lon="-1.1835012205369027"><ele>132.16666666666666</ele><time>2026-04-19T18:42:33Z</time></trkpt><trkpt lat="38.0260885126815" lon="-1.1834618666371874"><ele>131.0</ele><time>2026-04-19T18:42:36Z</time></trkpt><trkpt lat="38.02615434231692" lon="-1.1834595169606061"><ele>131.0</ele><time>2026-04-19T18:42:37Z</time></trkpt><trkpt lat="38.02621969856674" lon="-1.1834944727651493"><ele>131.0</ele><time>2026-04-19T18:42:39Z</time></trkpt><trkpt lat="38.02629876617984" lon="-1.1834477911207415"><ele>131.0</ele><time>2026-04-19T18:42:42Z</time></trkpt><trkpt lat="38.026450203105036" lon="-1.1833364134737836"><ele>131.0</ele><time>2026-04-19T18:42:45Z</time></trkpt><trkpt lat="38.026531601904175" lon="-1.1832919247679865"><ele>131.0</ele><time>2026-04-19T18:42:47Z</time></trkpt><trkpt lat="38.02661338701695" lon="-1.183275857642381"><ele>132.16666666666666</ele><time>2026-04-19T18:42:49Z</time></trkpt><trkpt lat="38.02669655363511" lon="-1.1832588681742067"><ele>133.33333333333331</ele><time>2026-04-19T18:42:51Z</time></trkpt><trkpt lat="38.0267637018594" lon="-1.1831947708295905"><ele>134.5</ele><time>2026-04-19T18:42:54Z</time></trkpt><trkpt lat="38.02682321712342" lon="-1.1831416467117677"><ele>135.66666666666666</ele><time>2026-04-19T18:42:56Z</time></trkpt><trkpt lat="38.02689599229542" lon="-1.1831218506617742"><ele>136.83333333333334</ele><time>2026-04-19T18:42:58Z</time></trkpt><trkpt lat="38.02697395962419" lon="-1.1831131189669029"><ele>138.0</ele><time>2026-04-19T18:43:00Z</time></trkpt><trkpt lat="38.02704892991211" lon="-1.1831127576767877"><ele>138.0</ele><time>2026-04-19T18:43:02Z</time></trkpt><trkpt lat="38.02712269668418" lon="-1.183161945290783"><ele>138.0</ele><time>2026-04-19T18:43:04Z</time></trkpt><trkpt lat="38.027169647339505" lon="-1.1830944958500296"><ele>138.0</ele><time>2026-04-19T18:43:07Z</time></trkpt><trkpt lat="38.02721999593631" lon="-1.1830082781638143"><ele>138.0</ele><time>2026-04-19T18:43:10Z</time></trkpt><trkpt lat="38.02730350184507" lon="-1.1829243633828472"><ele>138.0</ele><time>2026-04-19T18:43:13Z</time></trkpt><trkpt lat="38.02741910972336" lon="-1.182765516622664"><ele>138.0</ele><time>2026-04-19T18:43:15Z</time></trkpt><trkpt lat="38.02744689700278" lon="-1.182665217953898"><ele>138.0</ele><time>2026-04-19T18:43:17Z</time></trkpt><trkpt lat="38.0274866056206" lon="-1.1825622356297452"><ele>138.0</ele><time>2026-04-19T18:43:19Z</time></trkpt><trkpt lat="38.027564945124325" lon="-1.182505677548693"><ele>138.0</ele><time>2026-04-19T18:43:21Z</time></trkpt><trkpt lat="38.02764051201346" lon="-1.1824528937758745"><ele>138.0</ele><time>2026-04-19T18:43:23Z</time></trkpt><trkpt lat="38.02772472345245" lon="-1.1823815875387453"><ele>139.8</ele><time>2026-04-19T18:43:25Z</time></trkpt><trkpt lat="38.02778484763914" lon="-1.1822936295048214"><ele>141.60000000000002</ele><time>2026-04-19T18:43:27Z</time></trkpt><trkpt lat="38.0278277803491" lon="-1.182211854575041"><ele>143.39999999999998</ele><time>2026-04-19T18:43:29Z</time></trkpt><trkpt lat="38.02789229205228" lon="-1.1821540068394882"><ele>145.2</ele><time>2026-04-19T18:43:31Z</time></trkpt><trkpt lat="38.02799191000249" lon="-1.1820804605957362"><ele>147.0</ele><time>2026-04-19T18:43:33Z</time></trkpt><trkpt lat="38.02810892972687" lon="-1.1820526296547151"><ele>147.0</ele><time>2026-04-19T18:43:34Z</time></trkpt><trkpt lat="38.02825402537408" lon="-1.1821229361263301"><ele>147.0</ele><time>2026-04-19T18:43:35Z</time></trkpt><trkpt lat="38.028338563486834" lon="-1.1821364635199443"><ele>147.0</ele><time>2026-04-19T18:43:37Z</time></trkpt><trkpt lat="38.02837703654812" lon="-1.1820625057283516"><ele>147.0</ele><time>2026-04-19T18:43:39Z</time></trkpt><trkpt lat="38.02842699569787" lon="-1.181983328648864"><ele>147.0</ele><time>2026-04-19T18:43:42Z</time></trkpt><trkpt lat="38.02853982996345" lon="-1.1819846929431155"><ele>148.0</ele><time>2026-04-19T18:43:44Z</time></trkpt><trkpt lat="38.02861138817975" lon="-1.1820459658087001"><ele>149.0</ele><time>2026-04-19T18:43:45Z</time></trkpt><trkpt lat="38.02870332627605" lon="-1.1821364875149634"><ele>150.0</ele><time>2026-04-19T18:43:46Z</time></trkpt><trkpt lat="38.02880111893649" lon="-1.1822130088318996"><ele>151.0</ele><time>2026-04-19T18:43:47Z</time></trkpt><trkpt lat="38.02890480202029" lon="-1.182284542797332"><ele>152.0</ele><time>2026-04-19T18:43:48Z</time></trkpt><trkpt lat="38.028986584634346" lon="-1.1823388787500748"><ele>152.33333333333331</ele><time>2026-04-19T18:43:49Z</time></trkpt><trkpt lat="38.02906555019972" lon="-1.1823735411615224"><ele>152.66666666666666</ele><time>2026-04-19T18:43:50Z</time></trkpt><trkpt lat="38.029153851134645" lon="-1.1823962606045146"><ele>153.0</ele><time>2026-04-19T18:43:51Z</time></trkpt><trkpt lat="38.02923194808622" lon="-1.1824057307141853"><ele>153.33333333333334</ele><time>2026-04-19T18:43:52Z</time></trkpt><trkpt lat="38.02931993720028" lon="-1.1823860815959217"><ele>153.66666666666669</ele><time>2026-04-19T18:43:53Z</time></trkpt><trkpt lat="38.029410171979194" lon="-1.1823474141879522"><ele>154.0</ele><time>2026-04-19T18:43:54Z</time></trkpt><trkpt lat="38.029498305303946" lon="-1.1823089880014654"><ele>156.0</ele><time>2026-04-19T18:43:55Z</time></trkpt><trkpt lat="38.02956984292421" lon="-1.18228732722844"><ele>158.0</ele><time>2026-04-19T18:43:56Z</time></trkpt><trkpt lat="38.029663118908324" lon="-1.1822760756922284"><ele>160.0</ele><time>2026-04-19T18:43:58Z</time></trkpt><trkpt lat="38.02973302316586" lon="-1.1822608121988818"><ele>162.0</ele><time>2026-04-19T18:44:01Z</time></trkpt><trkpt lat="38.029821609622786" lon="-1.1821091983598133"><ele>164.0</ele><time>2026-04-19T18:44:03Z</time></trkpt><trkpt lat="38.02986836819165" lon="-1.1819929156227045"><ele>164.0</ele><time>2026-04-19T18:44:04Z</time></trkpt><trkpt lat="38.029927918043924" lon="-1.1818721530666731"><ele>164.0</ele><time>2026-04-19T18:44:05Z</time></trkpt><trkpt lat="38.029993565995554" lon="-1.1817086232001186"><ele>164.0</ele><time>2026-04-19T18:44:06Z</time></trkpt><trkpt lat="38.030038028859515" lon="-1.1815974556720923"><ele>164.0</ele><time>2026-04-19T18:44:07Z</time></trkpt><trkpt lat="38.03008013320455" lon="-1.1814872230994329"><ele>164.0</ele><time>2026-04-19T18:44:08Z</time></trkpt><trkpt lat="38.03012594956881" lon="-1.1813719241462715"><ele>164.0</ele><time>2026-04-19T18:44:09Z</time></trkpt><trkpt lat="38.03017316355447" lon="-1.1812503118155313"><ele>164.0</ele><time>2026-04-19T18:44:10Z</time></trkpt><trkpt lat="38.030224073129354" lon="-1.1811316458960772"><ele>164.0</ele><time>2026-04-19T18:44:11Z</time></trkpt><trkpt lat="38.03027774985724" lon="-1.1810040929106065"><ele>164.0</ele><time>2026-04-19T18:44:12Z</time></trkpt><trkpt lat="38.03033284349323" lon="-1.1808756330707246"><ele>164.0</ele><time>2026-04-19T18:44:13Z</time></trkpt><trkpt lat="38.03039005105993" lon="-1.1807374914600302"><ele>164.0</ele><time>2026-04-19T18:44:14Z</time></trkpt><trkpt lat="38.03045190987895" lon="-1.1805938774759543"><ele>164.0</ele><time>2026-04-19T18:44:15Z</time></trkpt><trkpt lat="38.03051024076137" lon="-1.1804443628969434"><ele>164.0</ele><time>2026-04-19T18:44:16Z</time></trkpt><trkpt lat="38.03056048510892" lon="-1.1803153448754582"><ele>164.25</ele><time>2026-04-19T18:44:17Z</time></trkpt><trkpt lat="38.03060721827716" lon="-1.1801879084113789"><ele>164.5</ele><time>2026-04-19T18:44:18Z</time></trkpt><trkpt lat="38.03064154390541" lon="-1.1800466848759126"><ele>164.75</ele><time>2026-04-19T18:44:19Z</time></trkpt><trkpt lat="38.03067190353933" lon="-1.1798963056188805"><ele>165.0</ele><time>2026-04-19T18:44:20Z</time></trkpt><trkpt lat="38.0307031019049" lon="-1.1797250476137366"><ele>164.75</ele><time>2026-04-19T18:44:21Z</time></trkpt><trkpt lat="38.030732514992295" lon="-1.17955685152895"><ele>164.5</ele><time>2026-04-19T18:44:22Z</time></trkpt><trkpt lat="38.03076270448091" lon="-1.1794120686093377"><ele>164.25</ele><time>2026-04-19T18:44:23Z</time></trkpt><trkpt lat="38.030793203859695" lon="-1.1792717427180945"><ele>164.0</ele><time>2026-04-19T18:44:24Z</time></trkpt><trkpt lat="38.03083334430511" lon="-1.1791244729168766"><ele>163.25</ele><time>2026-04-19T18:44:25Z</time></trkpt><trkpt lat="38.03089061015168" lon="-1.1789827666349615"><ele>162.5</ele><time>2026-04-19T18:44:26Z</time></trkpt><trkpt lat="38.03095573763226" lon="-1.1788330046233826"><ele>161.75</ele><time>2026-04-19T18:44:27Z</time></trkpt><trkpt lat="38.031016405432425" lon="-1.1786852044969467"><ele>161.0</ele><time>2026-04-19T18:44:28Z</time></trkpt><trkpt lat="38.03107471307031" lon="-1.1785453010368705"><ele>161.0</ele><time>2026-04-19T18:44:29Z</time></trkpt><trkpt lat="38.031131468788935" lon="-1.1784067631918245"><ele>161.0</ele><time>2026-04-19T18:44:30Z</time></trkpt><trkpt lat="38.031186371350856" lon="-1.178269796286224"><ele>161.0</ele><time>2026-04-19T18:44:31Z</time></trkpt><trkpt lat="38.03124187000616" lon="-1.1781335490076619"><ele>161.0</ele><time>2026-04-19T18:44:32Z</time></trkpt><trkpt lat="38.03129994045696" lon="-1.1780022476492975"><ele>159.25</ele><time>2026-04-19T18:44:33Z</time></trkpt><trkpt lat="38.03133892340994" lon="-1.1778619213396"><ele>157.5</ele><time>2026-04-19T18:44:34Z</time></trkpt><trkpt lat="38.03140432735038" lon="-1.1777424236968144"><ele>155.75</ele><time>2026-04-19T18:44:35Z</time></trkpt><trkpt lat="38.03145539037976" lon="-1.1776127036633848"><ele>154.0</ele><time>2026-04-19T18:44:36Z</time></trkpt><trkpt lat="38.03150323572382" lon="-1.1774917156621163"><ele>154.0</ele><time>2026-04-19T18:44:37Z</time></trkpt><trkpt lat="38.031552545249454" lon="-1.1773731184105571"><ele>154.0</ele><time>2026-04-19T18:44:38Z</time></trkpt><trkpt lat="38.03160022507464" lon="-1.177255882978649"><ele>154.0</ele><time>2026-04-19T18:44:39Z</time></trkpt><trkpt lat="38.03164216932102" lon="-1.1771514884701957"><ele>154.0</ele><time>2026-04-19T18:44:40Z</time></trkpt><trkpt lat="38.031675702297655" lon="-1.1770635608181272"><ele>154.0</ele><time>2026-04-19T18:44:41Z</time></trkpt><trkpt lat="38.031677435214654" lon="-1.176931724791183"><ele>153.0</ele><time>2026-04-19T18:44:43Z</time></trkpt><trkpt lat="38.03160053391325" lon="-1.1768323219828225"><ele>152.0</ele><time>2026-04-19T18:44:45Z</time></trkpt><trkpt lat="38.03152149836261" lon="-1.1767423436441233"><ele>151.0</ele><time>2026-04-19T18:44:46Z</time></trkpt><trkpt lat="38.031426026344214" lon="-1.1766772451355372"><ele>150.0</ele><time>2026-04-19T18:44:47Z</time></trkpt><trkpt lat="38.031367107501694" lon="-1.1766138543843425"><ele>149.0</ele><time>2026-04-19T18:44:48Z</time></trkpt><trkpt lat="38.03131741099204" lon="-1.1765503904266181"><ele>148.25</ele><time>2026-04-19T18:44:49Z</time></trkpt><trkpt lat="38.03137254235435" lon="-1.1763129042297344"><ele>147.5</ele><time>2026-04-19T18:44:52Z</time></trkpt><trkpt lat="38.03142290474871" lon="-1.1762485530456066"><ele>146.75</ele><time>2026-04-19T18:44:53Z</time></trkpt><trkpt lat="38.031468182105655" lon="-1.1761610760481638"><ele>146.0</ele><time>2026-04-19T18:44:55Z</time></trkpt><trkpt lat="38.031642507787836" lon="-1.1762135036130792"><ele>146.0</ele><time>2026-04-19T18:44:57Z</time></trkpt><trkpt lat="38.031724407888106" lon="-1.1762931093701043"><ele>146.0</ele><time>2026-04-19T18:44:58Z</time></trkpt><trkpt lat="38.03181005274766" lon="-1.1764038858876424"><ele>146.0</ele><time>2026-04-19T18:44:59Z</time></trkpt><trkpt lat="38.0318925559736" lon="-1.1765210958708867"><ele>146.0</ele><time>2026-04-19T18:45:00Z</time></trkpt><trkpt lat="38.031996992863746" lon="-1.1766486036919057"><ele>146.25</ele><time>2026-04-19T18:45:01Z</time></trkpt><trkpt lat="38.03208776620579" lon="-1.176749316552148"><ele>146.5</ele><time>2026-04-19T18:45:02Z</time></trkpt><trkpt lat="38.032200264718746" lon="-1.1768525463736834"><ele>146.75</ele><time>2026-04-19T18:45:03Z</time></trkpt><trkpt lat="38.03230678395256" lon="-1.1769529759891835"><ele>147.0</ele><time>2026-04-19T18:45:04Z</time></trkpt><trkpt lat="38.03241730815945" lon="-1.1770699473036486"><ele>147.5</ele><time>2026-04-19T18:45:05Z</time></trkpt><trkpt lat="38.032521267816556" lon="-1.1771940651244046"><ele>148.0</ele><time>2026-04-19T18:45:06Z</time></trkpt><trkpt lat="38.03263538883112" lon="-1.177320158695155"><ele>148.5</ele><time>2026-04-19T18:45:07Z</time></trkpt><trkpt lat="38.03275071119172" lon="-1.1774344648262982"><ele>149.0</ele><time>2026-04-19T18:45:08Z</time></trkpt><trkpt lat="38.0328575201623" lon="-1.1775478985296732"><ele>149.0</ele><time>2026-04-19T18:45:09Z</time></trkpt><trkpt lat="38.03297325927288" lon="-1.1776727639170381"><ele>149.0</ele><time>2026-04-19T18:45:10Z</time></trkpt><trkpt lat="38.03308695654262" lon="-1.1778048920870452"><ele>149.0</ele><time>2026-04-19T18:45:11Z</time></trkpt><trkpt lat="38.033190489048096" lon="-1.177946494905383"><ele>149.0</ele><time>2026-04-19T18:45:12Z</time></trkpt><trkpt lat="38.03328816637699" lon="-1.1780935588026757"><ele>149.0</ele><time>2026-04-19T18:45:13Z</time></trkpt><trkpt lat="38.03338528324088" lon="-1.1782425727312753"><ele>149.0</ele><time>2026-04-19T18:45:14Z</time></trkpt><trkpt lat="38.03347766863185" lon="-1.178386978794826"><ele>151.25</ele><time>2026-04-19T18:45:15Z</time></trkpt><trkpt lat="38.033562045274685" lon="-1.1785287953792993"><ele>153.5</ele><time>2026-04-19T18:45:16Z</time></trkpt><trkpt lat="38.03364273863459" lon="-1.1786801853718096"><ele>155.75</ele><time>2026-04-19T18:45:17Z</time></trkpt><trkpt lat="38.03372447804708" lon="-1.1788306883021022"><ele>158.0</ele><time>2026-04-19T18:45:18Z</time></trkpt><trkpt lat="38.03382000340275" lon="-1.1789964635712409"><ele>157.75</ele><time>2026-04-19T18:45:19Z</time></trkpt><trkpt lat="38.033903671394356" lon="-1.1791457155044998"><ele>157.5</ele><time>2026-04-19T18:45:20Z</time></trkpt><trkpt lat="38.03398268882749" lon="-1.179281311209798"><ele>157.25</ele><time>2026-04-19T18:45:21Z</time></trkpt><trkpt lat="38.03405188502875" lon="-1.1794018429191215"><ele>157.0</ele><time>2026-04-19T18:45:22Z</time></trkpt><trkpt lat="38.03413392769348" lon="-1.1795393730198167"><ele>156.75</ele><time>2026-04-19T18:45:23Z</time></trkpt><trkpt lat="38.03421436891274" lon="-1.179683983827299"><ele>156.5</ele><time>2026-04-19T18:45:24Z</time></trkpt><trkpt lat="38.03429212112802" lon="-1.179832045618407"><ele>156.25</ele><time>2026-04-19T18:45:25Z</time></trkpt><trkpt lat="38.03437162725511" lon="-1.1799823170929882"><ele>156.0</ele><time>2026-04-19T18:45:26Z</time></trkpt><trkpt lat="38.034454343219316" lon="-1.180132444151468"><ele>155.5</ele><time>2026-04-19T18:45:27Z</time></trkpt><trkpt lat="38.034545156990156" lon="-1.1802813153612493"><ele>155.0</ele><time>2026-04-19T18:45:28Z</time></trkpt><trkpt lat="38.034623896931905" lon="-1.180421333172321"><ele>154.5</ele><time>2026-04-19T18:45:29Z</time></trkpt><trkpt lat="38.03468906994368" lon="-1.1805423826532015"><ele>154.0</ele><time>2026-04-19T18:45:30Z</time></trkpt><trkpt lat="38.03476429516036" lon="-1.1806749856869685"><ele>154.0</ele><time>2026-04-19T18:45:31Z</time></trkpt><trkpt lat="38.034842614280954" lon="-1.1808237204341347"><ele>154.0</ele><time>2026-04-19T18:45:32Z</time></trkpt><trkpt lat="38.034908607486486" lon="-1.1809606202957736"><ele>154.0</ele><time>2026-04-19T18:45:33Z</time></trkpt><trkpt lat="38.034969719843936" lon="-1.1810996161791993"><ele>154.0</ele><time>2026-04-19T18:45:34Z</time></trkpt><trkpt lat="38.03502716058078" lon="-1.1812503204804798"><ele>154.25</ele><time>2026-04-19T18:45:35Z</time></trkpt><trkpt lat="38.03508507301981" lon="-1.1814293905995474"><ele>154.5</ele><time>2026-04-19T18:45:36Z</time></trkpt><trkpt lat="38.03512626449826" lon="-1.1815937491719435"><ele>154.75</ele><time>2026-04-19T18:45:37Z</time></trkpt><trkpt lat="38.035161269898126" lon="-1.1817450859405387"><ele>155.0</ele><time>2026-04-19T18:45:38Z</time></trkpt><trkpt lat="38.03518750202627" lon="-1.181887133003668"><ele>155.25</ele><time>2026-04-19T18:45:39Z</time></trkpt><trkpt lat="38.03520259822962" lon="-1.182024388201137"><ele>155.5</ele><time>2026-04-19T18:45:40Z</time></trkpt><trkpt lat="38.03520867855241" lon="-1.1821809470031412"><ele>155.75</ele><time>2026-04-19T18:45:41Z</time></trkpt><trkpt lat="38.03520004457398" lon="-1.1823426248981515"><ele>156.0</ele><time>2026-04-19T18:45:42Z</time></trkpt><trkpt lat="38.03522347855927" lon="-1.1825073634654328"><ele>153.25</ele><time>2026-04-19T18:45:43Z</time></trkpt><trkpt lat="38.03521703482269" lon="-1.1826773937230233"><ele>150.5</ele><time>2026-04-19T18:45:44Z</time></trkpt><trkpt lat="38.03523969795898" lon="-1.182873701021877"><ele>147.75</ele><time>2026-04-19T18:45:45Z</time></trkpt><trkpt lat="38.035250314982434" lon="-1.1830713378105044"><ele>145.0</ele><time>2026-04-19T18:45:46Z</time></trkpt><trkpt lat="38.03526019203385" lon="-1.1832555362278456"><ele>144.75</ele><time>2026-04-19T18:45:47Z</time></trkpt><trkpt lat="38.03526728596458" lon="-1.1834217898096662"><ele>144.5</ele><time>2026-04-19T18:45:48Z</time></trkpt><trkpt lat="38.03527552228162" lon="-1.183587622944269"><ele>144.25</ele><time>2026-04-19T18:45:49Z</time></trkpt><trkpt lat="38.035291139263094" lon="-1.1837764871241045"><ele>144.0</ele><time>2026-04-19T18:45:50Z</time></trkpt><trkpt lat="38.03530517039373" lon="-1.1839796921746817"><ele>143.5</ele><time>2026-04-19T18:45:51Z</time></trkpt><trkpt lat="38.03531679920549" lon="-1.1841668518636235"><ele>143.0</ele><time>2026-04-19T18:45:52Z</time></trkpt><trkpt lat="38.03533126992162" lon="-1.1843430855010684"><ele>142.5</ele><time>2026-04-19T18:45:53Z</time></trkpt><trkpt lat="38.03534488163302" lon="-1.1845106642030534"><ele>142.0</ele><time>2026-04-19T18:45:54Z</time></trkpt><trkpt lat="38.03535809342601" lon="-1.1846803591850084"><ele>141.0</ele><time>2026-04-19T18:45:55Z</time></trkpt><trkpt lat="38.03537301517377" lon="-1.1848663811571838"><ele>140.0</ele><time>2026-04-19T18:45:56Z</time></trkpt><trkpt lat="38.03539621030938" lon="-1.1850742403393097"><ele>139.0</ele><time>2026-04-19T18:45:57Z</time></trkpt><trkpt lat="38.035419588043744" lon="-1.185280502493204"><ele>139.0</ele><time>2026-04-19T18:45:58Z</time></trkpt><trkpt lat="38.03543738057046" lon="-1.1854687181269792"><ele>139.0</ele><time>2026-04-19T18:45:59Z</time></trkpt><trkpt lat="38.035451323164416" lon="-1.1856483289912958"><ele>139.0</ele><time>2026-04-19T18:46:00Z</time></trkpt><trkpt lat="38.035465973149094" lon="-1.1858227325166726"><ele>139.0</ele><time>2026-04-19T18:46:01Z</time></trkpt><trkpt lat="38.03547875731095" lon="-1.1859942212318135"><ele>138.66666666666669</ele><time>2026-04-19T18:46:02Z</time></trkpt><trkpt lat="38.035488603554526" lon="-1.1861710523959197"><ele>138.33333333333334</ele><time>2026-04-19T18:46:03Z</time></trkpt><trkpt lat="38.03550023764117" lon="-1.1863721144209272"><ele>138.0</ele><time>2026-04-19T18:46:04Z</time></trkpt><trkpt lat="38.0355144319896" lon="-1.1865924461947246"><ele>137.33333333333334</ele><time>2026-04-19T18:46:05Z</time></trkpt><trkpt lat="38.035521690804025" lon="-1.1867982227088434"><ele>136.66666666666669</ele><time>2026-04-19T18:46:06Z</time></trkpt><trkpt lat="38.035525514762604" lon="-1.1869861248851277"><ele>136.0</ele><time>2026-04-19T18:46:07Z</time></trkpt><trkpt lat="38.03552948086826" lon="-1.1871633875779297"><ele>136.0</ele><time>2026-04-19T18:46:08Z</time></trkpt><trkpt lat="38.03553384623092" lon="-1.1873290782113914"><ele>136.0</ele><time>2026-04-19T18:46:09Z</time></trkpt><trkpt lat="38.03554865824614" lon="-1.1874975028753023"><ele>136.0</ele><time>2026-04-19T18:46:10Z</time></trkpt><trkpt lat="38.0355625654352" lon="-1.1876692834060851"><ele>136.0</ele><time>2026-04-19T18:46:11Z</time></trkpt><trkpt lat="38.035589240637705" lon="-1.1878647764065202"><ele>136.0</ele><time>2026-04-19T18:46:12Z</time></trkpt><trkpt lat="38.03562393432056" lon="-1.1880554431142314"><ele>136.0</ele><time>2026-04-19T18:46:13Z</time></trkpt><trkpt lat="38.03566264599654" lon="-1.1882240169930294"><ele>136.0</ele><time>2026-04-19T18:46:14Z</time></trkpt><trkpt lat="38.03569795389094" lon="-1.1883668176803135"><ele>136.0</ele><time>2026-04-19T18:46:15Z</time></trkpt><trkpt lat="38.03572850792306" lon="-1.1884918680502101"><ele>136.0</ele><time>2026-04-19T18:46:16Z</time></trkpt><trkpt lat="38.0357576937445" lon="-1.1886030727555077"><ele>136.0</ele><time>2026-04-19T18:46:17Z</time></trkpt><trkpt lat="38.03578308367147" lon="-1.1886886234332033"><ele>136.0</ele><time>2026-04-19T18:46:18Z</time></trkpt><trkpt lat="38.035797910345444" lon="-1.1887666562782513"><ele>136.0</ele><time>2026-04-19T18:46:19Z</time></trkpt><trkpt lat="38.035944012364936" lon="-1.188804908830305"><ele>136.0</ele><time>2026-04-19T18:46:22Z</time></trkpt><trkpt lat="38.03606922240882" lon="-1.1887691565871932"><ele>139.0</ele><time>2026-04-19T18:46:24Z</time></trkpt><trkpt lat="38.036135557322844" lon="-1.188736139113559"><ele>139.0</ele><time>2026-04-19T18:46:26Z</time></trkpt><trkpt lat="38.036070774111465" lon="-1.1887314642397773"><ele>139.0</ele><time>2026-04-19T18:46:34Z</time></trkpt><trkpt lat="38.0359832806918" lon="-1.1887389622419133"><ele>139.0</ele><time>2026-04-19T18:47:23Z</time></trkpt></trkseg></trk></gpx>